<?xml version="1.0" encoding="UTF-8" standalone="no" ?>
<gpx xmlns="http://www.topografix.com/GPX/1/1" xmlns:xsi="http://www.w3.org/2001/XMLSchema-instance" xsi:schemaLocation="http://www.topografix.com/GPX/1/1 http://www.topografix.com/GPX/1/1/gpx.xsd" version="1.1" creator="VisuGPX - https://www.visugpx.com">
  <metadata>
    <name>VTT-Cindre-Thou-Py-Verdun</name>
    <desc><![CDATA[Remise en jambes et reprise en mains du VTT après l\'hiver]]></desc>
  </metadata>
  <trk>
    <name><![CDATA[2012-03-17T13:46:47Z]]></name>
    <trkseg>
      <trkpt lat="45.80394" lon="4.83126">
        <ele>238</ele>
        <time>2012-03-17T13:46:47Z</time>
      </trkpt>
      <trkpt lat="45.80399" lon="4.83128">
        <ele>238</ele>
        <time>2012-03-17T13:46:50Z</time>
      </trkpt>
      <trkpt lat="45.80404" lon="4.83129">
        <ele>238</ele>
        <time>2012-03-17T13:46:53Z</time>
      </trkpt>
      <trkpt lat="45.80402" lon="4.83128">
        <ele>238</ele>
        <time>2012-03-17T13:46:55Z</time>
      </trkpt>
      <trkpt lat="45.80401" lon="4.83125">
        <ele>238</ele>
        <time>2012-03-17T13:46:56Z</time>
      </trkpt>
      <trkpt lat="45.80401" lon="4.83111">
        <ele>238</ele>
        <time>2012-03-17T13:47:01Z</time>
      </trkpt>
      <trkpt lat="45.80403" lon="4.83108">
        <ele>238</ele>
        <time>2012-03-17T13:47:02Z</time>
      </trkpt>
      <trkpt lat="45.80405" lon="4.83099">
        <ele>239</ele>
        <time>2012-03-17T13:47:04Z</time>
      </trkpt>
      <trkpt lat="45.80408" lon="4.83084">
        <ele>239</ele>
        <time>2012-03-17T13:47:07Z</time>
      </trkpt>
      <trkpt lat="45.8042" lon="4.83051">
        <ele>242</ele>
        <time>2012-03-17T13:47:15Z</time>
      </trkpt>
      <trkpt lat="45.80421" lon="4.83046">
        <ele>242</ele>
        <time>2012-03-17T13:47:16Z</time>
      </trkpt>
      <trkpt lat="45.80431" lon="4.83021">
        <ele>242</ele>
        <time>2012-03-17T13:47:23Z</time>
      </trkpt>
      <trkpt lat="45.80438" lon="4.83004">
        <ele>242</ele>
        <time>2012-03-17T13:47:28Z</time>
      </trkpt>
      <trkpt lat="45.80443" lon="4.82983">
        <ele>241</ele>
        <time>2012-03-17T13:47:33Z</time>
      </trkpt>
      <trkpt lat="45.80453" lon="4.82963">
        <ele>241</ele>
        <time>2012-03-17T13:47:39Z</time>
      </trkpt>
      <trkpt lat="45.80456" lon="4.8296">
        <ele>241</ele>
        <time>2012-03-17T13:47:40Z</time>
      </trkpt>
      <trkpt lat="45.80469" lon="4.82953">
        <ele>240</ele>
        <time>2012-03-17T13:47:44Z</time>
      </trkpt>
      <trkpt lat="45.80473" lon="4.82952">
        <ele>240</ele>
        <time>2012-03-17T13:47:45Z</time>
      </trkpt>
      <trkpt lat="45.80493" lon="4.82956">
        <ele>240</ele>
        <time>2012-03-17T13:47:49Z</time>
      </trkpt>
      <trkpt lat="45.80498" lon="4.82956">
        <ele>240</ele>
        <time>2012-03-17T13:47:50Z</time>
      </trkpt>
      <trkpt lat="45.80503" lon="4.82955">
        <ele>240</ele>
        <time>2012-03-17T13:47:51Z</time>
      </trkpt>
      <trkpt lat="45.80519" lon="4.8295">
        <ele>240</ele>
        <time>2012-03-17T13:47:54Z</time>
      </trkpt>
      <trkpt lat="45.80531" lon="4.82949">
        <ele>240</ele>
        <time>2012-03-17T13:47:56Z</time>
      </trkpt>
      <trkpt lat="45.80557" lon="4.82946">
        <ele>240</ele>
        <time>2012-03-17T13:48:00Z</time>
      </trkpt>
      <trkpt lat="45.80569" lon="4.82942">
        <ele>240</ele>
        <time>2012-03-17T13:48:02Z</time>
      </trkpt>
      <trkpt lat="45.80591" lon="4.82932">
        <ele>240</ele>
        <time>2012-03-17T13:48:06Z</time>
      </trkpt>
      <trkpt lat="45.80607" lon="4.82925">
        <ele>241</ele>
        <time>2012-03-17T13:48:09Z</time>
      </trkpt>
      <trkpt lat="45.80617" lon="4.8292">
        <ele>241</ele>
        <time>2012-03-17T13:48:11Z</time>
      </trkpt>
      <trkpt lat="45.80645" lon="4.82906">
        <ele>239</ele>
        <time>2012-03-17T13:48:15Z</time>
      </trkpt>
      <trkpt lat="45.80679" lon="4.82895">
        <ele>241</ele>
        <time>2012-03-17T13:48:19Z</time>
      </trkpt>
      <trkpt lat="45.80688" lon="4.82895">
        <ele>241</ele>
        <time>2012-03-17T13:48:20Z</time>
      </trkpt>
      <trkpt lat="45.8071" lon="4.829">
        <ele>241</ele>
        <time>2012-03-17T13:48:23Z</time>
      </trkpt>
      <trkpt lat="45.80717" lon="4.82902">
        <ele>241</ele>
        <time>2012-03-17T13:48:24Z</time>
      </trkpt>
      <trkpt lat="45.8073" lon="4.82906">
        <ele>241</ele>
        <time>2012-03-17T13:48:26Z</time>
      </trkpt>
      <trkpt lat="45.80735" lon="4.82908">
        <ele>241</ele>
        <time>2012-03-17T13:48:27Z</time>
      </trkpt>
      <trkpt lat="45.80751" lon="4.82917">
        <ele>242</ele>
        <time>2012-03-17T13:48:30Z</time>
      </trkpt>
      <trkpt lat="45.80768" lon="4.82928">
        <ele>243</ele>
        <time>2012-03-17T13:48:33Z</time>
      </trkpt>
      <trkpt lat="45.80774" lon="4.82932">
        <ele>244</ele>
        <time>2012-03-17T13:48:34Z</time>
      </trkpt>
      <trkpt lat="45.80786" lon="4.8294">
        <ele>244</ele>
        <time>2012-03-17T13:48:36Z</time>
      </trkpt>
      <trkpt lat="45.80798" lon="4.82946">
        <ele>244</ele>
        <time>2012-03-17T13:48:38Z</time>
      </trkpt>
      <trkpt lat="45.80803" lon="4.82948">
        <ele>244</ele>
        <time>2012-03-17T13:48:39Z</time>
      </trkpt>
      <trkpt lat="45.80815" lon="4.82951">
        <ele>244</ele>
        <time>2012-03-17T13:48:41Z</time>
      </trkpt>
      <trkpt lat="45.80844" lon="4.82959">
        <ele>246</ele>
        <time>2012-03-17T13:48:46Z</time>
      </trkpt>
      <trkpt lat="45.80861" lon="4.82964">
        <ele>246</ele>
        <time>2012-03-17T13:48:49Z</time>
      </trkpt>
      <trkpt lat="45.80884" lon="4.82972">
        <ele>246</ele>
        <time>2012-03-17T13:48:53Z</time>
      </trkpt>
      <trkpt lat="45.809" lon="4.82978">
        <ele>247</ele>
        <time>2012-03-17T13:48:56Z</time>
      </trkpt>
      <trkpt lat="45.8092" lon="4.82983">
        <ele>249</ele>
        <time>2012-03-17T13:49:00Z</time>
      </trkpt>
      <trkpt lat="45.80935" lon="4.82984">
        <ele>249</ele>
        <time>2012-03-17T13:49:03Z</time>
      </trkpt>
      <trkpt lat="45.80939" lon="4.82983">
        <ele>248</ele>
        <time>2012-03-17T13:49:04Z</time>
      </trkpt>
      <trkpt lat="45.80957" lon="4.82984">
        <ele>249</ele>
        <time>2012-03-17T13:49:08Z</time>
      </trkpt>
      <trkpt lat="45.80996" lon="4.82986">
        <ele>249</ele>
        <time>2012-03-17T13:49:17Z</time>
      </trkpt>
      <trkpt lat="45.81027" lon="4.82987">
        <ele>249</ele>
        <time>2012-03-17T13:49:25Z</time>
      </trkpt>
      <trkpt lat="45.81032" lon="4.8299">
        <ele>250</ele>
        <time>2012-03-17T13:49:27Z</time>
      </trkpt>
      <trkpt lat="45.81034" lon="4.82993">
        <ele>250</ele>
        <time>2012-03-17T13:49:28Z</time>
      </trkpt>
      <trkpt lat="45.81033" lon="4.82998">
        <ele>250</ele>
        <time>2012-03-17T13:49:29Z</time>
      </trkpt>
      <trkpt lat="45.81033" lon="4.83039">
        <ele>250</ele>
        <time>2012-03-17T13:49:36Z</time>
      </trkpt>
      <trkpt lat="45.81032" lon="4.83044">
        <ele>250</ele>
        <time>2012-03-17T13:49:37Z</time>
      </trkpt>
      <trkpt lat="45.81031" lon="4.83065">
        <ele>251</ele>
        <time>2012-03-17T13:49:41Z</time>
      </trkpt>
      <trkpt lat="45.81033" lon="4.8307">
        <ele>251</ele>
        <time>2012-03-17T13:49:43Z</time>
      </trkpt>
      <trkpt lat="45.81039" lon="4.83072">
        <ele>251</ele>
        <time>2012-03-17T13:49:45Z</time>
      </trkpt>
      <trkpt lat="45.81053" lon="4.83067">
        <ele>251</ele>
        <time>2012-03-17T13:49:49Z</time>
      </trkpt>
      <trkpt lat="45.81081" lon="4.83061">
        <ele>251</ele>
        <time>2012-03-17T13:49:55Z</time>
      </trkpt>
      <trkpt lat="45.81091" lon="4.83059">
        <ele>252</ele>
        <time>2012-03-17T13:49:57Z</time>
      </trkpt>
      <trkpt lat="45.81115" lon="4.83053">
        <ele>253</ele>
        <time>2012-03-17T13:50:02Z</time>
      </trkpt>
      <trkpt lat="45.81129" lon="4.83049">
        <ele>253</ele>
        <time>2012-03-17T13:50:05Z</time>
      </trkpt>
      <trkpt lat="45.81148" lon="4.83045">
        <ele>253</ele>
        <time>2012-03-17T13:50:09Z</time>
      </trkpt>
      <trkpt lat="45.81167" lon="4.83042">
        <ele>253</ele>
        <time>2012-03-17T13:50:13Z</time>
      </trkpt>
      <trkpt lat="45.81171" lon="4.83041">
        <ele>256</ele>
        <time>2012-03-17T13:50:14Z</time>
      </trkpt>
      <trkpt lat="45.8118" lon="4.83039">
        <ele>256</ele>
        <time>2012-03-17T13:50:16Z</time>
      </trkpt>
      <trkpt lat="45.81206" lon="4.83033">
        <ele>257</ele>
        <time>2012-03-17T13:50:22Z</time>
      </trkpt>
      <trkpt lat="45.8121" lon="4.83032">
        <ele>257</ele>
        <time>2012-03-17T13:50:23Z</time>
      </trkpt>
      <trkpt lat="45.81232" lon="4.83027">
        <ele>258</ele>
        <time>2012-03-17T13:50:28Z</time>
      </trkpt>
      <trkpt lat="45.81242" lon="4.83025">
        <ele>258</ele>
        <time>2012-03-17T13:50:30Z</time>
      </trkpt>
      <trkpt lat="45.81247" lon="4.83024">
        <ele>258</ele>
        <time>2012-03-17T13:50:31Z</time>
      </trkpt>
      <trkpt lat="45.81262" lon="4.83022">
        <ele>261</ele>
        <time>2012-03-17T13:50:34Z</time>
      </trkpt>
      <trkpt lat="45.81282" lon="4.83018">
        <ele>262</ele>
        <time>2012-03-17T13:50:38Z</time>
      </trkpt>
      <trkpt lat="45.81298" lon="4.83012">
        <ele>262</ele>
        <time>2012-03-17T13:50:41Z</time>
      </trkpt>
      <trkpt lat="45.81318" lon="4.83005">
        <ele>263</ele>
        <time>2012-03-17T13:50:45Z</time>
      </trkpt>
      <trkpt lat="45.81339" lon="4.82996">
        <ele>263</ele>
        <time>2012-03-17T13:50:49Z</time>
      </trkpt>
      <trkpt lat="45.81354" lon="4.8299">
        <ele>263</ele>
        <time>2012-03-17T13:50:52Z</time>
      </trkpt>
      <trkpt lat="45.81375" lon="4.82985">
        <ele>263</ele>
        <time>2012-03-17T13:50:56Z</time>
      </trkpt>
      <trkpt lat="45.81391" lon="4.82981">
        <ele>263</ele>
        <time>2012-03-17T13:50:59Z</time>
      </trkpt>
      <trkpt lat="45.81424" lon="4.82975">
        <ele>264</ele>
        <time>2012-03-17T13:51:05Z</time>
      </trkpt>
      <trkpt lat="45.81429" lon="4.82974">
        <ele>264</ele>
        <time>2012-03-17T13:51:06Z</time>
      </trkpt>
      <trkpt lat="45.81464" lon="4.8297">
        <ele>264</ele>
        <time>2012-03-17T13:51:13Z</time>
      </trkpt>
      <trkpt lat="45.81469" lon="4.82969">
        <ele>264</ele>
        <time>2012-03-17T13:51:14Z</time>
      </trkpt>
      <trkpt lat="45.81494" lon="4.82964">
        <ele>265</ele>
        <time>2012-03-17T13:51:19Z</time>
      </trkpt>
      <trkpt lat="45.81507" lon="4.82961">
        <ele>267</ele>
        <time>2012-03-17T13:51:22Z</time>
      </trkpt>
      <trkpt lat="45.81521" lon="4.82961">
        <ele>267</ele>
        <time>2012-03-17T13:51:25Z</time>
      </trkpt>
      <trkpt lat="45.81544" lon="4.82954">
        <ele>268</ele>
        <time>2012-03-17T13:51:31Z</time>
      </trkpt>
      <trkpt lat="45.81573" lon="4.82939">
        <ele>269</ele>
        <time>2012-03-17T13:51:39Z</time>
      </trkpt>
      <trkpt lat="45.8158" lon="4.82936">
        <ele>269</ele>
        <time>2012-03-17T13:51:41Z</time>
      </trkpt>
      <trkpt lat="45.81597" lon="4.82928">
        <ele>272</ele>
        <time>2012-03-17T13:51:46Z</time>
      </trkpt>
      <trkpt lat="45.81616" lon="4.82919">
        <ele>272</ele>
        <time>2012-03-17T13:51:52Z</time>
      </trkpt>
      <trkpt lat="45.81632" lon="4.82909">
        <ele>274</ele>
        <time>2012-03-17T13:51:58Z</time>
      </trkpt>
      <trkpt lat="45.81644" lon="4.82918">
        <ele>273</ele>
        <time>2012-03-17T13:52:02Z</time>
      </trkpt>
      <trkpt lat="45.8165" lon="4.82926">
        <ele>273</ele>
        <time>2012-03-17T13:52:04Z</time>
      </trkpt>
      <trkpt lat="45.81667" lon="4.82948">
        <ele>274</ele>
        <time>2012-03-17T13:52:09Z</time>
      </trkpt>
      <trkpt lat="45.81682" lon="4.82954">
        <ele>274</ele>
        <time>2012-03-17T13:52:12Z</time>
      </trkpt>
      <trkpt lat="45.81691" lon="4.82958">
        <ele>274</ele>
        <time>2012-03-17T13:52:14Z</time>
      </trkpt>
      <trkpt lat="45.81719" lon="4.82961">
        <ele>274</ele>
        <time>2012-03-17T13:52:20Z</time>
      </trkpt>
      <trkpt lat="45.81723" lon="4.82961">
        <ele>274</ele>
        <time>2012-03-17T13:52:21Z</time>
      </trkpt>
      <trkpt lat="45.81754" lon="4.82965">
        <ele>276</ele>
        <time>2012-03-17T13:52:28Z</time>
      </trkpt>
      <trkpt lat="45.81759" lon="4.82965">
        <ele>276</ele>
        <time>2012-03-17T13:52:29Z</time>
      </trkpt>
      <trkpt lat="45.8179" lon="4.82968">
        <ele>277</ele>
        <time>2012-03-17T13:52:35Z</time>
      </trkpt>
      <trkpt lat="45.818" lon="4.8297">
        <ele>277</ele>
        <time>2012-03-17T13:52:37Z</time>
      </trkpt>
      <trkpt lat="45.81817" lon="4.82974">
        <ele>277</ele>
        <time>2012-03-17T13:52:40Z</time>
      </trkpt>
      <trkpt lat="45.81833" lon="4.82961">
        <ele>278</ele>
        <time>2012-03-17T13:52:43Z</time>
      </trkpt>
      <trkpt lat="45.81835" lon="4.82955">
        <ele>280</ele>
        <time>2012-03-17T13:52:44Z</time>
      </trkpt>
      <trkpt lat="45.81836" lon="4.82949">
        <ele>280</ele>
        <time>2012-03-17T13:52:45Z</time>
      </trkpt>
      <trkpt lat="45.8184" lon="4.82941">
        <ele>281</ele>
        <time>2012-03-17T13:52:47Z</time>
      </trkpt>
      <trkpt lat="45.81848" lon="4.82925">
        <ele>281</ele>
        <time>2012-03-17T13:52:52Z</time>
      </trkpt>
      <trkpt lat="45.81858" lon="4.8291">
        <ele>285</ele>
        <time>2012-03-17T13:52:58Z</time>
      </trkpt>
      <trkpt lat="45.81859" lon="4.82907">
        <ele>286</ele>
        <time>2012-03-17T13:52:59Z</time>
      </trkpt>
      <trkpt lat="45.81866" lon="4.82892">
        <ele>286</ele>
        <time>2012-03-17T13:53:05Z</time>
      </trkpt>
      <trkpt lat="45.81875" lon="4.82877">
        <ele>287</ele>
        <time>2012-03-17T13:53:11Z</time>
      </trkpt>
      <trkpt lat="45.81879" lon="4.82868">
        <ele>287</ele>
        <time>2012-03-17T13:53:14Z</time>
      </trkpt>
      <trkpt lat="45.81888" lon="4.82856">
        <ele>288</ele>
        <time>2012-03-17T13:53:19Z</time>
      </trkpt>
      <trkpt lat="45.81901" lon="4.82856">
        <ele>288</ele>
        <time>2012-03-17T13:53:24Z</time>
      </trkpt>
      <trkpt lat="45.81914" lon="4.82859">
        <ele>288</ele>
        <time>2012-03-17T13:53:29Z</time>
      </trkpt>
      <trkpt lat="45.81917" lon="4.8286">
        <ele>290</ele>
        <time>2012-03-17T13:53:30Z</time>
      </trkpt>
      <trkpt lat="45.81935" lon="4.82869">
        <ele>290</ele>
        <time>2012-03-17T13:53:37Z</time>
      </trkpt>
      <trkpt lat="45.81948" lon="4.82872">
        <ele>290</ele>
        <time>2012-03-17T13:53:42Z</time>
      </trkpt>
      <trkpt lat="45.8195" lon="4.82872">
        <ele>290</ele>
        <time>2012-03-17T13:53:43Z</time>
      </trkpt>
      <trkpt lat="45.81963" lon="4.82871">
        <ele>291</ele>
        <time>2012-03-17T13:53:48Z</time>
      </trkpt>
      <trkpt lat="45.81983" lon="4.82871">
        <ele>291</ele>
        <time>2012-03-17T13:53:56Z</time>
      </trkpt>
      <trkpt lat="45.81987" lon="4.8287">
        <ele>292</ele>
        <time>2012-03-17T13:53:57Z</time>
      </trkpt>
      <trkpt lat="45.82008" lon="4.82868">
        <ele>297</ele>
        <time>2012-03-17T13:54:04Z</time>
      </trkpt>
      <trkpt lat="45.82024" lon="4.82866">
        <ele>298</ele>
        <time>2012-03-17T13:54:10Z</time>
      </trkpt>
      <trkpt lat="45.82029" lon="4.82866">
        <ele>298</ele>
        <time>2012-03-17T13:54:13Z</time>
      </trkpt>
      <trkpt lat="45.82046" lon="4.82865">
        <ele>299</ele>
        <time>2012-03-17T13:54:21Z</time>
      </trkpt>
      <trkpt lat="45.82058" lon="4.82868">
        <ele>299</ele>
        <time>2012-03-17T13:54:26Z</time>
      </trkpt>
      <trkpt lat="45.8206" lon="4.82869">
        <ele>299</ele>
        <time>2012-03-17T13:54:27Z</time>
      </trkpt>
      <trkpt lat="45.82066" lon="4.82872">
        <ele>300</ele>
        <time>2012-03-17T13:54:30Z</time>
      </trkpt>
      <trkpt lat="45.82082" lon="4.82876">
        <ele>300</ele>
        <time>2012-03-17T13:54:36Z</time>
      </trkpt>
      <trkpt lat="45.82096" lon="4.8288">
        <ele>305</ele>
        <time>2012-03-17T13:54:42Z</time>
      </trkpt>
      <trkpt lat="45.82111" lon="4.82883">
        <ele>306</ele>
        <time>2012-03-17T13:54:48Z</time>
      </trkpt>
      <trkpt lat="45.82128" lon="4.82885">
        <ele>307</ele>
        <time>2012-03-17T13:54:55Z</time>
      </trkpt>
      <trkpt lat="45.82133" lon="4.82886">
        <ele>307</ele>
        <time>2012-03-17T13:54:57Z</time>
      </trkpt>
      <trkpt lat="45.82141" lon="4.82892">
        <ele>307</ele>
        <time>2012-03-17T13:55:01Z</time>
      </trkpt>
      <trkpt lat="45.82155" lon="4.82895">
        <ele>307</ele>
        <time>2012-03-17T13:55:06Z</time>
      </trkpt>
      <trkpt lat="45.82165" lon="4.829">
        <ele>306</ele>
        <time>2012-03-17T13:55:11Z</time>
      </trkpt>
      <trkpt lat="45.8217" lon="4.829">
        <ele>310</ele>
        <time>2012-03-17T13:55:13Z</time>
      </trkpt>
      <trkpt lat="45.8218" lon="4.82904">
        <ele>310</ele>
        <time>2012-03-17T13:55:17Z</time>
      </trkpt>
      <trkpt lat="45.82197" lon="4.82909">
        <ele>311</ele>
        <time>2012-03-17T13:55:23Z</time>
      </trkpt>
      <trkpt lat="45.82207" lon="4.82912">
        <ele>312</ele>
        <time>2012-03-17T13:55:26Z</time>
      </trkpt>
      <trkpt lat="45.82215" lon="4.82915">
        <ele>312</ele>
        <time>2012-03-17T13:55:28Z</time>
      </trkpt>
      <trkpt lat="45.82229" lon="4.82921">
        <ele>304</ele>
        <time>2012-03-17T13:55:32Z</time>
      </trkpt>
      <trkpt lat="45.82244" lon="4.82923">
        <ele>307</ele>
        <time>2012-03-17T13:55:36Z</time>
      </trkpt>
      <trkpt lat="45.82248" lon="4.82922">
        <ele>308</ele>
        <time>2012-03-17T13:55:37Z</time>
      </trkpt>
      <trkpt lat="45.82264" lon="4.82913">
        <ele>312</ele>
        <time>2012-03-17T13:55:41Z</time>
      </trkpt>
      <trkpt lat="45.82267" lon="4.82913">
        <ele>313</ele>
        <time>2012-03-17T13:55:42Z</time>
      </trkpt>
      <trkpt lat="45.82272" lon="4.8291">
        <ele>313</ele>
        <time>2012-03-17T13:55:43Z</time>
      </trkpt>
      <trkpt lat="45.82281" lon="4.82905">
        <ele>314</ele>
        <time>2012-03-17T13:55:45Z</time>
      </trkpt>
      <trkpt lat="45.82289" lon="4.829">
        <ele>314</ele>
        <time>2012-03-17T13:55:47Z</time>
      </trkpt>
      <trkpt lat="45.82303" lon="4.82897">
        <ele>314</ele>
        <time>2012-03-17T13:55:51Z</time>
      </trkpt>
      <trkpt lat="45.82317" lon="4.82897">
        <ele>313</ele>
        <time>2012-03-17T13:55:55Z</time>
      </trkpt>
      <trkpt lat="45.82333" lon="4.82904">
        <ele>311</ele>
        <time>2012-03-17T13:55:59Z</time>
      </trkpt>
      <trkpt lat="45.82342" lon="4.82904">
        <ele>312</ele>
        <time>2012-03-17T13:56:01Z</time>
      </trkpt>
      <trkpt lat="45.82355" lon="4.82905">
        <ele>313</ele>
        <time>2012-03-17T13:56:04Z</time>
      </trkpt>
      <trkpt lat="45.82368" lon="4.82907">
        <ele>314</ele>
        <time>2012-03-17T13:56:07Z</time>
      </trkpt>
      <trkpt lat="45.82372" lon="4.82908">
        <ele>314</ele>
        <time>2012-03-17T13:56:08Z</time>
      </trkpt>
      <trkpt lat="45.8238" lon="4.82909">
        <ele>314</ele>
        <time>2012-03-17T13:56:10Z</time>
      </trkpt>
      <trkpt lat="45.82389" lon="4.82916">
        <ele>314</ele>
        <time>2012-03-17T13:56:12Z</time>
      </trkpt>
      <trkpt lat="45.82394" lon="4.82918">
        <ele>305</ele>
        <time>2012-03-17T13:56:13Z</time>
      </trkpt>
      <trkpt lat="45.82398" lon="4.82921">
        <ele>306</ele>
        <time>2012-03-17T13:56:14Z</time>
      </trkpt>
      <trkpt lat="45.82413" lon="4.8293">
        <ele>306</ele>
        <time>2012-03-17T13:56:17Z</time>
      </trkpt>
      <trkpt lat="45.82421" lon="4.82934">
        <ele>307</ele>
        <time>2012-03-17T13:56:19Z</time>
      </trkpt>
      <trkpt lat="45.8243" lon="4.82933">
        <ele>307</ele>
        <time>2012-03-17T13:56:21Z</time>
      </trkpt>
      <trkpt lat="45.82447" lon="4.82923">
        <ele>307</ele>
        <time>2012-03-17T13:56:26Z</time>
      </trkpt>
      <trkpt lat="45.82462" lon="4.82914">
        <ele>318</ele>
        <time>2012-03-17T13:56:32Z</time>
      </trkpt>
      <trkpt lat="45.82464" lon="4.82913">
        <ele>318</ele>
        <time>2012-03-17T13:56:33Z</time>
      </trkpt>
      <trkpt lat="45.82474" lon="4.82906">
        <ele>319</ele>
        <time>2012-03-17T13:56:37Z</time>
      </trkpt>
      <trkpt lat="45.82489" lon="4.82901">
        <ele>318</ele>
        <time>2012-03-17T13:56:43Z</time>
      </trkpt>
      <trkpt lat="45.82499" lon="4.82898">
        <ele>318</ele>
        <time>2012-03-17T13:56:47Z</time>
      </trkpt>
      <trkpt lat="45.82505" lon="4.82896">
        <ele>322</ele>
        <time>2012-03-17T13:56:50Z</time>
      </trkpt>
      <trkpt lat="45.82518" lon="4.82894">
        <ele>323</ele>
        <time>2012-03-17T13:56:57Z</time>
      </trkpt>
      <trkpt lat="45.82527" lon="4.82895">
        <ele>324</ele>
        <time>2012-03-17T13:57:03Z</time>
      </trkpt>
      <trkpt lat="45.82532" lon="4.82903">
        <ele>324</ele>
        <time>2012-03-17T13:57:07Z</time>
      </trkpt>
      <trkpt lat="45.82535" lon="4.82908">
        <ele>324</ele>
        <time>2012-03-17T13:57:10Z</time>
      </trkpt>
      <trkpt lat="45.82539" lon="4.82915">
        <ele>324</ele>
        <time>2012-03-17T13:57:14Z</time>
      </trkpt>
      <trkpt lat="45.8254" lon="4.82922">
        <ele>314</ele>
        <time>2012-03-17T13:57:18Z</time>
      </trkpt>
      <trkpt lat="45.82549" lon="4.82936">
        <ele>314</ele>
        <time>2012-03-17T13:57:23Z</time>
      </trkpt>
      <trkpt lat="45.82557" lon="4.82943">
        <ele>314</ele>
        <time>2012-03-17T13:57:25Z</time>
      </trkpt>
      <trkpt lat="45.82569" lon="4.82948">
        <ele>314</ele>
        <time>2012-03-17T13:57:27Z</time>
      </trkpt>
      <trkpt lat="45.82595" lon="4.82964">
        <ele>319</ele>
        <time>2012-03-17T13:57:31Z</time>
      </trkpt>
      <trkpt lat="45.826" lon="4.82968">
        <ele>319</ele>
        <time>2012-03-17T13:57:32Z</time>
      </trkpt>
      <trkpt lat="45.82605" lon="4.82973">
        <ele>319</ele>
        <time>2012-03-17T13:57:33Z</time>
      </trkpt>
      <trkpt lat="45.82612" lon="4.82985">
        <ele>318</ele>
        <time>2012-03-17T13:57:35Z</time>
      </trkpt>
      <trkpt lat="45.82615" lon="4.82998">
        <ele>317</ele>
        <time>2012-03-17T13:57:37Z</time>
      </trkpt>
      <trkpt lat="45.82609" lon="4.83008">
        <ele>307</ele>
        <time>2012-03-17T13:57:38Z</time>
      </trkpt>
      <trkpt lat="45.82588" lon="4.83012">
        <ele>306</ele>
        <time>2012-03-17T13:57:41Z</time>
      </trkpt>
      <trkpt lat="45.8258" lon="4.83009">
        <ele>304</ele>
        <time>2012-03-17T13:57:42Z</time>
      </trkpt>
      <trkpt lat="45.82572" lon="4.83007">
        <ele>303</ele>
        <time>2012-03-17T13:57:43Z</time>
      </trkpt>
      <trkpt lat="45.82564" lon="4.83008">
        <ele>301</ele>
        <time>2012-03-17T13:57:44Z</time>
      </trkpt>
      <trkpt lat="45.82556" lon="4.83029">
        <ele>298</ele>
        <time>2012-03-17T13:57:47Z</time>
      </trkpt>
      <trkpt lat="45.82561" lon="4.83039">
        <ele>298</ele>
        <time>2012-03-17T13:57:48Z</time>
      </trkpt>
      <trkpt lat="45.82566" lon="4.83049">
        <ele>297</ele>
        <time>2012-03-17T13:57:49Z</time>
      </trkpt>
      <trkpt lat="45.82588" lon="4.83071">
        <ele>299</ele>
        <time>2012-03-17T13:57:52Z</time>
      </trkpt>
      <trkpt lat="45.82615" lon="4.83098">
        <ele>294</ele>
        <time>2012-03-17T13:57:56Z</time>
      </trkpt>
      <trkpt lat="45.82621" lon="4.83102">
        <ele>294</ele>
        <time>2012-03-17T13:57:57Z</time>
      </trkpt>
      <trkpt lat="45.82628" lon="4.83105">
        <ele>295</ele>
        <time>2012-03-17T13:57:58Z</time>
      </trkpt>
      <trkpt lat="45.82641" lon="4.83107">
        <ele>296</ele>
        <time>2012-03-17T13:58:00Z</time>
      </trkpt>
      <trkpt lat="45.82647" lon="4.83108">
        <ele>296</ele>
        <time>2012-03-17T13:58:01Z</time>
      </trkpt>
      <trkpt lat="45.82659" lon="4.83113">
        <ele>296</ele>
        <time>2012-03-17T13:58:03Z</time>
      </trkpt>
      <trkpt lat="45.82672" lon="4.83118">
        <ele>301</ele>
        <time>2012-03-17T13:58:05Z</time>
      </trkpt>
      <trkpt lat="45.82698" lon="4.8313">
        <ele>300</ele>
        <time>2012-03-17T13:58:09Z</time>
      </trkpt>
      <trkpt lat="45.82712" lon="4.83139">
        <ele>300</ele>
        <time>2012-03-17T13:58:11Z</time>
      </trkpt>
      <trkpt lat="45.82719" lon="4.83145">
        <ele>300</ele>
        <time>2012-03-17T13:58:12Z</time>
      </trkpt>
      <trkpt lat="45.82731" lon="4.83153">
        <ele>299</ele>
        <time>2012-03-17T13:58:14Z</time>
      </trkpt>
      <trkpt lat="45.82744" lon="4.8316">
        <ele>298</ele>
        <time>2012-03-17T13:58:16Z</time>
      </trkpt>
      <trkpt lat="45.8275" lon="4.83162">
        <ele>298</ele>
        <time>2012-03-17T13:58:17Z</time>
      </trkpt>
      <trkpt lat="45.8276" lon="4.83162">
        <ele>300</ele>
        <time>2012-03-17T13:58:19Z</time>
      </trkpt>
      <trkpt lat="45.82769" lon="4.83157">
        <ele>302</ele>
        <time>2012-03-17T13:58:22Z</time>
      </trkpt>
      <trkpt lat="45.82771" lon="4.83154">
        <ele>302</ele>
        <time>2012-03-17T13:58:23Z</time>
      </trkpt>
      <trkpt lat="45.82773" lon="4.83149">
        <ele>303</ele>
        <time>2012-03-17T13:58:25Z</time>
      </trkpt>
      <trkpt lat="45.82776" lon="4.83141">
        <ele>304</ele>
        <time>2012-03-17T13:58:29Z</time>
      </trkpt>
      <trkpt lat="45.82776" lon="4.83126">
        <ele>305</ele>
        <time>2012-03-17T13:58:36Z</time>
      </trkpt>
      <trkpt lat="45.8278" lon="4.83115">
        <ele>306</ele>
        <time>2012-03-17T13:58:43Z</time>
      </trkpt>
      <trkpt lat="45.82783" lon="4.83109">
        <ele>307</ele>
        <time>2012-03-17T13:58:47Z</time>
      </trkpt>
      <trkpt lat="45.82786" lon="4.83108">
        <ele>307</ele>
        <time>2012-03-17T13:58:49Z</time>
      </trkpt>
      <trkpt lat="45.82791" lon="4.83108">
        <ele>307</ele>
        <time>2012-03-17T13:58:56Z</time>
      </trkpt>
      <trkpt lat="45.82791" lon="4.83108">
        <ele>307</ele>
        <time>2012-03-17T13:59:03Z</time>
      </trkpt>
      <trkpt lat="45.82799" lon="4.83107">
        <ele>308</ele>
        <time>2012-03-17T13:59:20Z</time>
      </trkpt>
      <trkpt lat="45.82813" lon="4.83107">
        <ele>308</ele>
        <time>2012-03-17T13:59:27Z</time>
      </trkpt>
      <trkpt lat="45.8282" lon="4.83108">
        <ele>309</ele>
        <time>2012-03-17T13:59:30Z</time>
      </trkpt>
      <trkpt lat="45.82824" lon="4.83108">
        <ele>309</ele>
        <time>2012-03-17T13:59:32Z</time>
      </trkpt>
      <trkpt lat="45.82837" lon="4.8311">
        <ele>310</ele>
        <time>2012-03-17T13:59:38Z</time>
      </trkpt>
      <trkpt lat="45.82855" lon="4.83114">
        <ele>309</ele>
        <time>2012-03-17T13:59:44Z</time>
      </trkpt>
      <trkpt lat="45.82858" lon="4.83115">
        <ele>309</ele>
        <time>2012-03-17T13:59:45Z</time>
      </trkpt>
      <trkpt lat="45.82876" lon="4.83118">
        <ele>309</ele>
        <time>2012-03-17T13:59:51Z</time>
      </trkpt>
      <trkpt lat="45.82893" lon="4.8312">
        <ele>309</ele>
        <time>2012-03-17T13:59:56Z</time>
      </trkpt>
      <trkpt lat="45.82916" lon="4.83118">
        <ele>310</ele>
        <time>2012-03-17T14:00:02Z</time>
      </trkpt>
      <trkpt lat="45.8293" lon="4.83116">
        <ele>310</ele>
        <time>2012-03-17T14:00:06Z</time>
      </trkpt>
      <trkpt lat="45.82938" lon="4.83115">
        <ele>310</ele>
        <time>2012-03-17T14:00:08Z</time>
      </trkpt>
      <trkpt lat="45.82962" lon="4.83111">
        <ele>310</ele>
        <time>2012-03-17T14:00:14Z</time>
      </trkpt>
      <trkpt lat="45.82966" lon="4.8311">
        <ele>310</ele>
        <time>2012-03-17T14:00:15Z</time>
      </trkpt>
      <trkpt lat="45.82981" lon="4.83106">
        <ele>310</ele>
        <time>2012-03-17T14:00:18Z</time>
      </trkpt>
      <trkpt lat="45.82999" lon="4.831">
        <ele>312</ele>
        <time>2012-03-17T14:00:22Z</time>
      </trkpt>
      <trkpt lat="45.83003" lon="4.83098">
        <ele>310</ele>
        <time>2012-03-17T14:00:23Z</time>
      </trkpt>
      <trkpt lat="45.83007" lon="4.83094">
        <ele>311</ele>
        <time>2012-03-17T14:00:24Z</time>
      </trkpt>
      <trkpt lat="45.83021" lon="4.83079">
        <ele>313</ele>
        <time>2012-03-17T14:00:29Z</time>
      </trkpt>
      <trkpt lat="45.83031" lon="4.83072">
        <ele>312</ele>
        <time>2012-03-17T14:00:35Z</time>
      </trkpt>
      <trkpt lat="45.83035" lon="4.83068">
        <ele>312</ele>
        <time>2012-03-17T14:00:39Z</time>
      </trkpt>
      <trkpt lat="45.83036" lon="4.83064">
        <ele>312</ele>
        <time>2012-03-17T14:00:41Z</time>
      </trkpt>
      <trkpt lat="45.8304" lon="4.83043">
        <ele>312</ele>
        <time>2012-03-17T14:00:49Z</time>
      </trkpt>
      <trkpt lat="45.83034" lon="4.8304">
        <ele>312</ele>
        <time>2012-03-17T14:00:52Z</time>
      </trkpt>
      <trkpt lat="45.83024" lon="4.8304">
        <ele>313</ele>
        <time>2012-03-17T14:00:56Z</time>
      </trkpt>
      <trkpt lat="45.83021" lon="4.83039">
        <ele>313</ele>
        <time>2012-03-17T14:00:57Z</time>
      </trkpt>
      <trkpt lat="45.83019" lon="4.83039">
        <ele>313</ele>
        <time>2012-03-17T14:00:58Z</time>
      </trkpt>
      <trkpt lat="45.83004" lon="4.83033">
        <ele>314</ele>
        <time>2012-03-17T14:01:05Z</time>
      </trkpt>
      <trkpt lat="45.82993" lon="4.83025">
        <ele>319</ele>
        <time>2012-03-17T14:01:11Z</time>
      </trkpt>
      <trkpt lat="45.82989" lon="4.83023">
        <ele>319</ele>
        <time>2012-03-17T14:01:13Z</time>
      </trkpt>
      <trkpt lat="45.82981" lon="4.83019">
        <ele>320</ele>
        <time>2012-03-17T14:01:18Z</time>
      </trkpt>
      <trkpt lat="45.82971" lon="4.83011">
        <ele>320</ele>
        <time>2012-03-17T14:01:26Z</time>
      </trkpt>
      <trkpt lat="45.82963" lon="4.83011">
        <ele>321</ele>
        <time>2012-03-17T14:01:31Z</time>
      </trkpt>
      <trkpt lat="45.82955" lon="4.83009">
        <ele>321</ele>
        <time>2012-03-17T14:01:37Z</time>
      </trkpt>
      <trkpt lat="45.82952" lon="4.83008">
        <ele>322</ele>
        <time>2012-03-17T14:01:39Z</time>
      </trkpt>
      <trkpt lat="45.82942" lon="4.83003">
        <ele>323</ele>
        <time>2012-03-17T14:01:47Z</time>
      </trkpt>
      <trkpt lat="45.82937" lon="4.82991">
        <ele>327</ele>
        <time>2012-03-17T14:01:55Z</time>
      </trkpt>
      <trkpt lat="45.82933" lon="4.82977">
        <ele>328</ele>
        <time>2012-03-17T14:02:03Z</time>
      </trkpt>
      <trkpt lat="45.82933" lon="4.82973">
        <ele>328</ele>
        <time>2012-03-17T14:02:05Z</time>
      </trkpt>
      <trkpt lat="45.82935" lon="4.82962">
        <ele>328</ele>
        <time>2012-03-17T14:02:10Z</time>
      </trkpt>
      <trkpt lat="45.82938" lon="4.82944">
        <ele>329</ele>
        <time>2012-03-17T14:02:19Z</time>
      </trkpt>
      <trkpt lat="45.82942" lon="4.82933">
        <ele>330</ele>
        <time>2012-03-17T14:02:24Z</time>
      </trkpt>
      <trkpt lat="45.82944" lon="4.82923">
        <ele>330</ele>
        <time>2012-03-17T14:02:28Z</time>
      </trkpt>
      <trkpt lat="45.82945" lon="4.82918">
        <ele>330</ele>
        <time>2012-03-17T14:02:30Z</time>
      </trkpt>
      <trkpt lat="45.82947" lon="4.82897">
        <ele>339</ele>
        <time>2012-03-17T14:02:38Z</time>
      </trkpt>
      <trkpt lat="45.82949" lon="4.82878">
        <ele>341</ele>
        <time>2012-03-17T14:02:46Z</time>
      </trkpt>
      <trkpt lat="45.82951" lon="4.82871">
        <ele>341</ele>
        <time>2012-03-17T14:02:49Z</time>
      </trkpt>
      <trkpt lat="45.82952" lon="4.82862">
        <ele>342</ele>
        <time>2012-03-17T14:02:53Z</time>
      </trkpt>
      <trkpt lat="45.82954" lon="4.82854">
        <ele>343</ele>
        <time>2012-03-17T14:03:00Z</time>
      </trkpt>
      <trkpt lat="45.82956" lon="4.8285">
        <ele>343</ele>
        <time>2012-03-17T14:03:03Z</time>
      </trkpt>
      <trkpt lat="45.82959" lon="4.82845">
        <ele>343</ele>
        <time>2012-03-17T14:03:06Z</time>
      </trkpt>
      <trkpt lat="45.82963" lon="4.82834">
        <ele>342</ele>
        <time>2012-03-17T14:03:14Z</time>
      </trkpt>
      <trkpt lat="45.82968" lon="4.82831">
        <ele>354</ele>
        <time>2012-03-17T14:03:23Z</time>
      </trkpt>
      <trkpt lat="45.82968" lon="4.82827">
        <ele>355</ele>
        <time>2012-03-17T14:03:32Z</time>
      </trkpt>
      <trkpt lat="45.82971" lon="4.82823">
        <ele>354</ele>
        <time>2012-03-17T14:03:48Z</time>
      </trkpt>
      <trkpt lat="45.82975" lon="4.8282">
        <ele>354</ele>
        <time>2012-03-17T14:03:50Z</time>
      </trkpt>
      <trkpt lat="45.82981" lon="4.82806">
        <ele>355</ele>
        <time>2012-03-17T14:03:55Z</time>
      </trkpt>
      <trkpt lat="45.82983" lon="4.82802">
        <ele>356</ele>
        <time>2012-03-17T14:03:56Z</time>
      </trkpt>
      <trkpt lat="45.82993" lon="4.82787">
        <ele>357</ele>
        <time>2012-03-17T14:04:00Z</time>
      </trkpt>
      <trkpt lat="45.82995" lon="4.82783">
        <ele>358</ele>
        <time>2012-03-17T14:04:01Z</time>
      </trkpt>
      <trkpt lat="45.83008" lon="4.82766">
        <ele>346</ele>
        <time>2012-03-17T14:04:05Z</time>
      </trkpt>
      <trkpt lat="45.83023" lon="4.82749">
        <ele>355</ele>
        <time>2012-03-17T14:04:09Z</time>
      </trkpt>
      <trkpt lat="45.83026" lon="4.82743">
        <ele>354</ele>
        <time>2012-03-17T14:04:10Z</time>
      </trkpt>
      <trkpt lat="45.83036" lon="4.82725">
        <ele>354</ele>
        <time>2012-03-17T14:04:14Z</time>
      </trkpt>
      <trkpt lat="45.83048" lon="4.82701">
        <ele>354</ele>
        <time>2012-03-17T14:04:18Z</time>
      </trkpt>
      <trkpt lat="45.83051" lon="4.82694">
        <ele>355</ele>
        <time>2012-03-17T14:04:19Z</time>
      </trkpt>
      <trkpt lat="45.8306" lon="4.82679">
        <ele>354</ele>
        <time>2012-03-17T14:04:22Z</time>
      </trkpt>
      <trkpt lat="45.83074" lon="4.82663">
        <ele>358</ele>
        <time>2012-03-17T14:04:25Z</time>
      </trkpt>
      <trkpt lat="45.83078" lon="4.82658">
        <ele>357</ele>
        <time>2012-03-17T14:04:26Z</time>
      </trkpt>
      <trkpt lat="45.83096" lon="4.82637">
        <ele>344</ele>
        <time>2012-03-17T14:04:31Z</time>
      </trkpt>
      <trkpt lat="45.83103" lon="4.82627">
        <ele>344</ele>
        <time>2012-03-17T14:04:33Z</time>
      </trkpt>
      <trkpt lat="45.83116" lon="4.82605">
        <ele>344</ele>
        <time>2012-03-17T14:04:36Z</time>
      </trkpt>
      <trkpt lat="45.8312" lon="4.82596">
        <ele>344</ele>
        <time>2012-03-17T14:04:37Z</time>
      </trkpt>
      <trkpt lat="45.83124" lon="4.82577">
        <ele>351</ele>
        <time>2012-03-17T14:04:39Z</time>
      </trkpt>
      <trkpt lat="45.83128" lon="4.82567">
        <ele>351</ele>
        <time>2012-03-17T14:04:40Z</time>
      </trkpt>
      <trkpt lat="45.8313" lon="4.82559">
        <ele>350</ele>
        <time>2012-03-17T14:04:41Z</time>
      </trkpt>
      <trkpt lat="45.83138" lon="4.82538">
        <ele>350</ele>
        <time>2012-03-17T14:04:44Z</time>
      </trkpt>
      <trkpt lat="45.83141" lon="4.82533">
        <ele>350</ele>
        <time>2012-03-17T14:04:45Z</time>
      </trkpt>
      <trkpt lat="45.83142" lon="4.82527">
        <ele>350</ele>
        <time>2012-03-17T14:04:46Z</time>
      </trkpt>
      <trkpt lat="45.83143" lon="4.8252">
        <ele>349</ele>
        <time>2012-03-17T14:04:47Z</time>
      </trkpt>
      <trkpt lat="45.83144" lon="4.82508">
        <ele>348</ele>
        <time>2012-03-17T14:04:49Z</time>
      </trkpt>
      <trkpt lat="45.83145" lon="4.82481">
        <ele>354</ele>
        <time>2012-03-17T14:04:54Z</time>
      </trkpt>
      <trkpt lat="45.83146" lon="4.82472">
        <ele>355</ele>
        <time>2012-03-17T14:04:56Z</time>
      </trkpt>
      <trkpt lat="45.83146" lon="4.8246">
        <ele>356</ele>
        <time>2012-03-17T14:04:59Z</time>
      </trkpt>
      <trkpt lat="45.83148" lon="4.82454">
        <ele>356</ele>
        <time>2012-03-17T14:05:01Z</time>
      </trkpt>
      <trkpt lat="45.83149" lon="4.82449">
        <ele>356</ele>
        <time>2012-03-17T14:05:03Z</time>
      </trkpt>
      <trkpt lat="45.8315" lon="4.82445">
        <ele>355</ele>
        <time>2012-03-17T14:05:04Z</time>
      </trkpt>
      <trkpt lat="45.83148" lon="4.82422">
        <ele>354</ele>
        <time>2012-03-17T14:05:09Z</time>
      </trkpt>
      <trkpt lat="45.83144" lon="4.82398">
        <ele>358</ele>
        <time>2012-03-17T14:05:14Z</time>
      </trkpt>
      <trkpt lat="45.83146" lon="4.82369">
        <ele>359</ele>
        <time>2012-03-17T14:05:20Z</time>
      </trkpt>
      <trkpt lat="45.83147" lon="4.82347">
        <ele>357</ele>
        <time>2012-03-17T14:05:25Z</time>
      </trkpt>
      <trkpt lat="45.83147" lon="4.82328">
        <ele>355</ele>
        <time>2012-03-17T14:05:30Z</time>
      </trkpt>
      <trkpt lat="45.83145" lon="4.82314">
        <ele>357</ele>
        <time>2012-03-17T14:05:33Z</time>
      </trkpt>
      <trkpt lat="45.83143" lon="4.82305">
        <ele>359</ele>
        <time>2012-03-17T14:05:35Z</time>
      </trkpt>
      <trkpt lat="45.8314" lon="4.82281">
        <ele>359</ele>
        <time>2012-03-17T14:05:41Z</time>
      </trkpt>
      <trkpt lat="45.83138" lon="4.82263">
        <ele>358</ele>
        <time>2012-03-17T14:05:46Z</time>
      </trkpt>
      <trkpt lat="45.83134" lon="4.82245">
        <ele>355</ele>
        <time>2012-03-17T14:05:52Z</time>
      </trkpt>
      <trkpt lat="45.83133" lon="4.82228">
        <ele>356</ele>
        <time>2012-03-17T14:05:58Z</time>
      </trkpt>
      <trkpt lat="45.83128" lon="4.82213">
        <ele>357</ele>
        <time>2012-03-17T14:06:05Z</time>
      </trkpt>
      <trkpt lat="45.83128" lon="4.8221">
        <ele>357</ele>
        <time>2012-03-17T14:06:06Z</time>
      </trkpt>
      <trkpt lat="45.83128" lon="4.82206">
        <ele>356</ele>
        <time>2012-03-17T14:06:08Z</time>
      </trkpt>
      <trkpt lat="45.83123" lon="4.82197">
        <ele>357</ele>
        <time>2012-03-17T14:06:12Z</time>
      </trkpt>
      <trkpt lat="45.83117" lon="4.82182">
        <ele>359</ele>
        <time>2012-03-17T14:06:18Z</time>
      </trkpt>
      <trkpt lat="45.83115" lon="4.82177">
        <ele>359</ele>
        <time>2012-03-17T14:06:21Z</time>
      </trkpt>
      <trkpt lat="45.83112" lon="4.8217">
        <ele>361</ele>
        <time>2012-03-17T14:06:24Z</time>
      </trkpt>
      <trkpt lat="45.83111" lon="4.82167">
        <ele>361</ele>
        <time>2012-03-17T14:06:25Z</time>
      </trkpt>
      <trkpt lat="45.83105" lon="4.82152">
        <ele>354</ele>
        <time>2012-03-17T14:06:32Z</time>
      </trkpt>
      <trkpt lat="45.83096" lon="4.8214">
        <ele>353</ele>
        <time>2012-03-17T14:06:38Z</time>
      </trkpt>
      <trkpt lat="45.83086" lon="4.8213">
        <ele>352</ele>
        <time>2012-03-17T14:06:44Z</time>
      </trkpt>
      <trkpt lat="45.83084" lon="4.82128">
        <ele>352</ele>
        <time>2012-03-17T14:06:45Z</time>
      </trkpt>
      <trkpt lat="45.83076" lon="4.8212">
        <ele>375</ele>
        <time>2012-03-17T14:06:50Z</time>
      </trkpt>
      <trkpt lat="45.83068" lon="4.82109">
        <ele>374</ele>
        <time>2012-03-17T14:06:57Z</time>
      </trkpt>
      <trkpt lat="45.83059" lon="4.821">
        <ele>374</ele>
        <time>2012-03-17T14:07:03Z</time>
      </trkpt>
      <trkpt lat="45.83057" lon="4.82098">
        <ele>374</ele>
        <time>2012-03-17T14:07:04Z</time>
      </trkpt>
      <trkpt lat="45.8305" lon="4.82086">
        <ele>376</ele>
        <time>2012-03-17T14:07:10Z</time>
      </trkpt>
      <trkpt lat="45.83038" lon="4.82071">
        <ele>372</ele>
        <time>2012-03-17T14:07:16Z</time>
      </trkpt>
      <trkpt lat="45.83033" lon="4.8206">
        <ele>373</ele>
        <time>2012-03-17T14:07:20Z</time>
      </trkpt>
      <trkpt lat="45.83031" lon="4.82055">
        <ele>373</ele>
        <time>2012-03-17T14:07:22Z</time>
      </trkpt>
      <trkpt lat="45.83023" lon="4.82045">
        <ele>374</ele>
        <time>2012-03-17T14:07:27Z</time>
      </trkpt>
      <trkpt lat="45.83015" lon="4.82034">
        <ele>375</ele>
        <time>2012-03-17T14:07:32Z</time>
      </trkpt>
      <trkpt lat="45.83007" lon="4.82025">
        <ele>377</ele>
        <time>2012-03-17T14:07:35Z</time>
      </trkpt>
      <trkpt lat="45.83002" lon="4.82018">
        <ele>379</ele>
        <time>2012-03-17T14:07:37Z</time>
      </trkpt>
      <trkpt lat="45.82994" lon="4.82006">
        <ele>390</ele>
        <time>2012-03-17T14:07:44Z</time>
      </trkpt>
      <trkpt lat="45.82985" lon="4.81989">
        <ele>391</ele>
        <time>2012-03-17T14:07:49Z</time>
      </trkpt>
      <trkpt lat="45.82983" lon="4.81985">
        <ele>392</ele>
        <time>2012-03-17T14:07:50Z</time>
      </trkpt>
      <trkpt lat="45.82983" lon="4.8198">
        <ele>392</ele>
        <time>2012-03-17T14:07:52Z</time>
      </trkpt>
      <trkpt lat="45.82985" lon="4.81979">
        <ele>392</ele>
        <time>2012-03-17T14:07:53Z</time>
      </trkpt>
      <trkpt lat="45.82993" lon="4.81974">
        <ele>392</ele>
        <time>2012-03-17T14:07:57Z</time>
      </trkpt>
      <trkpt lat="45.82999" lon="4.81967">
        <ele>392</ele>
        <time>2012-03-17T14:08:00Z</time>
      </trkpt>
      <trkpt lat="45.83001" lon="4.81964">
        <ele>373</ele>
        <time>2012-03-17T14:08:01Z</time>
      </trkpt>
      <trkpt lat="45.83002" lon="4.8196">
        <ele>373</ele>
        <time>2012-03-17T14:08:02Z</time>
      </trkpt>
      <trkpt lat="45.83006" lon="4.8195">
        <ele>373</ele>
        <time>2012-03-17T14:08:05Z</time>
      </trkpt>
      <trkpt lat="45.83009" lon="4.81944">
        <ele>373</ele>
        <time>2012-03-17T14:08:07Z</time>
      </trkpt>
      <trkpt lat="45.83016" lon="4.81927">
        <ele>375</ele>
        <time>2012-03-17T14:08:14Z</time>
      </trkpt>
      <trkpt lat="45.83015" lon="4.81916">
        <ele>373</ele>
        <time>2012-03-17T14:08:18Z</time>
      </trkpt>
      <trkpt lat="45.83016" lon="4.81914">
        <ele>372</ele>
        <time>2012-03-17T14:08:19Z</time>
      </trkpt>
      <trkpt lat="45.83017" lon="4.81903">
        <ele>369</ele>
        <time>2012-03-17T14:08:22Z</time>
      </trkpt>
      <trkpt lat="45.83017" lon="4.81898">
        <ele>368</ele>
        <time>2012-03-17T14:08:23Z</time>
      </trkpt>
      <trkpt lat="45.83016" lon="4.81884">
        <ele>365</ele>
        <time>2012-03-17T14:08:27Z</time>
      </trkpt>
      <trkpt lat="45.83015" lon="4.8188">
        <ele>365</ele>
        <time>2012-03-17T14:08:29Z</time>
      </trkpt>
      <trkpt lat="45.83014" lon="4.81872">
        <ele>364</ele>
        <time>2012-03-17T14:08:32Z</time>
      </trkpt>
      <trkpt lat="45.8301" lon="4.81856">
        <ele>366</ele>
        <time>2012-03-17T14:08:38Z</time>
      </trkpt>
      <trkpt lat="45.83007" lon="4.8185">
        <ele>368</ele>
        <time>2012-03-17T14:08:40Z</time>
      </trkpt>
      <trkpt lat="45.83006" lon="4.81843">
        <ele>370</ele>
        <time>2012-03-17T14:08:42Z</time>
      </trkpt>
      <trkpt lat="45.83005" lon="4.8184">
        <ele>371</ele>
        <time>2012-03-17T14:08:43Z</time>
      </trkpt>
      <trkpt lat="45.82999" lon="4.81819">
        <ele>382</ele>
        <time>2012-03-17T14:08:49Z</time>
      </trkpt>
      <trkpt lat="45.82992" lon="4.81805">
        <ele>384</ele>
        <time>2012-03-17T14:08:55Z</time>
      </trkpt>
      <trkpt lat="45.82991" lon="4.81803">
        <ele>384</ele>
        <time>2012-03-17T14:08:56Z</time>
      </trkpt>
      <trkpt lat="45.82986" lon="4.81794">
        <ele>384</ele>
        <time>2012-03-17T14:09:00Z</time>
      </trkpt>
      <trkpt lat="45.82981" lon="4.81786">
        <ele>384</ele>
        <time>2012-03-17T14:09:04Z</time>
      </trkpt>
      <trkpt lat="45.82975" lon="4.81781">
        <ele>385</ele>
        <time>2012-03-17T14:09:07Z</time>
      </trkpt>
      <trkpt lat="45.82974" lon="4.8178">
        <ele>385</ele>
        <time>2012-03-17T14:09:08Z</time>
      </trkpt>
      <trkpt lat="45.82969" lon="4.81778">
        <ele>386</ele>
        <time>2012-03-17T14:09:12Z</time>
      </trkpt>
      <trkpt lat="45.82965" lon="4.81774">
        <ele>387</ele>
        <time>2012-03-17T14:09:18Z</time>
      </trkpt>
      <trkpt lat="45.82961" lon="4.81771">
        <ele>388</ele>
        <time>2012-03-17T14:09:22Z</time>
      </trkpt>
      <trkpt lat="45.82961" lon="4.81771">
        <ele>388</ele>
        <time>2012-03-17T14:09:23Z</time>
      </trkpt>
      <trkpt lat="45.8296" lon="4.81767">
        <ele>388</ele>
        <time>2012-03-17T14:09:35Z</time>
      </trkpt>
      <trkpt lat="45.82956" lon="4.81759">
        <ele>389</ele>
        <time>2012-03-17T14:09:41Z</time>
      </trkpt>
      <trkpt lat="45.82955" lon="4.81757">
        <ele>389</ele>
        <time>2012-03-17T14:09:42Z</time>
      </trkpt>
      <trkpt lat="45.82953" lon="4.81756">
        <ele>390</ele>
        <time>2012-03-17T14:09:44Z</time>
      </trkpt>
      <trkpt lat="45.82951" lon="4.81753">
        <ele>391</ele>
        <time>2012-03-17T14:09:47Z</time>
      </trkpt>
      <trkpt lat="45.82942" lon="4.81747">
        <ele>386</ele>
        <time>2012-03-17T14:09:54Z</time>
      </trkpt>
      <trkpt lat="45.82939" lon="4.81745">
        <ele>387</ele>
        <time>2012-03-17T14:09:56Z</time>
      </trkpt>
      <trkpt lat="45.82934" lon="4.81744">
        <ele>390</ele>
        <time>2012-03-17T14:09:59Z</time>
      </trkpt>
      <trkpt lat="45.82932" lon="4.81743">
        <ele>390</ele>
        <time>2012-03-17T14:10:00Z</time>
      </trkpt>
      <trkpt lat="45.82931" lon="4.81743">
        <ele>391</ele>
        <time>2012-03-17T14:10:01Z</time>
      </trkpt>
      <trkpt lat="45.8293" lon="4.81742">
        <ele>392</ele>
        <time>2012-03-17T14:10:05Z</time>
      </trkpt>
      <trkpt lat="45.82931" lon="4.81746">
        <ele>392</ele>
        <time>2012-03-17T14:10:23Z</time>
      </trkpt>
      <trkpt lat="45.82933" lon="4.8175">
        <ele>397</ele>
        <time>2012-03-17T14:10:35Z</time>
      </trkpt>
      <trkpt lat="45.82935" lon="4.81756">
        <ele>396</ele>
        <time>2012-03-17T14:10:40Z</time>
      </trkpt>
      <trkpt lat="45.82936" lon="4.81759">
        <ele>395</ele>
        <time>2012-03-17T14:10:42Z</time>
      </trkpt>
      <trkpt lat="45.82936" lon="4.81764">
        <ele>395</ele>
        <time>2012-03-17T14:10:49Z</time>
      </trkpt>
      <trkpt lat="45.82938" lon="4.81766">
        <ele>394</ele>
        <time>2012-03-17T14:11:08Z</time>
      </trkpt>
      <trkpt lat="45.8294" lon="4.8177">
        <ele>393</ele>
        <time>2012-03-17T14:11:11Z</time>
      </trkpt>
      <trkpt lat="45.82941" lon="4.81779">
        <ele>393</ele>
        <time>2012-03-17T14:11:17Z</time>
      </trkpt>
      <trkpt lat="45.82941" lon="4.81783">
        <ele>393</ele>
        <time>2012-03-17T14:11:24Z</time>
      </trkpt>
      <trkpt lat="45.82941" lon="4.81784">
        <ele>393</ele>
        <time>2012-03-17T14:11:25Z</time>
      </trkpt>
      <trkpt lat="45.82941" lon="4.81789">
        <ele>393</ele>
        <time>2012-03-17T14:11:29Z</time>
      </trkpt>
      <trkpt lat="45.82941" lon="4.81795">
        <ele>393</ele>
        <time>2012-03-17T14:11:32Z</time>
      </trkpt>
      <trkpt lat="45.82942" lon="4.81797">
        <ele>393</ele>
        <time>2012-03-17T14:11:34Z</time>
      </trkpt>
      <trkpt lat="45.82944" lon="4.8181">
        <ele>394</ele>
        <time>2012-03-17T14:11:43Z</time>
      </trkpt>
      <trkpt lat="45.82941" lon="4.8181">
        <ele>395</ele>
        <time>2012-03-17T14:11:48Z</time>
      </trkpt>
      <trkpt lat="45.82938" lon="4.81811">
        <ele>395</ele>
        <time>2012-03-17T14:11:53Z</time>
      </trkpt>
      <trkpt lat="45.82933" lon="4.81811">
        <ele>397</ele>
        <time>2012-03-17T14:11:59Z</time>
      </trkpt>
      <trkpt lat="45.82932" lon="4.81811">
        <ele>397</ele>
        <time>2012-03-17T14:12:00Z</time>
      </trkpt>
      <trkpt lat="45.82928" lon="4.81808">
        <ele>397</ele>
        <time>2012-03-17T14:12:04Z</time>
      </trkpt>
      <trkpt lat="45.82926" lon="4.81806">
        <ele>397</ele>
        <time>2012-03-17T14:12:06Z</time>
      </trkpt>
      <trkpt lat="45.82925" lon="4.81806">
        <ele>397</ele>
        <time>2012-03-17T14:12:07Z</time>
      </trkpt>
      <trkpt lat="45.82922" lon="4.81803">
        <ele>397</ele>
        <time>2012-03-17T14:12:13Z</time>
      </trkpt>
      <trkpt lat="45.82922" lon="4.81802">
        <ele>397</ele>
        <time>2012-03-17T14:12:33Z</time>
      </trkpt>
      <trkpt lat="45.82918" lon="4.81797">
        <ele>397</ele>
        <time>2012-03-17T14:12:37Z</time>
      </trkpt>
      <trkpt lat="45.82912" lon="4.81792">
        <ele>414</ele>
        <time>2012-03-17T14:12:43Z</time>
      </trkpt>
      <trkpt lat="45.82909" lon="4.81787">
        <ele>414</ele>
        <time>2012-03-17T14:12:47Z</time>
      </trkpt>
      <trkpt lat="45.82906" lon="4.81786">
        <ele>415</ele>
        <time>2012-03-17T14:12:49Z</time>
      </trkpt>
      <trkpt lat="45.82904" lon="4.81785">
        <ele>415</ele>
        <time>2012-03-17T14:12:51Z</time>
      </trkpt>
      <trkpt lat="45.829" lon="4.81781">
        <ele>415</ele>
        <time>2012-03-17T14:12:55Z</time>
      </trkpt>
      <trkpt lat="45.82899" lon="4.8178">
        <ele>415</ele>
        <time>2012-03-17T14:12:56Z</time>
      </trkpt>
      <trkpt lat="45.82893" lon="4.81778">
        <ele>416</ele>
        <time>2012-03-17T14:13:01Z</time>
      </trkpt>
      <trkpt lat="45.8289" lon="4.81777">
        <ele>416</ele>
        <time>2012-03-17T14:13:03Z</time>
      </trkpt>
      <trkpt lat="45.82889" lon="4.81776">
        <ele>416</ele>
        <time>2012-03-17T14:13:04Z</time>
      </trkpt>
      <trkpt lat="45.82887" lon="4.81771">
        <ele>416</ele>
        <time>2012-03-17T14:13:08Z</time>
      </trkpt>
      <trkpt lat="45.82886" lon="4.8177">
        <ele>416</ele>
        <time>2012-03-17T14:13:09Z</time>
      </trkpt>
      <trkpt lat="45.82885" lon="4.81767">
        <ele>416</ele>
        <time>2012-03-17T14:13:12Z</time>
      </trkpt>
      <trkpt lat="45.82884" lon="4.81766">
        <ele>416</ele>
        <time>2012-03-17T14:13:13Z</time>
      </trkpt>
      <trkpt lat="45.82877" lon="4.8176">
        <ele>418</ele>
        <time>2012-03-17T14:13:20Z</time>
      </trkpt>
      <trkpt lat="45.82871" lon="4.81753">
        <ele>419</ele>
        <time>2012-03-17T14:13:25Z</time>
      </trkpt>
      <trkpt lat="45.8287" lon="4.81752">
        <ele>419</ele>
        <time>2012-03-17T14:13:26Z</time>
      </trkpt>
      <trkpt lat="45.82866" lon="4.81746">
        <ele>415</ele>
        <time>2012-03-17T14:13:30Z</time>
      </trkpt>
      <trkpt lat="45.82864" lon="4.81743">
        <ele>416</ele>
        <time>2012-03-17T14:13:32Z</time>
      </trkpt>
      <trkpt lat="45.82855" lon="4.81735">
        <ele>418</ele>
        <time>2012-03-17T14:13:39Z</time>
      </trkpt>
      <trkpt lat="45.82848" lon="4.81729">
        <ele>418</ele>
        <time>2012-03-17T14:13:44Z</time>
      </trkpt>
      <trkpt lat="45.82841" lon="4.81724">
        <ele>418</ele>
        <time>2012-03-17T14:13:49Z</time>
      </trkpt>
      <trkpt lat="45.82839" lon="4.81723">
        <ele>418</ele>
        <time>2012-03-17T14:13:50Z</time>
      </trkpt>
      <trkpt lat="45.82833" lon="4.81718">
        <ele>430</ele>
        <time>2012-03-17T14:13:54Z</time>
      </trkpt>
      <trkpt lat="45.8283" lon="4.81716">
        <ele>430</ele>
        <time>2012-03-17T14:13:56Z</time>
      </trkpt>
      <trkpt lat="45.82817" lon="4.81706">
        <ele>430</ele>
        <time>2012-03-17T14:14:03Z</time>
      </trkpt>
      <trkpt lat="45.8281" lon="4.81699">
        <ele>430</ele>
        <time>2012-03-17T14:14:07Z</time>
      </trkpt>
      <trkpt lat="45.82797" lon="4.81686">
        <ele>430</ele>
        <time>2012-03-17T14:14:12Z</time>
      </trkpt>
      <trkpt lat="45.82787" lon="4.8167">
        <ele>431</ele>
        <time>2012-03-17T14:14:16Z</time>
      </trkpt>
      <trkpt lat="45.82784" lon="4.81662">
        <ele>427</ele>
        <time>2012-03-17T14:14:18Z</time>
      </trkpt>
      <trkpt lat="45.8278" lon="4.81651">
        <ele>428</ele>
        <time>2012-03-17T14:14:21Z</time>
      </trkpt>
      <trkpt lat="45.82775" lon="4.81636">
        <ele>427</ele>
        <time>2012-03-17T14:14:26Z</time>
      </trkpt>
      <trkpt lat="45.82771" lon="4.81617">
        <ele>427</ele>
        <time>2012-03-17T14:14:32Z</time>
      </trkpt>
      <trkpt lat="45.82771" lon="4.81613">
        <ele>427</ele>
        <time>2012-03-17T14:14:33Z</time>
      </trkpt>
      <trkpt lat="45.82767" lon="4.81599">
        <ele>429</ele>
        <time>2012-03-17T14:14:37Z</time>
      </trkpt>
      <trkpt lat="45.82759" lon="4.81577">
        <ele>429</ele>
        <time>2012-03-17T14:14:43Z</time>
      </trkpt>
      <trkpt lat="45.82757" lon="4.81565">
        <ele>427</ele>
        <time>2012-03-17T14:14:46Z</time>
      </trkpt>
      <trkpt lat="45.82757" lon="4.81556">
        <ele>425</ele>
        <time>2012-03-17T14:14:48Z</time>
      </trkpt>
      <trkpt lat="45.8276" lon="4.81529">
        <ele>423</ele>
        <time>2012-03-17T14:14:52Z</time>
      </trkpt>
      <trkpt lat="45.82759" lon="4.81512">
        <ele>425</ele>
        <time>2012-03-17T14:14:55Z</time>
      </trkpt>
      <trkpt lat="45.82758" lon="4.81499">
        <ele>426</ele>
        <time>2012-03-17T14:14:57Z</time>
      </trkpt>
      <trkpt lat="45.82755" lon="4.81473">
        <ele>421</ele>
        <time>2012-03-17T14:14:59Z</time>
      </trkpt>
      <trkpt lat="45.82755" lon="4.81461">
        <ele>419</ele>
        <time>2012-03-17T14:15:00Z</time>
      </trkpt>
      <trkpt lat="45.82761" lon="4.81433">
        <ele>419</ele>
        <time>2012-03-17T14:15:03Z</time>
      </trkpt>
      <trkpt lat="45.82762" lon="4.81425">
        <ele>420</ele>
        <time>2012-03-17T14:15:04Z</time>
      </trkpt>
      <trkpt lat="45.82765" lon="4.81407">
        <ele>419</ele>
        <time>2012-03-17T14:15:06Z</time>
      </trkpt>
      <trkpt lat="45.82771" lon="4.8138">
        <ele>416</ele>
        <time>2012-03-17T14:15:09Z</time>
      </trkpt>
      <trkpt lat="45.82778" lon="4.8135">
        <ele>415</ele>
        <time>2012-03-17T14:15:12Z</time>
      </trkpt>
      <trkpt lat="45.82783" lon="4.81328">
        <ele>414</ele>
        <time>2012-03-17T14:15:14Z</time>
      </trkpt>
      <trkpt lat="45.82787" lon="4.8129">
        <ele>413</ele>
        <time>2012-03-17T14:15:17Z</time>
      </trkpt>
      <trkpt lat="45.82788" lon="4.81277">
        <ele>413</ele>
        <time>2012-03-17T14:15:18Z</time>
      </trkpt>
      <trkpt lat="45.82794" lon="4.81236">
        <ele>411</ele>
        <time>2012-03-17T14:15:21Z</time>
      </trkpt>
      <trkpt lat="45.828" lon="4.81209">
        <ele>411</ele>
        <time>2012-03-17T14:15:23Z</time>
      </trkpt>
      <trkpt lat="45.82808" lon="4.81182">
        <ele>410</ele>
        <time>2012-03-17T14:15:25Z</time>
      </trkpt>
      <trkpt lat="45.82817" lon="4.81155">
        <ele>408</ele>
        <time>2012-03-17T14:15:27Z</time>
      </trkpt>
      <trkpt lat="45.82823" lon="4.81142">
        <ele>407</ele>
        <time>2012-03-17T14:15:28Z</time>
      </trkpt>
      <trkpt lat="45.82829" lon="4.81131">
        <ele>407</ele>
        <time>2012-03-17T14:15:29Z</time>
      </trkpt>
      <trkpt lat="45.82844" lon="4.81112">
        <ele>407</ele>
        <time>2012-03-17T14:15:31Z</time>
      </trkpt>
      <trkpt lat="45.82859" lon="4.81097">
        <ele>407</ele>
        <time>2012-03-17T14:15:33Z</time>
      </trkpt>
      <trkpt lat="45.82879" lon="4.81077">
        <ele>406</ele>
        <time>2012-03-17T14:15:36Z</time>
      </trkpt>
      <trkpt lat="45.8289" lon="4.81065">
        <ele>407</ele>
        <time>2012-03-17T14:15:38Z</time>
      </trkpt>
      <trkpt lat="45.82912" lon="4.81043">
        <ele>407</ele>
        <time>2012-03-17T14:15:42Z</time>
      </trkpt>
      <trkpt lat="45.82921" lon="4.81033">
        <ele>409</ele>
        <time>2012-03-17T14:15:44Z</time>
      </trkpt>
      <trkpt lat="45.82939" lon="4.81014">
        <ele>410</ele>
        <time>2012-03-17T14:15:48Z</time>
      </trkpt>
      <trkpt lat="45.82952" lon="4.81001">
        <ele>410</ele>
        <time>2012-03-17T14:15:51Z</time>
      </trkpt>
      <trkpt lat="45.82971" lon="4.80982">
        <ele>412</ele>
        <time>2012-03-17T14:15:56Z</time>
      </trkpt>
      <trkpt lat="45.82985" lon="4.80968">
        <ele>413</ele>
        <time>2012-03-17T14:16:00Z</time>
      </trkpt>
      <trkpt lat="45.82993" lon="4.80958">
        <ele>413</ele>
        <time>2012-03-17T14:16:03Z</time>
      </trkpt>
      <trkpt lat="45.83004" lon="4.80945">
        <ele>414</ele>
        <time>2012-03-17T14:16:08Z</time>
      </trkpt>
      <trkpt lat="45.83015" lon="4.80933">
        <ele>414</ele>
        <time>2012-03-17T14:16:13Z</time>
      </trkpt>
      <trkpt lat="45.83017" lon="4.8093">
        <ele>414</ele>
        <time>2012-03-17T14:16:14Z</time>
      </trkpt>
      <trkpt lat="45.83035" lon="4.80912">
        <ele>417</ele>
        <time>2012-03-17T14:16:22Z</time>
      </trkpt>
      <trkpt lat="45.83046" lon="4.80901">
        <ele>417</ele>
        <time>2012-03-17T14:16:27Z</time>
      </trkpt>
      <trkpt lat="45.83048" lon="4.80899">
        <ele>418</ele>
        <time>2012-03-17T14:16:28Z</time>
      </trkpt>
      <trkpt lat="45.83061" lon="4.80886">
        <ele>418</ele>
        <time>2012-03-17T14:16:34Z</time>
      </trkpt>
      <trkpt lat="45.83075" lon="4.8087">
        <ele>419</ele>
        <time>2012-03-17T14:16:40Z</time>
      </trkpt>
      <trkpt lat="45.8309" lon="4.80854">
        <ele>420</ele>
        <time>2012-03-17T14:16:46Z</time>
      </trkpt>
      <trkpt lat="45.83101" lon="4.80841">
        <ele>420</ele>
        <time>2012-03-17T14:16:51Z</time>
      </trkpt>
      <trkpt lat="45.83106" lon="4.80836">
        <ele>419</ele>
        <time>2012-03-17T14:16:53Z</time>
      </trkpt>
      <trkpt lat="45.83118" lon="4.80816">
        <ele>422</ele>
        <time>2012-03-17T14:16:59Z</time>
      </trkpt>
      <trkpt lat="45.83131" lon="4.80794">
        <ele>422</ele>
        <time>2012-03-17T14:17:05Z</time>
      </trkpt>
      <trkpt lat="45.83133" lon="4.8079">
        <ele>422</ele>
        <time>2012-03-17T14:17:06Z</time>
      </trkpt>
      <trkpt lat="45.83144" lon="4.80756">
        <ele>422</ele>
        <time>2012-03-17T14:17:14Z</time>
      </trkpt>
      <trkpt lat="45.83146" lon="4.80747">
        <ele>423</ele>
        <time>2012-03-17T14:17:16Z</time>
      </trkpt>
      <trkpt lat="45.83148" lon="4.80729">
        <ele>424</ele>
        <time>2012-03-17T14:17:20Z</time>
      </trkpt>
      <trkpt lat="45.83148" lon="4.80692">
        <ele>425</ele>
        <time>2012-03-17T14:17:28Z</time>
      </trkpt>
      <trkpt lat="45.83144" lon="4.8067">
        <ele>425</ele>
        <time>2012-03-17T14:17:33Z</time>
      </trkpt>
      <trkpt lat="45.83144" lon="4.80648">
        <ele>428</ele>
        <time>2012-03-17T14:17:38Z</time>
      </trkpt>
      <trkpt lat="45.83146" lon="4.80643">
        <ele>428</ele>
        <time>2012-03-17T14:17:39Z</time>
      </trkpt>
      <trkpt lat="45.83156" lon="4.80627">
        <ele>429</ele>
        <time>2012-03-17T14:17:43Z</time>
      </trkpt>
      <trkpt lat="45.83169" lon="4.80604">
        <ele>427</ele>
        <time>2012-03-17T14:17:48Z</time>
      </trkpt>
      <trkpt lat="45.83171" lon="4.80599">
        <ele>428</ele>
        <time>2012-03-17T14:17:49Z</time>
      </trkpt>
      <trkpt lat="45.8318" lon="4.80587">
        <ele>428</ele>
        <time>2012-03-17T14:17:52Z</time>
      </trkpt>
      <trkpt lat="45.83188" lon="4.8058">
        <ele>431</ele>
        <time>2012-03-17T14:17:54Z</time>
      </trkpt>
      <trkpt lat="45.83199" lon="4.80576">
        <ele>431</ele>
        <time>2012-03-17T14:17:56Z</time>
      </trkpt>
      <trkpt lat="45.83215" lon="4.80569">
        <ele>431</ele>
        <time>2012-03-17T14:17:59Z</time>
      </trkpt>
      <trkpt lat="45.83237" lon="4.80559">
        <ele>430</ele>
        <time>2012-03-17T14:18:03Z</time>
      </trkpt>
      <trkpt lat="45.83254" lon="4.80549">
        <ele>431</ele>
        <time>2012-03-17T14:18:06Z</time>
      </trkpt>
      <trkpt lat="45.83271" lon="4.8054">
        <ele>432</ele>
        <time>2012-03-17T14:18:09Z</time>
      </trkpt>
      <trkpt lat="45.83283" lon="4.8054">
        <ele>432</ele>
        <time>2012-03-17T14:18:11Z</time>
      </trkpt>
      <trkpt lat="45.83308" lon="4.80544">
        <ele>433</ele>
        <time>2012-03-17T14:18:16Z</time>
      </trkpt>
      <trkpt lat="45.83312" lon="4.80546">
        <ele>433</ele>
        <time>2012-03-17T14:18:17Z</time>
      </trkpt>
      <trkpt lat="45.83325" lon="4.80551">
        <ele>432</ele>
        <time>2012-03-17T14:18:21Z</time>
      </trkpt>
      <trkpt lat="45.83343" lon="4.80559">
        <ele>437</ele>
        <time>2012-03-17T14:18:28Z</time>
      </trkpt>
      <trkpt lat="45.83348" lon="4.80562">
        <ele>437</ele>
        <time>2012-03-17T14:18:32Z</time>
      </trkpt>
      <trkpt lat="45.83351" lon="4.80561">
        <ele>437</ele>
        <time>2012-03-17T14:18:34Z</time>
      </trkpt>
      <trkpt lat="45.83352" lon="4.80561">
        <ele>437</ele>
        <time>2012-03-17T14:18:35Z</time>
      </trkpt>
      <trkpt lat="45.83359" lon="4.80564">
        <ele>438</ele>
        <time>2012-03-17T14:18:40Z</time>
      </trkpt>
      <trkpt lat="45.83366" lon="4.80559">
        <ele>439</ele>
        <time>2012-03-17T14:18:43Z</time>
      </trkpt>
      <trkpt lat="45.83371" lon="4.80555">
        <ele>439</ele>
        <time>2012-03-17T14:18:46Z</time>
      </trkpt>
      <trkpt lat="45.8338" lon="4.80551">
        <ele>440</ele>
        <time>2012-03-17T14:18:52Z</time>
      </trkpt>
      <trkpt lat="45.83383" lon="4.8055">
        <ele>440</ele>
        <time>2012-03-17T14:18:54Z</time>
      </trkpt>
      <trkpt lat="45.83385" lon="4.80549">
        <ele>441</ele>
        <time>2012-03-17T14:18:55Z</time>
      </trkpt>
      <trkpt lat="45.8339" lon="4.80547">
        <ele>441</ele>
        <time>2012-03-17T14:18:59Z</time>
      </trkpt>
      <trkpt lat="45.83399" lon="4.80544">
        <ele>442</ele>
        <time>2012-03-17T14:19:04Z</time>
      </trkpt>
      <trkpt lat="45.834" lon="4.80544">
        <ele>442</ele>
        <time>2012-03-17T14:19:05Z</time>
      </trkpt>
      <trkpt lat="45.83406" lon="4.80542">
        <ele>442</ele>
        <time>2012-03-17T14:19:09Z</time>
      </trkpt>
      <trkpt lat="45.83407" lon="4.80542">
        <ele>442</ele>
        <time>2012-03-17T14:19:10Z</time>
      </trkpt>
      <trkpt lat="45.83412" lon="4.80542">
        <ele>442</ele>
        <time>2012-03-17T14:19:16Z</time>
      </trkpt>
      <trkpt lat="45.83416" lon="4.80541">
        <ele>442</ele>
        <time>2012-03-17T14:19:22Z</time>
      </trkpt>
      <trkpt lat="45.83417" lon="4.80538">
        <ele>450</ele>
        <time>2012-03-17T14:19:28Z</time>
      </trkpt>
      <trkpt lat="45.83418" lon="4.80537">
        <ele>450</ele>
        <time>2012-03-17T14:19:30Z</time>
      </trkpt>
      <trkpt lat="45.83424" lon="4.80532">
        <ele>450</ele>
        <time>2012-03-17T14:19:42Z</time>
      </trkpt>
      <trkpt lat="45.83431" lon="4.80523">
        <ele>451</ele>
        <time>2012-03-17T14:19:48Z</time>
      </trkpt>
      <trkpt lat="45.83439" lon="4.80516">
        <ele>451</ele>
        <time>2012-03-17T14:19:54Z</time>
      </trkpt>
      <trkpt lat="45.83443" lon="4.80516">
        <ele>451</ele>
        <time>2012-03-17T14:19:58Z</time>
      </trkpt>
      <trkpt lat="45.83445" lon="4.80516">
        <ele>452</ele>
        <time>2012-03-17T14:20:00Z</time>
      </trkpt>
      <trkpt lat="45.83449" lon="4.80516">
        <ele>452</ele>
        <time>2012-03-17T14:20:03Z</time>
      </trkpt>
      <trkpt lat="45.8345" lon="4.80516">
        <ele>452</ele>
        <time>2012-03-17T14:20:05Z</time>
      </trkpt>
      <trkpt lat="45.83458" lon="4.80513">
        <ele>453</ele>
        <time>2012-03-17T14:20:12Z</time>
      </trkpt>
      <trkpt lat="45.83465" lon="4.80513">
        <ele>453</ele>
        <time>2012-03-17T14:20:18Z</time>
      </trkpt>
      <trkpt lat="45.83472" lon="4.8051">
        <ele>454</ele>
        <time>2012-03-17T14:20:24Z</time>
      </trkpt>
      <trkpt lat="45.83479" lon="4.80507">
        <ele>455</ele>
        <time>2012-03-17T14:20:30Z</time>
      </trkpt>
      <trkpt lat="45.8348" lon="4.80507">
        <ele>455</ele>
        <time>2012-03-17T14:20:31Z</time>
      </trkpt>
      <trkpt lat="45.83484" lon="4.80505">
        <ele>456</ele>
        <time>2012-03-17T14:20:34Z</time>
      </trkpt>
      <trkpt lat="45.83488" lon="4.80503">
        <ele>457</ele>
        <time>2012-03-17T14:20:39Z</time>
      </trkpt>
      <trkpt lat="45.83494" lon="4.80496">
        <ele>460</ele>
        <time>2012-03-17T14:20:45Z</time>
      </trkpt>
      <trkpt lat="45.83501" lon="4.8049">
        <ele>462</ele>
        <time>2012-03-17T14:20:50Z</time>
      </trkpt>
      <trkpt lat="45.83511" lon="4.8048">
        <ele>463</ele>
        <time>2012-03-17T14:20:58Z</time>
      </trkpt>
      <trkpt lat="45.83515" lon="4.80477">
        <ele>464</ele>
        <time>2012-03-17T14:21:02Z</time>
      </trkpt>
      <trkpt lat="45.83519" lon="4.80474">
        <ele>464</ele>
        <time>2012-03-17T14:21:06Z</time>
      </trkpt>
      <trkpt lat="45.83525" lon="4.80469">
        <ele>465</ele>
        <time>2012-03-17T14:21:13Z</time>
      </trkpt>
      <trkpt lat="45.83531" lon="4.80467">
        <ele>465</ele>
        <time>2012-03-17T14:21:18Z</time>
      </trkpt>
      <trkpt lat="45.83539" lon="4.80464">
        <ele>465</ele>
        <time>2012-03-17T14:21:24Z</time>
      </trkpt>
      <trkpt lat="45.83549" lon="4.80456">
        <ele>466</ele>
        <time>2012-03-17T14:21:32Z</time>
      </trkpt>
      <trkpt lat="45.83558" lon="4.80452">
        <ele>466</ele>
        <time>2012-03-17T14:21:39Z</time>
      </trkpt>
      <trkpt lat="45.83559" lon="4.8045">
        <ele>466</ele>
        <time>2012-03-17T14:21:41Z</time>
      </trkpt>
      <trkpt lat="45.83562" lon="4.80448">
        <ele>466</ele>
        <time>2012-03-17T14:21:44Z</time>
      </trkpt>
      <trkpt lat="45.83573" lon="4.80441">
        <ele>467</ele>
        <time>2012-03-17T14:21:52Z</time>
      </trkpt>
      <trkpt lat="45.83582" lon="4.80437">
        <ele>468</ele>
        <time>2012-03-17T14:21:59Z</time>
      </trkpt>
      <trkpt lat="45.8359" lon="4.80434">
        <ele>468</ele>
        <time>2012-03-17T14:22:05Z</time>
      </trkpt>
      <trkpt lat="45.83597" lon="4.80431">
        <ele>468</ele>
        <time>2012-03-17T14:22:10Z</time>
      </trkpt>
      <trkpt lat="45.83602" lon="4.80427">
        <ele>467</ele>
        <time>2012-03-17T14:22:14Z</time>
      </trkpt>
      <trkpt lat="45.83604" lon="4.80422">
        <ele>467</ele>
        <time>2012-03-17T14:22:17Z</time>
      </trkpt>
      <trkpt lat="45.83604" lon="4.80413">
        <ele>470</ele>
        <time>2012-03-17T14:22:22Z</time>
      </trkpt>
      <trkpt lat="45.83604" lon="4.8041">
        <ele>470</ele>
        <time>2012-03-17T14:22:23Z</time>
      </trkpt>
      <trkpt lat="45.83602" lon="4.80405">
        <ele>470</ele>
        <time>2012-03-17T14:22:25Z</time>
      </trkpt>
      <trkpt lat="45.83602" lon="4.80398">
        <ele>470</ele>
        <time>2012-03-17T14:22:27Z</time>
      </trkpt>
      <trkpt lat="45.83599" lon="4.80385">
        <ele>471</ele>
        <time>2012-03-17T14:22:32Z</time>
      </trkpt>
      <trkpt lat="45.83597" lon="4.8038">
        <ele>471</ele>
        <time>2012-03-17T14:22:34Z</time>
      </trkpt>
      <trkpt lat="45.83594" lon="4.80376">
        <ele>471</ele>
        <time>2012-03-17T14:22:36Z</time>
      </trkpt>
      <trkpt lat="45.83592" lon="4.80376">
        <ele>471</ele>
        <time>2012-03-17T14:22:37Z</time>
      </trkpt>
      <trkpt lat="45.8358" lon="4.80373">
        <ele>471</ele>
        <time>2012-03-17T14:22:43Z</time>
      </trkpt>
      <trkpt lat="45.83572" lon="4.80368">
        <ele>472</ele>
        <time>2012-03-17T14:22:48Z</time>
      </trkpt>
      <trkpt lat="45.83566" lon="4.80362">
        <ele>472</ele>
        <time>2012-03-17T14:22:53Z</time>
      </trkpt>
      <trkpt lat="45.83558" lon="4.80355">
        <ele>472</ele>
        <time>2012-03-17T14:22:59Z</time>
      </trkpt>
      <trkpt lat="45.83554" lon="4.8035">
        <ele>472</ele>
        <time>2012-03-17T14:23:02Z</time>
      </trkpt>
      <trkpt lat="45.83551" lon="4.80346">
        <ele>472</ele>
        <time>2012-03-17T14:23:04Z</time>
      </trkpt>
      <trkpt lat="45.83549" lon="4.80344">
        <ele>472</ele>
        <time>2012-03-17T14:23:05Z</time>
      </trkpt>
      <trkpt lat="45.83543" lon="4.80335">
        <ele>472</ele>
        <time>2012-03-17T14:23:10Z</time>
      </trkpt>
      <trkpt lat="45.8354" lon="4.80329">
        <ele>475</ele>
        <time>2012-03-17T14:23:13Z</time>
      </trkpt>
      <trkpt lat="45.83538" lon="4.80324">
        <ele>475</ele>
        <time>2012-03-17T14:23:16Z</time>
      </trkpt>
      <trkpt lat="45.83538" lon="4.80321">
        <ele>475</ele>
        <time>2012-03-17T14:23:17Z</time>
      </trkpt>
      <trkpt lat="45.83531" lon="4.80305">
        <ele>475</ele>
        <time>2012-03-17T14:23:23Z</time>
      </trkpt>
      <trkpt lat="45.83529" lon="4.80302">
        <ele>475</ele>
        <time>2012-03-17T14:23:24Z</time>
      </trkpt>
      <trkpt lat="45.8352" lon="4.80284">
        <ele>476</ele>
        <time>2012-03-17T14:23:30Z</time>
      </trkpt>
      <trkpt lat="45.83509" lon="4.80267">
        <ele>477</ele>
        <time>2012-03-17T14:23:36Z</time>
      </trkpt>
      <trkpt lat="45.83506" lon="4.80261">
        <ele>477</ele>
        <time>2012-03-17T14:23:38Z</time>
      </trkpt>
      <trkpt lat="45.83504" lon="4.80252">
        <ele>478</ele>
        <time>2012-03-17T14:23:41Z</time>
      </trkpt>
      <trkpt lat="45.835" lon="4.80233">
        <ele>478</ele>
        <time>2012-03-17T14:23:48Z</time>
      </trkpt>
      <trkpt lat="45.83498" lon="4.80218">
        <ele>478</ele>
        <time>2012-03-17T14:23:53Z</time>
      </trkpt>
      <trkpt lat="45.83497" lon="4.80211">
        <ele>479</ele>
        <time>2012-03-17T14:23:57Z</time>
      </trkpt>
      <trkpt lat="45.83497" lon="4.80209">
        <ele>479</ele>
        <time>2012-03-17T14:23:58Z</time>
      </trkpt>
      <trkpt lat="45.83497" lon="4.80205">
        <ele>479</ele>
        <time>2012-03-17T14:24:00Z</time>
      </trkpt>
      <trkpt lat="45.83499" lon="4.80196">
        <ele>480</ele>
        <time>2012-03-17T14:24:04Z</time>
      </trkpt>
      <trkpt lat="45.83499" lon="4.80192">
        <ele>480</ele>
        <time>2012-03-17T14:24:06Z</time>
      </trkpt>
      <trkpt lat="45.83501" lon="4.80187">
        <ele>483</ele>
        <time>2012-03-17T14:24:09Z</time>
      </trkpt>
      <trkpt lat="45.83505" lon="4.80177">
        <ele>484</ele>
        <time>2012-03-17T14:24:15Z</time>
      </trkpt>
      <trkpt lat="45.83508" lon="4.80165">
        <ele>486</ele>
        <time>2012-03-17T14:24:22Z</time>
      </trkpt>
      <trkpt lat="45.83509" lon="4.80162">
        <ele>486</ele>
        <time>2012-03-17T14:24:24Z</time>
      </trkpt>
      <trkpt lat="45.83509" lon="4.80161">
        <ele>486</ele>
        <time>2012-03-17T14:24:25Z</time>
      </trkpt>
      <trkpt lat="45.83511" lon="4.80156">
        <ele>487</ele>
        <time>2012-03-17T14:24:28Z</time>
      </trkpt>
      <trkpt lat="45.83515" lon="4.80147">
        <ele>488</ele>
        <time>2012-03-17T14:24:34Z</time>
      </trkpt>
      <trkpt lat="45.83516" lon="4.80146">
        <ele>488</ele>
        <time>2012-03-17T14:24:35Z</time>
      </trkpt>
      <trkpt lat="45.83523" lon="4.8014">
        <ele>488</ele>
        <time>2012-03-17T14:24:40Z</time>
      </trkpt>
      <trkpt lat="45.83531" lon="4.8013">
        <ele>489</ele>
        <time>2012-03-17T14:24:47Z</time>
      </trkpt>
      <trkpt lat="45.83534" lon="4.80125">
        <ele>489</ele>
        <time>2012-03-17T14:24:50Z</time>
      </trkpt>
      <trkpt lat="45.83535" lon="4.80123">
        <ele>489</ele>
        <time>2012-03-17T14:24:52Z</time>
      </trkpt>
      <trkpt lat="45.8354" lon="4.80111">
        <ele>490</ele>
        <time>2012-03-17T14:24:59Z</time>
      </trkpt>
      <trkpt lat="45.83546" lon="4.801">
        <ele>491</ele>
        <time>2012-03-17T14:25:06Z</time>
      </trkpt>
      <trkpt lat="45.83551" lon="4.8009">
        <ele>491</ele>
        <time>2012-03-17T14:25:13Z</time>
      </trkpt>
      <trkpt lat="45.83556" lon="4.80083">
        <ele>498</ele>
        <time>2012-03-17T14:25:19Z</time>
      </trkpt>
      <trkpt lat="45.83557" lon="4.80081">
        <ele>498</ele>
        <time>2012-03-17T14:25:20Z</time>
      </trkpt>
      <trkpt lat="45.83566" lon="4.8007">
        <ele>499</ele>
        <time>2012-03-17T14:25:27Z</time>
      </trkpt>
      <trkpt lat="45.83573" lon="4.80061">
        <ele>499</ele>
        <time>2012-03-17T14:25:33Z</time>
      </trkpt>
      <trkpt lat="45.83573" lon="4.8006">
        <ele>500</ele>
        <time>2012-03-17T14:25:34Z</time>
      </trkpt>
      <trkpt lat="45.83581" lon="4.80049">
        <ele>501</ele>
        <time>2012-03-17T14:25:42Z</time>
      </trkpt>
      <trkpt lat="45.83583" lon="4.80048">
        <ele>501</ele>
        <time>2012-03-17T14:25:43Z</time>
      </trkpt>
      <trkpt lat="45.83589" lon="4.80044">
        <ele>503</ele>
        <time>2012-03-17T14:25:47Z</time>
      </trkpt>
      <trkpt lat="45.83592" lon="4.80037">
        <ele>504</ele>
        <time>2012-03-17T14:25:53Z</time>
      </trkpt>
      <trkpt lat="45.83596" lon="4.80027">
        <ele>505</ele>
        <time>2012-03-17T14:25:59Z</time>
      </trkpt>
      <trkpt lat="45.83597" lon="4.80025">
        <ele>506</ele>
        <time>2012-03-17T14:26:00Z</time>
      </trkpt>
      <trkpt lat="45.83602" lon="4.80021">
        <ele>506</ele>
        <time>2012-03-17T14:26:04Z</time>
      </trkpt>
      <trkpt lat="45.8361" lon="4.80014">
        <ele>506</ele>
        <time>2012-03-17T14:26:11Z</time>
      </trkpt>
      <trkpt lat="45.83613" lon="4.80011">
        <ele>506</ele>
        <time>2012-03-17T14:26:13Z</time>
      </trkpt>
      <trkpt lat="45.83621" lon="4.80004">
        <ele>506</ele>
        <time>2012-03-17T14:26:20Z</time>
      </trkpt>
      <trkpt lat="45.83624" lon="4.80004">
        <ele>506</ele>
        <time>2012-03-17T14:26:22Z</time>
      </trkpt>
      <trkpt lat="45.83627" lon="4.79999">
        <ele>512</ele>
        <time>2012-03-17T14:26:26Z</time>
      </trkpt>
      <trkpt lat="45.83637" lon="4.79992">
        <ele>512</ele>
        <time>2012-03-17T14:26:34Z</time>
      </trkpt>
      <trkpt lat="45.83642" lon="4.7999">
        <ele>512</ele>
        <time>2012-03-17T14:26:39Z</time>
      </trkpt>
      <trkpt lat="45.83644" lon="4.79989">
        <ele>512</ele>
        <time>2012-03-17T14:26:40Z</time>
      </trkpt>
      <trkpt lat="45.83649" lon="4.79985">
        <ele>512</ele>
        <time>2012-03-17T14:26:44Z</time>
      </trkpt>
      <trkpt lat="45.83651" lon="4.79982">
        <ele>512</ele>
        <time>2012-03-17T14:26:46Z</time>
      </trkpt>
      <trkpt lat="45.83659" lon="4.79978">
        <ele>512</ele>
        <time>2012-03-17T14:26:52Z</time>
      </trkpt>
      <trkpt lat="45.83662" lon="4.79977">
        <ele>512</ele>
        <time>2012-03-17T14:26:54Z</time>
      </trkpt>
      <trkpt lat="45.83668" lon="4.79973">
        <ele>514</ele>
        <time>2012-03-17T14:26:58Z</time>
      </trkpt>
      <trkpt lat="45.83676" lon="4.79968">
        <ele>514</ele>
        <time>2012-03-17T14:27:03Z</time>
      </trkpt>
      <trkpt lat="45.8368" lon="4.79963">
        <ele>514</ele>
        <time>2012-03-17T14:27:06Z</time>
      </trkpt>
      <trkpt lat="45.83688" lon="4.79959">
        <ele>515</ele>
        <time>2012-03-17T14:27:12Z</time>
      </trkpt>
      <trkpt lat="45.8369" lon="4.79956">
        <ele>515</ele>
        <time>2012-03-17T14:27:14Z</time>
      </trkpt>
      <trkpt lat="45.83695" lon="4.79954">
        <ele>515</ele>
        <time>2012-03-17T14:27:18Z</time>
      </trkpt>
      <trkpt lat="45.83699" lon="4.79952">
        <ele>516</ele>
        <time>2012-03-17T14:27:22Z</time>
      </trkpt>
      <trkpt lat="45.83702" lon="4.7995">
        <ele>516</ele>
        <time>2012-03-17T14:27:24Z</time>
      </trkpt>
      <trkpt lat="45.83706" lon="4.79947">
        <ele>516</ele>
        <time>2012-03-17T14:27:27Z</time>
      </trkpt>
      <trkpt lat="45.83708" lon="4.79947">
        <ele>516</ele>
        <time>2012-03-17T14:27:29Z</time>
      </trkpt>
      <trkpt lat="45.83711" lon="4.79946">
        <ele>516</ele>
        <time>2012-03-17T14:27:31Z</time>
      </trkpt>
      <trkpt lat="45.83718" lon="4.79942">
        <ele>517</ele>
        <time>2012-03-17T14:27:36Z</time>
      </trkpt>
      <trkpt lat="45.83726" lon="4.7994">
        <ele>517</ele>
        <time>2012-03-17T14:27:42Z</time>
      </trkpt>
      <trkpt lat="45.83728" lon="4.79939">
        <ele>517</ele>
        <time>2012-03-17T14:27:43Z</time>
      </trkpt>
      <trkpt lat="45.83735" lon="4.79935">
        <ele>518</ele>
        <time>2012-03-17T14:27:48Z</time>
      </trkpt>
      <trkpt lat="45.83743" lon="4.79931">
        <ele>519</ele>
        <time>2012-03-17T14:27:53Z</time>
      </trkpt>
      <trkpt lat="45.83746" lon="4.7993">
        <ele>520</ele>
        <time>2012-03-17T14:27:55Z</time>
      </trkpt>
      <trkpt lat="45.83747" lon="4.79929">
        <ele>520</ele>
        <time>2012-03-17T14:27:56Z</time>
      </trkpt>
      <trkpt lat="45.8375" lon="4.79919">
        <ele>522</ele>
        <time>2012-03-17T14:28:01Z</time>
      </trkpt>
      <trkpt lat="45.83751" lon="4.79917">
        <ele>523</ele>
        <time>2012-03-17T14:28:03Z</time>
      </trkpt>
      <trkpt lat="45.83756" lon="4.79917">
        <ele>523</ele>
        <time>2012-03-17T14:28:07Z</time>
      </trkpt>
      <trkpt lat="45.83764" lon="4.79917">
        <ele>523</ele>
        <time>2012-03-17T14:28:12Z</time>
      </trkpt>
      <trkpt lat="45.83768" lon="4.79916">
        <ele>524</ele>
        <time>2012-03-17T14:28:14Z</time>
      </trkpt>
      <trkpt lat="45.83774" lon="4.79914">
        <ele>524</ele>
        <time>2012-03-17T14:28:17Z</time>
      </trkpt>
      <trkpt lat="45.8378" lon="4.79911">
        <ele>525</ele>
        <time>2012-03-17T14:28:21Z</time>
      </trkpt>
      <trkpt lat="45.83796" lon="4.79904">
        <ele>526</ele>
        <time>2012-03-17T14:28:29Z</time>
      </trkpt>
      <trkpt lat="45.83807" lon="4.79899">
        <ele>526</ele>
        <time>2012-03-17T14:28:35Z</time>
      </trkpt>
      <trkpt lat="45.83808" lon="4.79899">
        <ele>526</ele>
        <time>2012-03-17T14:28:36Z</time>
      </trkpt>
      <trkpt lat="45.83819" lon="4.79895">
        <ele>527</ele>
        <time>2012-03-17T14:28:44Z</time>
      </trkpt>
      <trkpt lat="45.83829" lon="4.79891">
        <ele>527</ele>
        <time>2012-03-17T14:28:50Z</time>
      </trkpt>
      <trkpt lat="45.83838" lon="4.79891">
        <ele>535</ele>
        <time>2012-03-17T14:28:56Z</time>
      </trkpt>
      <trkpt lat="45.83845" lon="4.79891">
        <ele>536</ele>
        <time>2012-03-17T14:29:00Z</time>
      </trkpt>
      <trkpt lat="45.83851" lon="4.79891">
        <ele>536</ele>
        <time>2012-03-17T14:29:03Z</time>
      </trkpt>
      <trkpt lat="45.83866" lon="4.79891">
        <ele>538</ele>
        <time>2012-03-17T14:29:10Z</time>
      </trkpt>
      <trkpt lat="45.83881" lon="4.79895">
        <ele>540</ele>
        <time>2012-03-17T14:29:18Z</time>
      </trkpt>
      <trkpt lat="45.83891" lon="4.79897">
        <ele>541</ele>
        <time>2012-03-17T14:29:23Z</time>
      </trkpt>
      <trkpt lat="45.83902" lon="4.79903">
        <ele>542</ele>
        <time>2012-03-17T14:29:29Z</time>
      </trkpt>
      <trkpt lat="45.83914" lon="4.79909">
        <ele>543</ele>
        <time>2012-03-17T14:29:36Z</time>
      </trkpt>
      <trkpt lat="45.83916" lon="4.7991">
        <ele>543</ele>
        <time>2012-03-17T14:29:37Z</time>
      </trkpt>
      <trkpt lat="45.83918" lon="4.79911">
        <ele>547</ele>
        <time>2012-03-17T14:29:38Z</time>
      </trkpt>
      <trkpt lat="45.8392" lon="4.79918">
        <ele>545</ele>
        <time>2012-03-17T14:29:41Z</time>
      </trkpt>
      <trkpt lat="45.83928" lon="4.79926">
        <ele>547</ele>
        <time>2012-03-17T14:29:47Z</time>
      </trkpt>
      <trkpt lat="45.83937" lon="4.79938">
        <ele>548</ele>
        <time>2012-03-17T14:29:55Z</time>
      </trkpt>
      <trkpt lat="45.83943" lon="4.79946">
        <ele>549</ele>
        <time>2012-03-17T14:30:00Z</time>
      </trkpt>
      <trkpt lat="45.83945" lon="4.79947">
        <ele>549</ele>
        <time>2012-03-17T14:30:01Z</time>
      </trkpt>
      <trkpt lat="45.83952" lon="4.79966">
        <ele>549</ele>
        <time>2012-03-17T14:30:09Z</time>
      </trkpt>
      <trkpt lat="45.83959" lon="4.79981">
        <ele>549</ele>
        <time>2012-03-17T14:30:16Z</time>
      </trkpt>
      <trkpt lat="45.83963" lon="4.7999">
        <ele>550</ele>
        <time>2012-03-17T14:30:20Z</time>
      </trkpt>
      <trkpt lat="45.83965" lon="4.79999">
        <ele>550</ele>
        <time>2012-03-17T14:30:24Z</time>
      </trkpt>
      <trkpt lat="45.83967" lon="4.80017">
        <ele>548</ele>
        <time>2012-03-17T14:30:31Z</time>
      </trkpt>
      <trkpt lat="45.83968" lon="4.80019">
        <ele>548</ele>
        <time>2012-03-17T14:30:32Z</time>
      </trkpt>
      <trkpt lat="45.83969" lon="4.80028">
        <ele>548</ele>
        <time>2012-03-17T14:30:35Z</time>
      </trkpt>
      <trkpt lat="45.83972" lon="4.8004">
        <ele>548</ele>
        <time>2012-03-17T14:30:40Z</time>
      </trkpt>
      <trkpt lat="45.83978" lon="4.80055">
        <ele>548</ele>
        <time>2012-03-17T14:30:47Z</time>
      </trkpt>
      <trkpt lat="45.83985" lon="4.80066">
        <ele>549</ele>
        <time>2012-03-17T14:30:53Z</time>
      </trkpt>
      <trkpt lat="45.83998" lon="4.80076">
        <ele>551</ele>
        <time>2012-03-17T14:31:01Z</time>
      </trkpt>
      <trkpt lat="45.84011" lon="4.80081">
        <ele>555</ele>
        <time>2012-03-17T14:31:09Z</time>
      </trkpt>
      <trkpt lat="45.84025" lon="4.80082">
        <ele>557</ele>
        <time>2012-03-17T14:31:16Z</time>
      </trkpt>
      <trkpt lat="45.84035" lon="4.80081">
        <ele>557</ele>
        <time>2012-03-17T14:31:21Z</time>
      </trkpt>
      <trkpt lat="45.84039" lon="4.80082">
        <ele>558</ele>
        <time>2012-03-17T14:31:23Z</time>
      </trkpt>
      <trkpt lat="45.84052" lon="4.80076">
        <ele>558</ele>
        <time>2012-03-17T14:31:30Z</time>
      </trkpt>
      <trkpt lat="45.84062" lon="4.80074">
        <ele>559</ele>
        <time>2012-03-17T14:31:35Z</time>
      </trkpt>
      <trkpt lat="45.84071" lon="4.80069">
        <ele>559</ele>
        <time>2012-03-17T14:31:40Z</time>
      </trkpt>
      <trkpt lat="45.84074" lon="4.80068">
        <ele>559</ele>
        <time>2012-03-17T14:31:41Z</time>
      </trkpt>
      <trkpt lat="45.84089" lon="4.80058">
        <ele>562</ele>
        <time>2012-03-17T14:31:49Z</time>
      </trkpt>
      <trkpt lat="45.84104" lon="4.80049">
        <ele>563</ele>
        <time>2012-03-17T14:31:58Z</time>
      </trkpt>
      <trkpt lat="45.84107" lon="4.80047">
        <ele>564</ele>
        <time>2012-03-17T14:31:59Z</time>
      </trkpt>
      <trkpt lat="45.84117" lon="4.8004">
        <ele>564</ele>
        <time>2012-03-17T14:32:05Z</time>
      </trkpt>
      <trkpt lat="45.84131" lon="4.80031">
        <ele>565</ele>
        <time>2012-03-17T14:32:13Z</time>
      </trkpt>
      <trkpt lat="45.8414" lon="4.80024">
        <ele>565</ele>
        <time>2012-03-17T14:32:19Z</time>
      </trkpt>
      <trkpt lat="45.84142" lon="4.80023">
        <ele>565</ele>
        <time>2012-03-17T14:32:20Z</time>
      </trkpt>
      <trkpt lat="45.84157" lon="4.80013">
        <ele>567</ele>
        <time>2012-03-17T14:32:28Z</time>
      </trkpt>
      <trkpt lat="45.8417" lon="4.80006">
        <ele>568</ele>
        <time>2012-03-17T14:32:36Z</time>
      </trkpt>
      <trkpt lat="45.84173" lon="4.80004">
        <ele>568</ele>
        <time>2012-03-17T14:32:38Z</time>
      </trkpt>
      <trkpt lat="45.84183" lon="4.79997">
        <ele>571</ele>
        <time>2012-03-17T14:32:43Z</time>
      </trkpt>
      <trkpt lat="45.84196" lon="4.79991">
        <ele>572</ele>
        <time>2012-03-17T14:32:50Z</time>
      </trkpt>
      <trkpt lat="45.84208" lon="4.79987">
        <ele>573</ele>
        <time>2012-03-17T14:32:56Z</time>
      </trkpt>
      <trkpt lat="45.8421" lon="4.79986">
        <ele>573</ele>
        <time>2012-03-17T14:32:57Z</time>
      </trkpt>
      <trkpt lat="45.84224" lon="4.79979">
        <ele>573</ele>
        <time>2012-03-17T14:33:05Z</time>
      </trkpt>
      <trkpt lat="45.84231" lon="4.79965">
        <ele>574</ele>
        <time>2012-03-17T14:33:12Z</time>
      </trkpt>
      <trkpt lat="45.84231" lon="4.79956">
        <ele>574</ele>
        <time>2012-03-17T14:33:15Z</time>
      </trkpt>
      <trkpt lat="45.84228" lon="4.79947">
        <ele>575</ele>
        <time>2012-03-17T14:33:18Z</time>
      </trkpt>
      <trkpt lat="45.84217" lon="4.79933">
        <ele>576</ele>
        <time>2012-03-17T14:33:25Z</time>
      </trkpt>
      <trkpt lat="45.84204" lon="4.79921">
        <ele>576</ele>
        <time>2012-03-17T14:33:32Z</time>
      </trkpt>
      <trkpt lat="45.84202" lon="4.79919">
        <ele>576</ele>
        <time>2012-03-17T14:33:33Z</time>
      </trkpt>
      <trkpt lat="45.84188" lon="4.79905">
        <ele>583</ele>
        <time>2012-03-17T14:33:41Z</time>
      </trkpt>
      <trkpt lat="45.84176" lon="4.79886">
        <ele>584</ele>
        <time>2012-03-17T14:33:49Z</time>
      </trkpt>
      <trkpt lat="45.84172" lon="4.79874">
        <ele>586</ele>
        <time>2012-03-17T14:33:54Z</time>
      </trkpt>
      <trkpt lat="45.84169" lon="4.79857">
        <ele>588</ele>
        <time>2012-03-17T14:34:00Z</time>
      </trkpt>
      <trkpt lat="45.84167" lon="4.79836">
        <ele>591</ele>
        <time>2012-03-17T14:34:07Z</time>
      </trkpt>
      <trkpt lat="45.84166" lon="4.79833">
        <ele>592</ele>
        <time>2012-03-17T14:34:08Z</time>
      </trkpt>
      <trkpt lat="45.84165" lon="4.79816">
        <ele>593</ele>
        <time>2012-03-17T14:34:14Z</time>
      </trkpt>
      <trkpt lat="45.84155" lon="4.79794">
        <ele>594</ele>
        <time>2012-03-17T14:34:23Z</time>
      </trkpt>
      <trkpt lat="45.84154" lon="4.79789">
        <ele>594</ele>
        <time>2012-03-17T14:34:25Z</time>
      </trkpt>
      <trkpt lat="45.84155" lon="4.79781">
        <ele>594</ele>
        <time>2012-03-17T14:34:28Z</time>
      </trkpt>
      <trkpt lat="45.84156" lon="4.79778">
        <ele>595</ele>
        <time>2012-03-17T14:34:29Z</time>
      </trkpt>
      <trkpt lat="45.84166" lon="4.79761">
        <ele>596</ele>
        <time>2012-03-17T14:34:36Z</time>
      </trkpt>
      <trkpt lat="45.84175" lon="4.79747">
        <ele>595</ele>
        <time>2012-03-17T14:34:42Z</time>
      </trkpt>
      <trkpt lat="45.84185" lon="4.79735">
        <ele>592</ele>
        <time>2012-03-17T14:34:48Z</time>
      </trkpt>
      <trkpt lat="45.84199" lon="4.79732">
        <ele>591</ele>
        <time>2012-03-17T14:34:53Z</time>
      </trkpt>
      <trkpt lat="45.84204" lon="4.79736">
        <ele>590</ele>
        <time>2012-03-17T14:34:54Z</time>
      </trkpt>
      <trkpt lat="45.84212" lon="4.7975">
        <ele>590</ele>
        <time>2012-03-17T14:34:56Z</time>
      </trkpt>
      <trkpt lat="45.84221" lon="4.79778">
        <ele>591</ele>
        <time>2012-03-17T14:35:00Z</time>
      </trkpt>
      <trkpt lat="45.84221" lon="4.79784">
        <ele>591</ele>
        <time>2012-03-17T14:35:01Z</time>
      </trkpt>
      <trkpt lat="45.84219" lon="4.79792">
        <ele>591</ele>
        <time>2012-03-17T14:35:03Z</time>
      </trkpt>
      <trkpt lat="45.84216" lon="4.798">
        <ele>591</ele>
        <time>2012-03-17T14:35:07Z</time>
      </trkpt>
      <trkpt lat="45.84218" lon="4.79801">
        <ele>591</ele>
        <time>2012-03-17T14:35:20Z</time>
      </trkpt>
      <trkpt lat="45.84219" lon="4.79806">
        <ele>591</ele>
        <time>2012-03-17T14:35:25Z</time>
      </trkpt>
      <trkpt lat="45.84219" lon="4.79806">
        <ele>591</ele>
        <time>2012-03-17T14:35:38Z</time>
      </trkpt>
      <trkpt lat="45.84217" lon="4.79802">
        <ele>591</ele>
        <time>2012-03-17T14:35:48Z</time>
      </trkpt>
      <trkpt lat="45.84217" lon="4.79805">
        <ele>591</ele>
        <time>2012-03-17T14:36:26Z</time>
      </trkpt>
      <trkpt lat="45.84217" lon="4.79806">
        <ele>591</ele>
        <time>2012-03-17T14:37:07Z</time>
      </trkpt>
      <trkpt lat="45.84217" lon="4.79806">
        <ele>591</ele>
        <time>2012-03-17T14:37:12Z</time>
      </trkpt>
      <trkpt lat="45.84218" lon="4.79808">
        <ele>591</ele>
        <time>2012-03-17T14:37:23Z</time>
      </trkpt>
      <trkpt lat="45.84218" lon="4.79804">
        <ele>591</ele>
        <time>2012-03-17T14:38:21Z</time>
      </trkpt>
      <trkpt lat="45.84216" lon="4.79806">
        <ele>591</ele>
        <time>2012-03-17T14:38:47Z</time>
      </trkpt>
      <trkpt lat="45.84214" lon="4.79805">
        <ele>591</ele>
        <time>2012-03-17T14:39:15Z</time>
      </trkpt>
      <trkpt lat="45.84214" lon="4.79804">
        <ele>591</ele>
        <time>2012-03-17T14:39:17Z</time>
      </trkpt>
      <trkpt lat="45.84215" lon="4.79805">
        <ele>591</ele>
        <time>2012-03-17T14:39:24Z</time>
      </trkpt>
      <trkpt lat="45.84218" lon="4.79808">
        <ele>591</ele>
        <time>2012-03-17T14:39:59Z</time>
      </trkpt>
      <trkpt lat="45.84219" lon="4.79807">
        <ele>591</ele>
        <time>2012-03-17T14:40:06Z</time>
      </trkpt>
      <trkpt lat="45.84219" lon="4.79807">
        <ele>591</ele>
        <time>2012-03-17T14:40:13Z</time>
      </trkpt>
      <trkpt lat="45.8422" lon="4.79809">
        <ele>591</ele>
        <time>2012-03-17T14:40:18Z</time>
      </trkpt>
      <trkpt lat="45.84221" lon="4.7981">
        <ele>591</ele>
        <time>2012-03-17T14:40:19Z</time>
      </trkpt>
      <trkpt lat="45.84229" lon="4.79819">
        <ele>591</ele>
        <time>2012-03-17T14:40:24Z</time>
      </trkpt>
      <trkpt lat="45.84238" lon="4.79826">
        <ele>591</ele>
        <time>2012-03-17T14:40:27Z</time>
      </trkpt>
      <trkpt lat="45.84242" lon="4.7983">
        <ele>590</ele>
        <time>2012-03-17T14:40:28Z</time>
      </trkpt>
      <trkpt lat="45.84245" lon="4.79836">
        <ele>589</ele>
        <time>2012-03-17T14:40:29Z</time>
      </trkpt>
      <trkpt lat="45.84264" lon="4.79864">
        <ele>580</ele>
        <time>2012-03-17T14:40:33Z</time>
      </trkpt>
      <trkpt lat="45.84288" lon="4.79891">
        <ele>577</ele>
        <time>2012-03-17T14:40:37Z</time>
      </trkpt>
      <trkpt lat="45.84293" lon="4.79897">
        <ele>576</ele>
        <time>2012-03-17T14:40:38Z</time>
      </trkpt>
      <trkpt lat="45.84309" lon="4.79915">
        <ele>575</ele>
        <time>2012-03-17T14:40:41Z</time>
      </trkpt>
      <trkpt lat="45.84313" lon="4.79921">
        <ele>573</ele>
        <time>2012-03-17T14:40:42Z</time>
      </trkpt>
      <trkpt lat="45.84322" lon="4.79935">
        <ele>572</ele>
        <time>2012-03-17T14:40:45Z</time>
      </trkpt>
      <trkpt lat="45.84324" lon="4.79939">
        <ele>572</ele>
        <time>2012-03-17T14:40:46Z</time>
      </trkpt>
      <trkpt lat="45.84331" lon="4.79958">
        <ele>572</ele>
        <time>2012-03-17T14:40:50Z</time>
      </trkpt>
      <trkpt lat="45.84334" lon="4.79962">
        <ele>567</ele>
        <time>2012-03-17T14:40:51Z</time>
      </trkpt>
      <trkpt lat="45.84344" lon="4.79983">
        <ele>567</ele>
        <time>2012-03-17T14:40:54Z</time>
      </trkpt>
      <trkpt lat="45.84347" lon="4.79993">
        <ele>567</ele>
        <time>2012-03-17T14:40:55Z</time>
      </trkpt>
      <trkpt lat="45.84351" lon="4.80013">
        <ele>566</ele>
        <time>2012-03-17T14:40:57Z</time>
      </trkpt>
      <trkpt lat="45.84353" lon="4.80023">
        <ele>565</ele>
        <time>2012-03-17T14:40:58Z</time>
      </trkpt>
      <trkpt lat="45.84359" lon="4.80039">
        <ele>564</ele>
        <time>2012-03-17T14:41:00Z</time>
      </trkpt>
      <trkpt lat="45.8437" lon="4.80054">
        <ele>563</ele>
        <time>2012-03-17T14:41:02Z</time>
      </trkpt>
      <trkpt lat="45.84382" lon="4.80065">
        <ele>563</ele>
        <time>2012-03-17T14:41:04Z</time>
      </trkpt>
      <trkpt lat="45.84389" lon="4.80069">
        <ele>563</ele>
        <time>2012-03-17T14:41:05Z</time>
      </trkpt>
      <trkpt lat="45.84401" lon="4.80078">
        <ele>562</ele>
        <time>2012-03-17T14:41:07Z</time>
      </trkpt>
      <trkpt lat="45.84406" lon="4.80084">
        <ele>560</ele>
        <time>2012-03-17T14:41:08Z</time>
      </trkpt>
      <trkpt lat="45.84417" lon="4.801">
        <ele>558</ele>
        <time>2012-03-17T14:41:10Z</time>
      </trkpt>
      <trkpt lat="45.84427" lon="4.8012">
        <ele>556</ele>
        <time>2012-03-17T14:41:12Z</time>
      </trkpt>
      <trkpt lat="45.8444" lon="4.80139">
        <ele>555</ele>
        <time>2012-03-17T14:41:14Z</time>
      </trkpt>
      <trkpt lat="45.84453" lon="4.80156">
        <ele>554</ele>
        <time>2012-03-17T14:41:16Z</time>
      </trkpt>
      <trkpt lat="45.84469" lon="4.80186">
        <ele>551</ele>
        <time>2012-03-17T14:41:19Z</time>
      </trkpt>
      <trkpt lat="45.84474" lon="4.80195">
        <ele>550</ele>
        <time>2012-03-17T14:41:20Z</time>
      </trkpt>
      <trkpt lat="45.84487" lon="4.8022">
        <ele>549</ele>
        <time>2012-03-17T14:41:23Z</time>
      </trkpt>
      <trkpt lat="45.84492" lon="4.80227">
        <ele>549</ele>
        <time>2012-03-17T14:41:24Z</time>
      </trkpt>
      <trkpt lat="45.84498" lon="4.80233">
        <ele>548</ele>
        <time>2012-03-17T14:41:25Z</time>
      </trkpt>
      <trkpt lat="45.84525" lon="4.80256">
        <ele>542</ele>
        <time>2012-03-17T14:41:29Z</time>
      </trkpt>
      <trkpt lat="45.84532" lon="4.8026">
        <ele>542</ele>
        <time>2012-03-17T14:41:30Z</time>
      </trkpt>
      <trkpt lat="45.84538" lon="4.80263">
        <ele>541</ele>
        <time>2012-03-17T14:41:31Z</time>
      </trkpt>
      <trkpt lat="45.84551" lon="4.80264">
        <ele>541</ele>
        <time>2012-03-17T14:41:33Z</time>
      </trkpt>
      <trkpt lat="45.84561" lon="4.80258">
        <ele>541</ele>
        <time>2012-03-17T14:41:35Z</time>
      </trkpt>
      <trkpt lat="45.84565" lon="4.80256">
        <ele>542</ele>
        <time>2012-03-17T14:41:36Z</time>
      </trkpt>
      <trkpt lat="45.8457" lon="4.80255">
        <ele>542</ele>
        <time>2012-03-17T14:41:37Z</time>
      </trkpt>
      <trkpt lat="45.8458" lon="4.80262">
        <ele>542</ele>
        <time>2012-03-17T14:41:39Z</time>
      </trkpt>
      <trkpt lat="45.84598" lon="4.80272">
        <ele>537</ele>
        <time>2012-03-17T14:41:42Z</time>
      </trkpt>
      <trkpt lat="45.84606" lon="4.80274">
        <ele>536</ele>
        <time>2012-03-17T14:41:43Z</time>
      </trkpt>
      <trkpt lat="45.84646" lon="4.80292">
        <ele>534</ele>
        <time>2012-03-17T14:41:48Z</time>
      </trkpt>
      <trkpt lat="45.84667" lon="4.8032">
        <ele>527</ele>
        <time>2012-03-17T14:41:52Z</time>
      </trkpt>
      <trkpt lat="45.84672" lon="4.80326">
        <ele>528</ele>
        <time>2012-03-17T14:41:53Z</time>
      </trkpt>
      <trkpt lat="45.84677" lon="4.80333">
        <ele>530</ele>
        <time>2012-03-17T14:41:54Z</time>
      </trkpt>
      <trkpt lat="45.84691" lon="4.80351">
        <ele>526</ele>
        <time>2012-03-17T14:41:57Z</time>
      </trkpt>
      <trkpt lat="45.84704" lon="4.80369">
        <ele>524</ele>
        <time>2012-03-17T14:42:00Z</time>
      </trkpt>
      <trkpt lat="45.84709" lon="4.80375">
        <ele>524</ele>
        <time>2012-03-17T14:42:01Z</time>
      </trkpt>
      <trkpt lat="45.84718" lon="4.80385">
        <ele>524</ele>
        <time>2012-03-17T14:42:03Z</time>
      </trkpt>
      <trkpt lat="45.84726" lon="4.80395">
        <ele>524</ele>
        <time>2012-03-17T14:42:05Z</time>
      </trkpt>
      <trkpt lat="45.84733" lon="4.80408">
        <ele>524</ele>
        <time>2012-03-17T14:42:07Z</time>
      </trkpt>
      <trkpt lat="45.84743" lon="4.80418">
        <ele>523</ele>
        <time>2012-03-17T14:42:09Z</time>
      </trkpt>
      <trkpt lat="45.84756" lon="4.80437">
        <ele>517</ele>
        <time>2012-03-17T14:42:12Z</time>
      </trkpt>
      <trkpt lat="45.8476" lon="4.80443">
        <ele>516</ele>
        <time>2012-03-17T14:42:13Z</time>
      </trkpt>
      <trkpt lat="45.84763" lon="4.80448">
        <ele>515</ele>
        <time>2012-03-17T14:42:14Z</time>
      </trkpt>
      <trkpt lat="45.84771" lon="4.80457">
        <ele>514</ele>
        <time>2012-03-17T14:42:16Z</time>
      </trkpt>
      <trkpt lat="45.84795" lon="4.80481">
        <ele>511</ele>
        <time>2012-03-17T14:42:21Z</time>
      </trkpt>
      <trkpt lat="45.84801" lon="4.80487">
        <ele>511</ele>
        <time>2012-03-17T14:42:22Z</time>
      </trkpt>
      <trkpt lat="45.84826" lon="4.80507">
        <ele>508</ele>
        <time>2012-03-17T14:42:26Z</time>
      </trkpt>
      <trkpt lat="45.84831" lon="4.80512">
        <ele>508</ele>
        <time>2012-03-17T14:42:27Z</time>
      </trkpt>
      <trkpt lat="45.84859" lon="4.8054">
        <ele>500</ele>
        <time>2012-03-17T14:42:32Z</time>
      </trkpt>
      <trkpt lat="45.84876" lon="4.80571">
        <ele>499</ele>
        <time>2012-03-17T14:42:36Z</time>
      </trkpt>
      <trkpt lat="45.84885" lon="4.80582">
        <ele>498</ele>
        <time>2012-03-17T14:42:38Z</time>
      </trkpt>
      <trkpt lat="45.84895" lon="4.80594">
        <ele>497</ele>
        <time>2012-03-17T14:42:40Z</time>
      </trkpt>
      <trkpt lat="45.84916" lon="4.80623">
        <ele>497</ele>
        <time>2012-03-17T14:42:44Z</time>
      </trkpt>
      <trkpt lat="45.84943" lon="4.80662">
        <ele>487</ele>
        <time>2012-03-17T14:42:49Z</time>
      </trkpt>
      <trkpt lat="45.84967" lon="4.80707">
        <ele>487</ele>
        <time>2012-03-17T14:42:53Z</time>
      </trkpt>
      <trkpt lat="45.84971" lon="4.80718">
        <ele>488</ele>
        <time>2012-03-17T14:42:54Z</time>
      </trkpt>
      <trkpt lat="45.84988" lon="4.80759">
        <ele>490</ele>
        <time>2012-03-17T14:42:58Z</time>
      </trkpt>
      <trkpt lat="45.84993" lon="4.80768">
        <ele>491</ele>
        <time>2012-03-17T14:42:59Z</time>
      </trkpt>
      <trkpt lat="45.84995" lon="4.80777">
        <ele>491</ele>
        <time>2012-03-17T14:43:00Z</time>
      </trkpt>
      <trkpt lat="45.85002" lon="4.80792">
        <ele>484</ele>
        <time>2012-03-17T14:43:02Z</time>
      </trkpt>
      <trkpt lat="45.85012" lon="4.8081">
        <ele>485</ele>
        <time>2012-03-17T14:43:04Z</time>
      </trkpt>
      <trkpt lat="45.85017" lon="4.80818">
        <ele>485</ele>
        <time>2012-03-17T14:43:05Z</time>
      </trkpt>
      <trkpt lat="45.85022" lon="4.80828">
        <ele>485</ele>
        <time>2012-03-17T14:43:06Z</time>
      </trkpt>
      <trkpt lat="45.85038" lon="4.80853">
        <ele>487</ele>
        <time>2012-03-17T14:43:09Z</time>
      </trkpt>
      <trkpt lat="45.85048" lon="4.80869">
        <ele>486</ele>
        <time>2012-03-17T14:43:11Z</time>
      </trkpt>
      <trkpt lat="45.85064" lon="4.80891">
        <ele>486</ele>
        <time>2012-03-17T14:43:14Z</time>
      </trkpt>
      <trkpt lat="45.85074" lon="4.80905">
        <ele>487</ele>
        <time>2012-03-17T14:43:16Z</time>
      </trkpt>
      <trkpt lat="45.85095" lon="4.80932">
        <ele>482</ele>
        <time>2012-03-17T14:43:20Z</time>
      </trkpt>
      <trkpt lat="45.851" lon="4.80939">
        <ele>481</ele>
        <time>2012-03-17T14:43:21Z</time>
      </trkpt>
      <trkpt lat="45.85115" lon="4.80957">
        <ele>479</ele>
        <time>2012-03-17T14:43:24Z</time>
      </trkpt>
      <trkpt lat="45.85125" lon="4.80969">
        <ele>478</ele>
        <time>2012-03-17T14:43:26Z</time>
      </trkpt>
      <trkpt lat="45.85147" lon="4.80987">
        <ele>478</ele>
        <time>2012-03-17T14:43:30Z</time>
      </trkpt>
      <trkpt lat="45.85157" lon="4.80997">
        <ele>478</ele>
        <time>2012-03-17T14:43:32Z</time>
      </trkpt>
      <trkpt lat="45.85167" lon="4.81012">
        <ele>474</ele>
        <time>2012-03-17T14:43:34Z</time>
      </trkpt>
      <trkpt lat="45.8518" lon="4.81036">
        <ele>471</ele>
        <time>2012-03-17T14:43:37Z</time>
      </trkpt>
      <trkpt lat="45.85183" lon="4.81043">
        <ele>471</ele>
        <time>2012-03-17T14:43:38Z</time>
      </trkpt>
      <trkpt lat="45.85186" lon="4.81049">
        <ele>471</ele>
        <time>2012-03-17T14:43:39Z</time>
      </trkpt>
      <trkpt lat="45.852" lon="4.81067">
        <ele>471</ele>
        <time>2012-03-17T14:43:42Z</time>
      </trkpt>
      <trkpt lat="45.85212" lon="4.81079">
        <ele>470</ele>
        <time>2012-03-17T14:43:44Z</time>
      </trkpt>
      <trkpt lat="45.85224" lon="4.81093">
        <ele>472</ele>
        <time>2012-03-17T14:43:46Z</time>
      </trkpt>
      <trkpt lat="45.85242" lon="4.8111">
        <ele>471</ele>
        <time>2012-03-17T14:43:49Z</time>
      </trkpt>
      <trkpt lat="45.85254" lon="4.81122">
        <ele>462</ele>
        <time>2012-03-17T14:43:51Z</time>
      </trkpt>
      <trkpt lat="45.85271" lon="4.81141">
        <ele>461</ele>
        <time>2012-03-17T14:43:54Z</time>
      </trkpt>
      <trkpt lat="45.85276" lon="4.81147">
        <ele>461</ele>
        <time>2012-03-17T14:43:55Z</time>
      </trkpt>
      <trkpt lat="45.85281" lon="4.81153">
        <ele>461</ele>
        <time>2012-03-17T14:43:56Z</time>
      </trkpt>
      <trkpt lat="45.85302" lon="4.81174">
        <ele>464</ele>
        <time>2012-03-17T14:44:00Z</time>
      </trkpt>
      <trkpt lat="45.85308" lon="4.81178">
        <ele>463</ele>
        <time>2012-03-17T14:44:01Z</time>
      </trkpt>
      <trkpt lat="45.8532" lon="4.81186">
        <ele>462</ele>
        <time>2012-03-17T14:44:04Z</time>
      </trkpt>
      <trkpt lat="45.85321" lon="4.81193">
        <ele>463</ele>
        <time>2012-03-17T14:44:07Z</time>
      </trkpt>
      <trkpt lat="45.8532" lon="4.81194">
        <ele>463</ele>
        <time>2012-03-17T14:44:13Z</time>
      </trkpt>
      <trkpt lat="45.85324" lon="4.81198">
        <ele>464</ele>
        <time>2012-03-17T14:44:18Z</time>
      </trkpt>
      <trkpt lat="45.85336" lon="4.81209">
        <ele>456</ele>
        <time>2012-03-17T14:44:22Z</time>
      </trkpt>
      <trkpt lat="45.8534" lon="4.81215">
        <ele>456</ele>
        <time>2012-03-17T14:44:23Z</time>
      </trkpt>
      <trkpt lat="45.85359" lon="4.81231">
        <ele>456</ele>
        <time>2012-03-17T14:44:27Z</time>
      </trkpt>
      <trkpt lat="45.85362" lon="4.81236">
        <ele>456</ele>
        <time>2012-03-17T14:44:28Z</time>
      </trkpt>
      <trkpt lat="45.85368" lon="4.81242">
        <ele>456</ele>
        <time>2012-03-17T14:44:30Z</time>
      </trkpt>
      <trkpt lat="45.85373" lon="4.81245">
        <ele>455</ele>
        <time>2012-03-17T14:44:32Z</time>
      </trkpt>
      <trkpt lat="45.85381" lon="4.81253">
        <ele>459</ele>
        <time>2012-03-17T14:44:35Z</time>
      </trkpt>
      <trkpt lat="45.85391" lon="4.81262">
        <ele>458</ele>
        <time>2012-03-17T14:44:39Z</time>
      </trkpt>
      <trkpt lat="45.85406" lon="4.81268">
        <ele>456</ele>
        <time>2012-03-17T14:44:43Z</time>
      </trkpt>
      <trkpt lat="45.8541" lon="4.81269">
        <ele>456</ele>
        <time>2012-03-17T14:44:44Z</time>
      </trkpt>
      <trkpt lat="45.85435" lon="4.81273">
        <ele>447</ele>
        <time>2012-03-17T14:44:49Z</time>
      </trkpt>
      <trkpt lat="45.85444" lon="4.81274">
        <ele>445</ele>
        <time>2012-03-17T14:44:51Z</time>
      </trkpt>
      <trkpt lat="45.8545" lon="4.81274">
        <ele>445</ele>
        <time>2012-03-17T14:44:52Z</time>
      </trkpt>
      <trkpt lat="45.85459" lon="4.81274">
        <ele>444</ele>
        <time>2012-03-17T14:44:54Z</time>
      </trkpt>
      <trkpt lat="45.8547" lon="4.81274">
        <ele>442</ele>
        <time>2012-03-17T14:44:58Z</time>
      </trkpt>
      <trkpt lat="45.85476" lon="4.81277">
        <ele>441</ele>
        <time>2012-03-17T14:45:03Z</time>
      </trkpt>
      <trkpt lat="45.8548" lon="4.81285">
        <ele>441</ele>
        <time>2012-03-17T14:45:20Z</time>
      </trkpt>
      <trkpt lat="45.85482" lon="4.81285">
        <ele>441</ele>
        <time>2012-03-17T14:45:22Z</time>
      </trkpt>
      <trkpt lat="45.85486" lon="4.81283">
        <ele>441</ele>
        <time>2012-03-17T14:45:25Z</time>
      </trkpt>
      <trkpt lat="45.85487" lon="4.81283">
        <ele>441</ele>
        <time>2012-03-17T14:45:26Z</time>
      </trkpt>
      <trkpt lat="45.85488" lon="4.81283">
        <ele>441</ele>
        <time>2012-03-17T14:45:30Z</time>
      </trkpt>
      <trkpt lat="45.85492" lon="4.81279">
        <ele>440</ele>
        <time>2012-03-17T14:45:36Z</time>
      </trkpt>
      <trkpt lat="45.855" lon="4.81279">
        <ele>430</ele>
        <time>2012-03-17T14:45:42Z</time>
      </trkpt>
      <trkpt lat="45.85502" lon="4.81279">
        <ele>430</ele>
        <time>2012-03-17T14:45:43Z</time>
      </trkpt>
      <trkpt lat="45.85503" lon="4.8128">
        <ele>430</ele>
        <time>2012-03-17T14:45:46Z</time>
      </trkpt>
      <trkpt lat="45.85506" lon="4.81282">
        <ele>430</ele>
        <time>2012-03-17T14:47:01Z</time>
      </trkpt>
      <trkpt lat="45.85505" lon="4.81283">
        <ele>430</ele>
        <time>2012-03-17T14:47:03Z</time>
      </trkpt>
      <trkpt lat="45.85506" lon="4.81281">
        <ele>430</ele>
        <time>2012-03-17T14:47:18Z</time>
      </trkpt>
      <trkpt lat="45.85506" lon="4.8128">
        <ele>430</ele>
        <time>2012-03-17T14:47:30Z</time>
      </trkpt>
      <trkpt lat="45.85511" lon="4.81283">
        <ele>429</ele>
        <time>2012-03-17T14:47:33Z</time>
      </trkpt>
      <trkpt lat="45.85526" lon="4.81295">
        <ele>429</ele>
        <time>2012-03-17T14:47:38Z</time>
      </trkpt>
      <trkpt lat="45.85531" lon="4.81298">
        <ele>428</ele>
        <time>2012-03-17T14:47:39Z</time>
      </trkpt>
      <trkpt lat="45.85542" lon="4.81306">
        <ele>428</ele>
        <time>2012-03-17T14:47:41Z</time>
      </trkpt>
      <trkpt lat="45.85549" lon="4.81311">
        <ele>428</ele>
        <time>2012-03-17T14:47:42Z</time>
      </trkpt>
      <trkpt lat="45.85556" lon="4.81314">
        <ele>427</ele>
        <time>2012-03-17T14:47:43Z</time>
      </trkpt>
      <trkpt lat="45.85569" lon="4.81318">
        <ele>427</ele>
        <time>2012-03-17T14:47:45Z</time>
      </trkpt>
      <trkpt lat="45.85582" lon="4.81322">
        <ele>427</ele>
        <time>2012-03-17T14:47:47Z</time>
      </trkpt>
      <trkpt lat="45.85611" lon="4.81334">
        <ele>421</ele>
        <time>2012-03-17T14:47:52Z</time>
      </trkpt>
      <trkpt lat="45.8562" lon="4.81341">
        <ele>420</ele>
        <time>2012-03-17T14:47:54Z</time>
      </trkpt>
      <trkpt lat="45.85627" lon="4.81346">
        <ele>419</ele>
        <time>2012-03-17T14:47:56Z</time>
      </trkpt>
      <trkpt lat="45.8563" lon="4.81346">
        <ele>418</ele>
        <time>2012-03-17T14:47:57Z</time>
      </trkpt>
      <trkpt lat="45.85637" lon="4.81347">
        <ele>418</ele>
        <time>2012-03-17T14:48:00Z</time>
      </trkpt>
      <trkpt lat="45.8564" lon="4.81351">
        <ele>418</ele>
        <time>2012-03-17T14:48:01Z</time>
      </trkpt>
      <trkpt lat="45.85647" lon="4.81357">
        <ele>417</ele>
        <time>2012-03-17T14:48:03Z</time>
      </trkpt>
      <trkpt lat="45.85652" lon="4.8136">
        <ele>417</ele>
        <time>2012-03-17T14:48:04Z</time>
      </trkpt>
      <trkpt lat="45.85677" lon="4.8138">
        <ele>411</ele>
        <time>2012-03-17T14:48:11Z</time>
      </trkpt>
      <trkpt lat="45.85686" lon="4.81386">
        <ele>411</ele>
        <time>2012-03-17T14:48:14Z</time>
      </trkpt>
      <trkpt lat="45.85695" lon="4.8139">
        <ele>410</ele>
        <time>2012-03-17T14:48:17Z</time>
      </trkpt>
      <trkpt lat="45.85709" lon="4.81397">
        <ele>410</ele>
        <time>2012-03-17T14:48:20Z</time>
      </trkpt>
      <trkpt lat="45.85714" lon="4.81398">
        <ele>410</ele>
        <time>2012-03-17T14:48:21Z</time>
      </trkpt>
      <trkpt lat="45.85722" lon="4.81403">
        <ele>410</ele>
        <time>2012-03-17T14:48:23Z</time>
      </trkpt>
      <trkpt lat="45.8573" lon="4.81408">
        <ele>410</ele>
        <time>2012-03-17T14:48:25Z</time>
      </trkpt>
      <trkpt lat="45.85742" lon="4.81415">
        <ele>410</ele>
        <time>2012-03-17T14:48:29Z</time>
      </trkpt>
      <trkpt lat="45.85756" lon="4.81423">
        <ele>405</ele>
        <time>2012-03-17T14:48:33Z</time>
      </trkpt>
      <trkpt lat="45.8576" lon="4.81423">
        <ele>404</ele>
        <time>2012-03-17T14:48:34Z</time>
      </trkpt>
      <trkpt lat="45.85776" lon="4.81427">
        <ele>400</ele>
        <time>2012-03-17T14:48:38Z</time>
      </trkpt>
      <trkpt lat="45.85792" lon="4.81429">
        <ele>396</ele>
        <time>2012-03-17T14:48:43Z</time>
      </trkpt>
      <trkpt lat="45.85796" lon="4.81428">
        <ele>396</ele>
        <time>2012-03-17T14:48:44Z</time>
      </trkpt>
      <trkpt lat="45.85811" lon="4.81425">
        <ele>394</ele>
        <time>2012-03-17T14:48:48Z</time>
      </trkpt>
      <trkpt lat="45.85821" lon="4.81421">
        <ele>393</ele>
        <time>2012-03-17T14:48:51Z</time>
      </trkpt>
      <trkpt lat="45.85824" lon="4.81418">
        <ele>392</ele>
        <time>2012-03-17T14:48:52Z</time>
      </trkpt>
      <trkpt lat="45.8583" lon="4.81412">
        <ele>392</ele>
        <time>2012-03-17T14:48:54Z</time>
      </trkpt>
      <trkpt lat="45.85834" lon="4.81409">
        <ele>387</ele>
        <time>2012-03-17T14:48:56Z</time>
      </trkpt>
      <trkpt lat="45.85835" lon="4.81408">
        <ele>387</ele>
        <time>2012-03-17T14:48:57Z</time>
      </trkpt>
      <trkpt lat="45.8584" lon="4.81408">
        <ele>386</ele>
        <time>2012-03-17T14:49:01Z</time>
      </trkpt>
      <trkpt lat="45.85841" lon="4.81408">
        <ele>385</ele>
        <time>2012-03-17T14:49:02Z</time>
      </trkpt>
      <trkpt lat="45.85849" lon="4.81406">
        <ele>383</ele>
        <time>2012-03-17T14:49:08Z</time>
      </trkpt>
      <trkpt lat="45.85853" lon="4.81405">
        <ele>382</ele>
        <time>2012-03-17T14:49:16Z</time>
      </trkpt>
      <trkpt lat="45.85855" lon="4.81403">
        <ele>381</ele>
        <time>2012-03-17T14:49:23Z</time>
      </trkpt>
      <trkpt lat="45.85856" lon="4.81403">
        <ele>381</ele>
        <time>2012-03-17T14:49:24Z</time>
      </trkpt>
      <trkpt lat="45.85863" lon="4.81401">
        <ele>379</ele>
        <time>2012-03-17T14:49:27Z</time>
      </trkpt>
      <trkpt lat="45.85866" lon="4.81398">
        <ele>378</ele>
        <time>2012-03-17T14:49:28Z</time>
      </trkpt>
      <trkpt lat="45.85871" lon="4.81394">
        <ele>377</ele>
        <time>2012-03-17T14:49:30Z</time>
      </trkpt>
      <trkpt lat="45.85874" lon="4.81394">
        <ele>377</ele>
        <time>2012-03-17T14:49:31Z</time>
      </trkpt>
      <trkpt lat="45.85882" lon="4.81389">
        <ele>375</ele>
        <time>2012-03-17T14:49:36Z</time>
      </trkpt>
      <trkpt lat="45.85884" lon="4.81385">
        <ele>375</ele>
        <time>2012-03-17T14:49:37Z</time>
      </trkpt>
      <trkpt lat="45.85888" lon="4.81374">
        <ele>374</ele>
        <time>2012-03-17T14:49:40Z</time>
      </trkpt>
      <trkpt lat="45.85893" lon="4.81374">
        <ele>373</ele>
        <time>2012-03-17T14:49:44Z</time>
      </trkpt>
      <trkpt lat="45.85896" lon="4.81374">
        <ele>373</ele>
        <time>2012-03-17T14:49:45Z</time>
      </trkpt>
      <trkpt lat="45.85906" lon="4.81374">
        <ele>372</ele>
        <time>2012-03-17T14:49:48Z</time>
      </trkpt>
      <trkpt lat="45.85925" lon="4.81387">
        <ele>359</ele>
        <time>2012-03-17T14:49:53Z</time>
      </trkpt>
      <trkpt lat="45.8593" lon="4.81391">
        <ele>359</ele>
        <time>2012-03-17T14:49:54Z</time>
      </trkpt>
      <trkpt lat="45.85952" lon="4.81406">
        <ele>358</ele>
        <time>2012-03-17T14:49:58Z</time>
      </trkpt>
      <trkpt lat="45.85958" lon="4.81411">
        <ele>357</ele>
        <time>2012-03-17T14:49:59Z</time>
      </trkpt>
      <trkpt lat="45.85964" lon="4.81415">
        <ele>356</ele>
        <time>2012-03-17T14:50:00Z</time>
      </trkpt>
      <trkpt lat="45.85984" lon="4.81427">
        <ele>355</ele>
        <time>2012-03-17T14:50:03Z</time>
      </trkpt>
      <trkpt lat="45.85998" lon="4.81435">
        <ele>355</ele>
        <time>2012-03-17T14:50:05Z</time>
      </trkpt>
      <trkpt lat="45.86021" lon="4.81441">
        <ele>348</ele>
        <time>2012-03-17T14:50:08Z</time>
      </trkpt>
      <trkpt lat="45.86039" lon="4.81442">
        <ele>346</ele>
        <time>2012-03-17T14:50:11Z</time>
      </trkpt>
      <trkpt lat="45.86044" lon="4.81444">
        <ele>346</ele>
        <time>2012-03-17T14:50:12Z</time>
      </trkpt>
      <trkpt lat="45.86062" lon="4.8145">
        <ele>344</ele>
        <time>2012-03-17T14:50:15Z</time>
      </trkpt>
      <trkpt lat="45.86074" lon="4.81456">
        <ele>344</ele>
        <time>2012-03-17T14:50:17Z</time>
      </trkpt>
      <trkpt lat="45.86112" lon="4.81467">
        <ele>341</ele>
        <time>2012-03-17T14:50:23Z</time>
      </trkpt>
      <trkpt lat="45.86117" lon="4.81469">
        <ele>341</ele>
        <time>2012-03-17T14:50:24Z</time>
      </trkpt>
      <trkpt lat="45.86152" lon="4.81478">
        <ele>343</ele>
        <time>2012-03-17T14:50:30Z</time>
      </trkpt>
      <trkpt lat="45.86167" lon="4.81482">
        <ele>343</ele>
        <time>2012-03-17T14:50:33Z</time>
      </trkpt>
      <trkpt lat="45.86176" lon="4.81485">
        <ele>343</ele>
        <time>2012-03-17T14:50:35Z</time>
      </trkpt>
      <trkpt lat="45.86185" lon="4.81491">
        <ele>342</ele>
        <time>2012-03-17T14:50:38Z</time>
      </trkpt>
      <trkpt lat="45.86189" lon="4.81493">
        <ele>342</ele>
        <time>2012-03-17T14:50:39Z</time>
      </trkpt>
      <trkpt lat="45.86207" lon="4.81503">
        <ele>345</ele>
        <time>2012-03-17T14:50:44Z</time>
      </trkpt>
      <trkpt lat="45.86223" lon="4.8151">
        <ele>346</ele>
        <time>2012-03-17T14:50:48Z</time>
      </trkpt>
      <trkpt lat="45.86231" lon="4.81512">
        <ele>346</ele>
        <time>2012-03-17T14:50:50Z</time>
      </trkpt>
      <trkpt lat="45.86235" lon="4.81513">
        <ele>347</ele>
        <time>2012-03-17T14:50:51Z</time>
      </trkpt>
      <trkpt lat="45.86248" lon="4.8152">
        <ele>347</ele>
        <time>2012-03-17T14:50:54Z</time>
      </trkpt>
      <trkpt lat="45.86253" lon="4.81521">
        <ele>347</ele>
        <time>2012-03-17T14:50:55Z</time>
      </trkpt>
      <trkpt lat="45.86258" lon="4.81523">
        <ele>346</ele>
        <time>2012-03-17T14:50:56Z</time>
      </trkpt>
      <trkpt lat="45.86273" lon="4.81531">
        <ele>345</ele>
        <time>2012-03-17T14:50:59Z</time>
      </trkpt>
      <trkpt lat="45.86279" lon="4.81533">
        <ele>345</ele>
        <time>2012-03-17T14:51:00Z</time>
      </trkpt>
      <trkpt lat="45.86295" lon="4.81539">
        <ele>344</ele>
        <time>2012-03-17T14:51:03Z</time>
      </trkpt>
      <trkpt lat="45.86299" lon="4.81541">
        <ele>344</ele>
        <time>2012-03-17T14:51:04Z</time>
      </trkpt>
      <trkpt lat="45.86304" lon="4.81544">
        <ele>344</ele>
        <time>2012-03-17T14:51:05Z</time>
      </trkpt>
      <trkpt lat="45.86317" lon="4.81551">
        <ele>344</ele>
        <time>2012-03-17T14:51:08Z</time>
      </trkpt>
      <trkpt lat="45.8632" lon="4.81554">
        <ele>344</ele>
        <time>2012-03-17T14:51:09Z</time>
      </trkpt>
      <trkpt lat="45.86329" lon="4.81561">
        <ele>344</ele>
        <time>2012-03-17T14:51:13Z</time>
      </trkpt>
      <trkpt lat="45.86331" lon="4.81561">
        <ele>344</ele>
        <time>2012-03-17T14:51:14Z</time>
      </trkpt>
      <trkpt lat="45.86341" lon="4.81566">
        <ele>339</ele>
        <time>2012-03-17T14:51:18Z</time>
      </trkpt>
      <trkpt lat="45.86347" lon="4.81573">
        <ele>339</ele>
        <time>2012-03-17T14:51:20Z</time>
      </trkpt>
      <trkpt lat="45.86354" lon="4.81583">
        <ele>338</ele>
        <time>2012-03-17T14:51:22Z</time>
      </trkpt>
      <trkpt lat="45.8636" lon="4.81593">
        <ele>337</ele>
        <time>2012-03-17T14:51:24Z</time>
      </trkpt>
      <trkpt lat="45.86365" lon="4.8161">
        <ele>335</ele>
        <time>2012-03-17T14:51:27Z</time>
      </trkpt>
      <trkpt lat="45.86372" lon="4.81617">
        <ele>334</ele>
        <time>2012-03-17T14:51:30Z</time>
      </trkpt>
      <trkpt lat="45.86388" lon="4.81618">
        <ele>333</ele>
        <time>2012-03-17T14:51:34Z</time>
      </trkpt>
      <trkpt lat="45.86401" lon="4.81608">
        <ele>332</ele>
        <time>2012-03-17T14:51:37Z</time>
      </trkpt>
      <trkpt lat="45.86406" lon="4.81596">
        <ele>333</ele>
        <time>2012-03-17T14:51:39Z</time>
      </trkpt>
      <trkpt lat="45.86408" lon="4.81589">
        <ele>332</ele>
        <time>2012-03-17T14:51:40Z</time>
      </trkpt>
      <trkpt lat="45.8641" lon="4.81581">
        <ele>332</ele>
        <time>2012-03-17T14:51:41Z</time>
      </trkpt>
      <trkpt lat="45.86413" lon="4.81563">
        <ele>332</ele>
        <time>2012-03-17T14:51:44Z</time>
      </trkpt>
      <trkpt lat="45.86417" lon="4.81556">
        <ele>318</ele>
        <time>2012-03-17T14:51:48Z</time>
      </trkpt>
      <trkpt lat="45.86427" lon="4.81576">
        <ele>323</ele>
        <time>2012-03-17T14:51:51Z</time>
      </trkpt>
      <trkpt lat="45.8643" lon="4.81584">
        <ele>325</ele>
        <time>2012-03-17T14:51:52Z</time>
      </trkpt>
      <trkpt lat="45.86434" lon="4.81597">
        <ele>323</ele>
        <time>2012-03-17T14:51:54Z</time>
      </trkpt>
      <trkpt lat="45.86435" lon="4.81612">
        <ele>321</ele>
        <time>2012-03-17T14:51:56Z</time>
      </trkpt>
      <trkpt lat="45.86434" lon="4.81629">
        <ele>320</ele>
        <time>2012-03-17T14:51:58Z</time>
      </trkpt>
      <trkpt lat="45.86433" lon="4.81639">
        <ele>320</ele>
        <time>2012-03-17T14:51:59Z</time>
      </trkpt>
      <trkpt lat="45.86431" lon="4.81648">
        <ele>321</ele>
        <time>2012-03-17T14:52:00Z</time>
      </trkpt>
      <trkpt lat="45.86427" lon="4.81684">
        <ele>318</ele>
        <time>2012-03-17T14:52:03Z</time>
      </trkpt>
      <trkpt lat="45.86419" lon="4.81732">
        <ele>312</ele>
        <time>2012-03-17T14:52:07Z</time>
      </trkpt>
      <trkpt lat="45.86418" lon="4.81742">
        <ele>312</ele>
        <time>2012-03-17T14:52:08Z</time>
      </trkpt>
      <trkpt lat="45.86416" lon="4.81761">
        <ele>309</ele>
        <time>2012-03-17T14:52:10Z</time>
      </trkpt>
      <trkpt lat="45.86418" lon="4.81774">
        <ele>306</ele>
        <time>2012-03-17T14:52:12Z</time>
      </trkpt>
      <trkpt lat="45.86421" lon="4.81778">
        <ele>305</ele>
        <time>2012-03-17T14:52:14Z</time>
      </trkpt>
      <trkpt lat="45.86422" lon="4.81782">
        <ele>305</ele>
        <time>2012-03-17T14:52:15Z</time>
      </trkpt>
      <trkpt lat="45.86428" lon="4.8179">
        <ele>304</ele>
        <time>2012-03-17T14:52:17Z</time>
      </trkpt>
      <trkpt lat="45.86432" lon="4.81794">
        <ele>303</ele>
        <time>2012-03-17T14:52:18Z</time>
      </trkpt>
      <trkpt lat="45.86461" lon="4.81817">
        <ele>302</ele>
        <time>2012-03-17T14:52:23Z</time>
      </trkpt>
      <trkpt lat="45.86474" lon="4.81829">
        <ele>301</ele>
        <time>2012-03-17T14:52:25Z</time>
      </trkpt>
      <trkpt lat="45.86489" lon="4.81837">
        <ele>296</ele>
        <time>2012-03-17T14:52:27Z</time>
      </trkpt>
      <trkpt lat="45.86497" lon="4.81839">
        <ele>297</ele>
        <time>2012-03-17T14:52:28Z</time>
      </trkpt>
      <trkpt lat="45.86531" lon="4.81848">
        <ele>290</ele>
        <time>2012-03-17T14:52:32Z</time>
      </trkpt>
      <trkpt lat="45.86539" lon="4.8185">
        <ele>289</ele>
        <time>2012-03-17T14:52:33Z</time>
      </trkpt>
      <trkpt lat="45.86547" lon="4.8185">
        <ele>289</ele>
        <time>2012-03-17T14:52:34Z</time>
      </trkpt>
      <trkpt lat="45.8656" lon="4.81845">
        <ele>289</ele>
        <time>2012-03-17T14:52:36Z</time>
      </trkpt>
      <trkpt lat="45.86573" lon="4.81833">
        <ele>289</ele>
        <time>2012-03-17T14:52:38Z</time>
      </trkpt>
      <trkpt lat="45.86585" lon="4.81821">
        <ele>285</ele>
        <time>2012-03-17T14:52:40Z</time>
      </trkpt>
      <trkpt lat="45.86597" lon="4.81801">
        <ele>282</ele>
        <time>2012-03-17T14:52:43Z</time>
      </trkpt>
      <trkpt lat="45.86597" lon="4.81796">
        <ele>281</ele>
        <time>2012-03-17T14:52:44Z</time>
      </trkpt>
      <trkpt lat="45.86595" lon="4.81788">
        <ele>281</ele>
        <time>2012-03-17T14:52:45Z</time>
      </trkpt>
      <trkpt lat="45.86589" lon="4.81768">
        <ele>283</ele>
        <time>2012-03-17T14:52:47Z</time>
      </trkpt>
      <trkpt lat="45.8658" lon="4.8174">
        <ele>291</ele>
        <time>2012-03-17T14:52:49Z</time>
      </trkpt>
      <trkpt lat="45.86581" lon="4.81714">
        <ele>293</ele>
        <time>2012-03-17T14:52:51Z</time>
      </trkpt>
      <trkpt lat="45.86582" lon="4.81688">
        <ele>292</ele>
        <time>2012-03-17T14:52:53Z</time>
      </trkpt>
      <trkpt lat="45.86583" lon="4.81676">
        <ele>290</ele>
        <time>2012-03-17T14:52:54Z</time>
      </trkpt>
      <trkpt lat="45.86583" lon="4.81668">
        <ele>287</ele>
        <time>2012-03-17T14:52:55Z</time>
      </trkpt>
      <trkpt lat="45.86584" lon="4.81665">
        <ele>285</ele>
        <time>2012-03-17T14:52:56Z</time>
      </trkpt>
      <trkpt lat="45.8659" lon="4.81678">
        <ele>281</ele>
        <time>2012-03-17T14:52:58Z</time>
      </trkpt>
      <trkpt lat="45.86602" lon="4.81699">
        <ele>277</ele>
        <time>2012-03-17T14:53:01Z</time>
      </trkpt>
      <trkpt lat="45.86605" lon="4.81707">
        <ele>276</ele>
        <time>2012-03-17T14:53:02Z</time>
      </trkpt>
      <trkpt lat="45.86611" lon="4.81726">
        <ele>276</ele>
        <time>2012-03-17T14:53:05Z</time>
      </trkpt>
      <trkpt lat="45.86614" lon="4.8174">
        <ele>276</ele>
        <time>2012-03-17T14:53:07Z</time>
      </trkpt>
      <trkpt lat="45.86619" lon="4.81749">
        <ele>275</ele>
        <time>2012-03-17T14:53:09Z</time>
      </trkpt>
      <trkpt lat="45.86628" lon="4.81765">
        <ele>276</ele>
        <time>2012-03-17T14:53:12Z</time>
      </trkpt>
      <trkpt lat="45.86634" lon="4.81777">
        <ele>276</ele>
        <time>2012-03-17T14:53:14Z</time>
      </trkpt>
      <trkpt lat="45.86642" lon="4.81789">
        <ele>275</ele>
        <time>2012-03-17T14:53:16Z</time>
      </trkpt>
      <trkpt lat="45.86654" lon="4.81811">
        <ele>275</ele>
        <time>2012-03-17T14:53:19Z</time>
      </trkpt>
      <trkpt lat="45.86665" lon="4.81832">
        <ele>272</ele>
        <time>2012-03-17T14:53:22Z</time>
      </trkpt>
      <trkpt lat="45.86672" lon="4.81843">
        <ele>267</ele>
        <time>2012-03-17T14:53:24Z</time>
      </trkpt>
      <trkpt lat="45.86679" lon="4.81856">
        <ele>263</ele>
        <time>2012-03-17T14:53:26Z</time>
      </trkpt>
      <trkpt lat="45.86686" lon="4.81867">
        <ele>261</ele>
        <time>2012-03-17T14:53:28Z</time>
      </trkpt>
      <trkpt lat="45.86691" lon="4.81873">
        <ele>260</ele>
        <time>2012-03-17T14:53:30Z</time>
      </trkpt>
      <trkpt lat="45.86694" lon="4.81873">
        <ele>260</ele>
        <time>2012-03-17T14:53:31Z</time>
      </trkpt>
      <trkpt lat="45.86696" lon="4.8187">
        <ele>260</ele>
        <time>2012-03-17T14:53:32Z</time>
      </trkpt>
      <trkpt lat="45.86698" lon="4.81856">
        <ele>260</ele>
        <time>2012-03-17T14:53:35Z</time>
      </trkpt>
      <trkpt lat="45.86696" lon="4.81844">
        <ele>261</ele>
        <time>2012-03-17T14:53:37Z</time>
      </trkpt>
      <trkpt lat="45.86693" lon="4.81831">
        <ele>260</ele>
        <time>2012-03-17T14:53:39Z</time>
      </trkpt>
      <trkpt lat="45.86689" lon="4.81822">
        <ele>260</ele>
        <time>2012-03-17T14:53:40Z</time>
      </trkpt>
      <trkpt lat="45.86677" lon="4.81792">
        <ele>258</ele>
        <time>2012-03-17T14:53:43Z</time>
      </trkpt>
      <trkpt lat="45.86673" lon="4.81782">
        <ele>258</ele>
        <time>2012-03-17T14:53:44Z</time>
      </trkpt>
      <trkpt lat="45.86652" lon="4.81731">
        <ele>268</ele>
        <time>2012-03-17T14:53:48Z</time>
      </trkpt>
      <trkpt lat="45.86643" lon="4.81705">
        <ele>270</ele>
        <time>2012-03-17T14:53:50Z</time>
      </trkpt>
      <trkpt lat="45.86636" lon="4.81681">
        <ele>270</ele>
        <time>2012-03-17T14:53:52Z</time>
      </trkpt>
      <trkpt lat="45.86626" lon="4.81653">
        <ele>267</ele>
        <time>2012-03-17T14:53:55Z</time>
      </trkpt>
      <trkpt lat="45.86621" lon="4.81635">
        <ele>267</ele>
        <time>2012-03-17T14:53:57Z</time>
      </trkpt>
      <trkpt lat="45.8662" lon="4.81626">
        <ele>267</ele>
        <time>2012-03-17T14:53:58Z</time>
      </trkpt>
      <trkpt lat="45.86619" lon="4.81616">
        <ele>266</ele>
        <time>2012-03-17T14:53:59Z</time>
      </trkpt>
      <trkpt lat="45.86616" lon="4.81602">
        <ele>266</ele>
        <time>2012-03-17T14:54:01Z</time>
      </trkpt>
      <trkpt lat="45.86618" lon="4.81595">
        <ele>266</ele>
        <time>2012-03-17T14:54:03Z</time>
      </trkpt>
      <trkpt lat="45.86632" lon="4.81601">
        <ele>263</ele>
        <time>2012-03-17T14:54:06Z</time>
      </trkpt>
      <trkpt lat="45.86635" lon="4.81605">
        <ele>262</ele>
        <time>2012-03-17T14:54:07Z</time>
      </trkpt>
      <trkpt lat="45.86642" lon="4.81618">
        <ele>262</ele>
        <time>2012-03-17T14:54:09Z</time>
      </trkpt>
      <trkpt lat="45.8665" lon="4.81628">
        <ele>262</ele>
        <time>2012-03-17T14:54:11Z</time>
      </trkpt>
      <trkpt lat="45.86658" lon="4.81634">
        <ele>261</ele>
        <time>2012-03-17T14:54:13Z</time>
      </trkpt>
      <trkpt lat="45.86662" lon="4.81638">
        <ele>261</ele>
        <time>2012-03-17T14:54:14Z</time>
      </trkpt>
      <trkpt lat="45.86673" lon="4.81647">
        <ele>248</ele>
        <time>2012-03-17T14:54:16Z</time>
      </trkpt>
      <trkpt lat="45.8668" lon="4.81651">
        <ele>248</ele>
        <time>2012-03-17T14:54:17Z</time>
      </trkpt>
      <trkpt lat="45.86698" lon="4.81665">
        <ele>245</ele>
        <time>2012-03-17T14:54:20Z</time>
      </trkpt>
      <trkpt lat="45.86709" lon="4.81675">
        <ele>246</ele>
        <time>2012-03-17T14:54:22Z</time>
      </trkpt>
      <trkpt lat="45.86713" lon="4.81681">
        <ele>246</ele>
        <time>2012-03-17T14:54:23Z</time>
      </trkpt>
      <trkpt lat="45.86722" lon="4.81697">
        <ele>245</ele>
        <time>2012-03-17T14:54:25Z</time>
      </trkpt>
      <trkpt lat="45.86726" lon="4.81705">
        <ele>245</ele>
        <time>2012-03-17T14:54:26Z</time>
      </trkpt>
      <trkpt lat="45.86739" lon="4.81728">
        <ele>243</ele>
        <time>2012-03-17T14:54:29Z</time>
      </trkpt>
      <trkpt lat="45.86742" lon="4.81737">
        <ele>242</ele>
        <time>2012-03-17T14:54:30Z</time>
      </trkpt>
      <trkpt lat="45.86747" lon="4.81751">
        <ele>240</ele>
        <time>2012-03-17T14:54:32Z</time>
      </trkpt>
      <trkpt lat="45.86751" lon="4.81768">
        <ele>238</ele>
        <time>2012-03-17T14:54:34Z</time>
      </trkpt>
      <trkpt lat="45.86753" lon="4.81786">
        <ele>239</ele>
        <time>2012-03-17T14:54:36Z</time>
      </trkpt>
      <trkpt lat="45.86753" lon="4.81805">
        <ele>240</ele>
        <time>2012-03-17T14:54:38Z</time>
      </trkpt>
      <trkpt lat="45.86754" lon="4.8182">
        <ele>242</ele>
        <time>2012-03-17T14:54:40Z</time>
      </trkpt>
      <trkpt lat="45.86756" lon="4.81837">
        <ele>243</ele>
        <time>2012-03-17T14:54:42Z</time>
      </trkpt>
      <trkpt lat="45.8677" lon="4.81852">
        <ele>241</ele>
        <time>2012-03-17T14:54:45Z</time>
      </trkpt>
      <trkpt lat="45.86797" lon="4.8189">
        <ele>239</ele>
        <time>2012-03-17T14:54:51Z</time>
      </trkpt>
      <trkpt lat="45.8682" lon="4.81921">
        <ele>239</ele>
        <time>2012-03-17T14:54:57Z</time>
      </trkpt>
      <trkpt lat="45.86826" lon="4.81928">
        <ele>239</ele>
        <time>2012-03-17T14:54:59Z</time>
      </trkpt>
      <trkpt lat="45.86832" lon="4.8193">
        <ele>239</ele>
        <time>2012-03-17T14:55:01Z</time>
      </trkpt>
      <trkpt lat="45.86837" lon="4.81926">
        <ele>235</ele>
        <time>2012-03-17T14:55:03Z</time>
      </trkpt>
      <trkpt lat="45.86839" lon="4.81922">
        <ele>235</ele>
        <time>2012-03-17T14:55:04Z</time>
      </trkpt>
      <trkpt lat="45.86854" lon="4.81898">
        <ele>232</ele>
        <time>2012-03-17T14:55:09Z</time>
      </trkpt>
      <trkpt lat="45.86858" lon="4.81891">
        <ele>232</ele>
        <time>2012-03-17T14:55:13Z</time>
      </trkpt>
      <trkpt lat="45.8686" lon="4.81889">
        <ele>232</ele>
        <time>2012-03-17T14:55:18Z</time>
      </trkpt>
      <trkpt lat="45.86862" lon="4.81892">
        <ele>232</ele>
        <time>2012-03-17T14:55:24Z</time>
      </trkpt>
      <trkpt lat="45.86863" lon="4.81894">
        <ele>232</ele>
        <time>2012-03-17T14:55:25Z</time>
      </trkpt>
      <trkpt lat="45.86872" lon="4.81911">
        <ele>231</ele>
        <time>2012-03-17T14:55:31Z</time>
      </trkpt>
      <trkpt lat="45.86879" lon="4.81921">
        <ele>232</ele>
        <time>2012-03-17T14:55:34Z</time>
      </trkpt>
      <trkpt lat="45.86886" lon="4.81933">
        <ele>231</ele>
        <time>2012-03-17T14:55:37Z</time>
      </trkpt>
      <trkpt lat="45.86906" lon="4.81957">
        <ele>231</ele>
        <time>2012-03-17T14:55:42Z</time>
      </trkpt>
      <trkpt lat="45.86937" lon="4.8199">
        <ele>226</ele>
        <time>2012-03-17T14:55:48Z</time>
      </trkpt>
      <trkpt lat="45.86961" lon="4.82007">
        <ele>225</ele>
        <time>2012-03-17T14:55:53Z</time>
      </trkpt>
      <trkpt lat="45.86972" lon="4.82015">
        <ele>224</ele>
        <time>2012-03-17T14:55:56Z</time>
      </trkpt>
      <trkpt lat="45.86974" lon="4.82017">
        <ele>224</ele>
        <time>2012-03-17T14:55:57Z</time>
      </trkpt>
      <trkpt lat="45.86979" lon="4.82023">
        <ele>223</ele>
        <time>2012-03-17T14:56:01Z</time>
      </trkpt>
      <trkpt lat="45.86986" lon="4.82022">
        <ele>223</ele>
        <time>2012-03-17T14:56:05Z</time>
      </trkpt>
      <trkpt lat="45.86989" lon="4.82011">
        <ele>221</ele>
        <time>2012-03-17T14:56:08Z</time>
      </trkpt>
      <trkpt lat="45.86989" lon="4.82006">
        <ele>221</ele>
        <time>2012-03-17T14:56:09Z</time>
      </trkpt>
      <trkpt lat="45.86988" lon="4.81991">
        <ele>222</ele>
        <time>2012-03-17T14:56:12Z</time>
      </trkpt>
      <trkpt lat="45.86988" lon="4.81969">
        <ele>225</ele>
        <time>2012-03-17T14:56:16Z</time>
      </trkpt>
      <trkpt lat="45.86995" lon="4.8195">
        <ele>227</ele>
        <time>2012-03-17T14:56:20Z</time>
      </trkpt>
      <trkpt lat="45.87" lon="4.81947">
        <ele>227</ele>
        <time>2012-03-17T14:56:21Z</time>
      </trkpt>
      <trkpt lat="45.87013" lon="4.81945">
        <ele>229</ele>
        <time>2012-03-17T14:56:24Z</time>
      </trkpt>
      <trkpt lat="45.87026" lon="4.81948">
        <ele>229</ele>
        <time>2012-03-17T14:56:27Z</time>
      </trkpt>
      <trkpt lat="45.87037" lon="4.81952">
        <ele>229</ele>
        <time>2012-03-17T14:56:30Z</time>
      </trkpt>
      <trkpt lat="45.87068" lon="4.8196">
        <ele>229</ele>
        <time>2012-03-17T14:56:38Z</time>
      </trkpt>
      <trkpt lat="45.87075" lon="4.81962">
        <ele>229</ele>
        <time>2012-03-17T14:56:40Z</time>
      </trkpt>
      <trkpt lat="45.87095" lon="4.81967">
        <ele>230</ele>
        <time>2012-03-17T14:56:46Z</time>
      </trkpt>
      <trkpt lat="45.87111" lon="4.81967">
        <ele>231</ele>
        <time>2012-03-17T14:56:51Z</time>
      </trkpt>
      <trkpt lat="45.87137" lon="4.81966">
        <ele>231</ele>
        <time>2012-03-17T14:56:59Z</time>
      </trkpt>
      <trkpt lat="45.87149" lon="4.81967">
        <ele>231</ele>
        <time>2012-03-17T14:57:03Z</time>
      </trkpt>
      <trkpt lat="45.87161" lon="4.81965">
        <ele>231</ele>
        <time>2012-03-17T14:57:07Z</time>
      </trkpt>
      <trkpt lat="45.87184" lon="4.81962">
        <ele>231</ele>
        <time>2012-03-17T14:57:14Z</time>
      </trkpt>
      <trkpt lat="45.87187" lon="4.81961">
        <ele>231</ele>
        <time>2012-03-17T14:57:15Z</time>
      </trkpt>
      <trkpt lat="45.87204" lon="4.81955">
        <ele>231</ele>
        <time>2012-03-17T14:57:21Z</time>
      </trkpt>
      <trkpt lat="45.87223" lon="4.81945">
        <ele>232</ele>
        <time>2012-03-17T14:57:27Z</time>
      </trkpt>
      <trkpt lat="45.87226" lon="4.81943">
        <ele>232</ele>
        <time>2012-03-17T14:57:28Z</time>
      </trkpt>
      <trkpt lat="45.87245" lon="4.81933">
        <ele>232</ele>
        <time>2012-03-17T14:57:34Z</time>
      </trkpt>
      <trkpt lat="45.87259" lon="4.81926">
        <ele>232</ele>
        <time>2012-03-17T14:57:38Z</time>
      </trkpt>
      <trkpt lat="45.87273" lon="4.81914">
        <ele>235</ele>
        <time>2012-03-17T14:57:42Z</time>
      </trkpt>
      <trkpt lat="45.8729" lon="4.81898">
        <ele>235</ele>
        <time>2012-03-17T14:57:48Z</time>
      </trkpt>
      <trkpt lat="45.87292" lon="4.81893">
        <ele>235</ele>
        <time>2012-03-17T14:57:49Z</time>
      </trkpt>
      <trkpt lat="45.87294" lon="4.81887">
        <ele>235</ele>
        <time>2012-03-17T14:57:50Z</time>
      </trkpt>
      <trkpt lat="45.87298" lon="4.81863">
        <ele>235</ele>
        <time>2012-03-17T14:57:54Z</time>
      </trkpt>
      <trkpt lat="45.87299" lon="4.81856">
        <ele>236</ele>
        <time>2012-03-17T14:57:55Z</time>
      </trkpt>
      <trkpt lat="45.873" lon="4.81844">
        <ele>236</ele>
        <time>2012-03-17T14:57:57Z</time>
      </trkpt>
      <trkpt lat="45.87305" lon="4.81821">
        <ele>238</ele>
        <time>2012-03-17T14:58:01Z</time>
      </trkpt>
      <trkpt lat="45.87313" lon="4.81793">
        <ele>239</ele>
        <time>2012-03-17T14:58:07Z</time>
      </trkpt>
      <trkpt lat="45.87323" lon="4.8176">
        <ele>238</ele>
        <time>2012-03-17T14:58:14Z</time>
      </trkpt>
      <trkpt lat="45.8733" lon="4.81746">
        <ele>239</ele>
        <time>2012-03-17T14:58:17Z</time>
      </trkpt>
      <trkpt lat="45.87338" lon="4.81715">
        <ele>236</ele>
        <time>2012-03-17T14:58:23Z</time>
      </trkpt>
      <trkpt lat="45.87344" lon="4.81695">
        <ele>237</ele>
        <time>2012-03-17T14:58:27Z</time>
      </trkpt>
      <trkpt lat="45.87351" lon="4.8168">
        <ele>238</ele>
        <time>2012-03-17T14:58:30Z</time>
      </trkpt>
      <trkpt lat="45.87362" lon="4.8165">
        <ele>240</ele>
        <time>2012-03-17T14:58:36Z</time>
      </trkpt>
      <trkpt lat="45.87364" lon="4.81645">
        <ele>239</ele>
        <time>2012-03-17T14:58:37Z</time>
      </trkpt>
      <trkpt lat="45.87373" lon="4.81616">
        <ele>240</ele>
        <time>2012-03-17T14:58:43Z</time>
      </trkpt>
      <trkpt lat="45.87377" lon="4.81601">
        <ele>240</ele>
        <time>2012-03-17T14:58:46Z</time>
      </trkpt>
      <trkpt lat="45.8738" lon="4.81582">
        <ele>243</ele>
        <time>2012-03-17T14:58:50Z</time>
      </trkpt>
      <trkpt lat="45.87387" lon="4.8155">
        <ele>244</ele>
        <time>2012-03-17T14:58:57Z</time>
      </trkpt>
      <trkpt lat="45.87394" lon="4.81526">
        <ele>244</ele>
        <time>2012-03-17T14:59:03Z</time>
      </trkpt>
      <trkpt lat="45.87402" lon="4.81502">
        <ele>244</ele>
        <time>2012-03-17T14:59:08Z</time>
      </trkpt>
      <trkpt lat="45.87407" lon="4.81488">
        <ele>246</ele>
        <time>2012-03-17T14:59:11Z</time>
      </trkpt>
      <trkpt lat="45.87421" lon="4.81455">
        <ele>242</ele>
        <time>2012-03-17T14:59:18Z</time>
      </trkpt>
      <trkpt lat="45.87425" lon="4.81446">
        <ele>243</ele>
        <time>2012-03-17T14:59:20Z</time>
      </trkpt>
      <trkpt lat="45.87445" lon="4.81416">
        <ele>248</ele>
        <time>2012-03-17T14:59:27Z</time>
      </trkpt>
      <trkpt lat="45.87453" lon="4.81404">
        <ele>248</ele>
        <time>2012-03-17T14:59:30Z</time>
      </trkpt>
      <trkpt lat="45.8747" lon="4.81375">
        <ele>248</ele>
        <time>2012-03-17T14:59:37Z</time>
      </trkpt>
      <trkpt lat="45.87475" lon="4.81367">
        <ele>248</ele>
        <time>2012-03-17T14:59:39Z</time>
      </trkpt>
      <trkpt lat="45.87489" lon="4.8134">
        <ele>248</ele>
        <time>2012-03-17T14:59:46Z</time>
      </trkpt>
      <trkpt lat="45.87492" lon="4.81332">
        <ele>250</ele>
        <time>2012-03-17T14:59:48Z</time>
      </trkpt>
      <trkpt lat="45.87497" lon="4.81307">
        <ele>253</ele>
        <time>2012-03-17T14:59:54Z</time>
      </trkpt>
      <trkpt lat="45.87502" lon="4.81278">
        <ele>249</ele>
        <time>2012-03-17T15:00:00Z</time>
      </trkpt>
      <trkpt lat="45.87505" lon="4.81264">
        <ele>250</ele>
        <time>2012-03-17T15:00:03Z</time>
      </trkpt>
      <trkpt lat="45.87511" lon="4.81228">
        <ele>253</ele>
        <time>2012-03-17T15:00:10Z</time>
      </trkpt>
      <trkpt lat="45.87514" lon="4.81218">
        <ele>254</ele>
        <time>2012-03-17T15:00:12Z</time>
      </trkpt>
      <trkpt lat="45.87522" lon="4.81191">
        <ele>255</ele>
        <time>2012-03-17T15:00:18Z</time>
      </trkpt>
      <trkpt lat="45.87526" lon="4.81179">
        <ele>255</ele>
        <time>2012-03-17T15:00:21Z</time>
      </trkpt>
      <trkpt lat="45.87531" lon="4.81164">
        <ele>260</ele>
        <time>2012-03-17T15:00:25Z</time>
      </trkpt>
      <trkpt lat="45.8754" lon="4.8114">
        <ele>260</ele>
        <time>2012-03-17T15:00:32Z</time>
      </trkpt>
      <trkpt lat="45.87543" lon="4.8113">
        <ele>260</ele>
        <time>2012-03-17T15:00:35Z</time>
      </trkpt>
      <trkpt lat="45.87547" lon="4.81117">
        <ele>261</ele>
        <time>2012-03-17T15:00:39Z</time>
      </trkpt>
      <trkpt lat="45.87553" lon="4.81091">
        <ele>261</ele>
        <time>2012-03-17T15:00:47Z</time>
      </trkpt>
      <trkpt lat="45.87556" lon="4.8108">
        <ele>265</ele>
        <time>2012-03-17T15:00:51Z</time>
      </trkpt>
      <trkpt lat="45.87557" lon="4.81071">
        <ele>265</ele>
        <time>2012-03-17T15:00:54Z</time>
      </trkpt>
      <trkpt lat="45.87563" lon="4.81049">
        <ele>266</ele>
        <time>2012-03-17T15:01:01Z</time>
      </trkpt>
      <trkpt lat="45.87565" lon="4.8103">
        <ele>267</ele>
        <time>2012-03-17T15:01:07Z</time>
      </trkpt>
      <trkpt lat="45.87566" lon="4.81023">
        <ele>267</ele>
        <time>2012-03-17T15:01:09Z</time>
      </trkpt>
      <trkpt lat="45.87574" lon="4.81002">
        <ele>266</ele>
        <time>2012-03-17T15:01:15Z</time>
      </trkpt>
      <trkpt lat="45.8758" lon="4.80982">
        <ele>269</ele>
        <time>2012-03-17T15:01:21Z</time>
      </trkpt>
      <trkpt lat="45.87582" lon="4.80979">
        <ele>269</ele>
        <time>2012-03-17T15:01:22Z</time>
      </trkpt>
      <trkpt lat="45.87599" lon="4.80956">
        <ele>264</ele>
        <time>2012-03-17T15:01:30Z</time>
      </trkpt>
      <trkpt lat="45.87606" lon="4.80944">
        <ele>264</ele>
        <time>2012-03-17T15:01:34Z</time>
      </trkpt>
      <trkpt lat="45.87609" lon="4.80929">
        <ele>264</ele>
        <time>2012-03-17T15:01:38Z</time>
      </trkpt>
      <trkpt lat="45.87615" lon="4.80913">
        <ele>266</ele>
        <time>2012-03-17T15:01:43Z</time>
      </trkpt>
      <trkpt lat="45.87621" lon="4.80893">
        <ele>266</ele>
        <time>2012-03-17T15:01:48Z</time>
      </trkpt>
      <trkpt lat="45.87622" lon="4.80887">
        <ele>265</ele>
        <time>2012-03-17T15:01:49Z</time>
      </trkpt>
      <trkpt lat="45.87631" lon="4.8085">
        <ele>265</ele>
        <time>2012-03-17T15:01:54Z</time>
      </trkpt>
      <trkpt lat="45.87633" lon="4.80841">
        <ele>265</ele>
        <time>2012-03-17T15:01:55Z</time>
      </trkpt>
      <trkpt lat="45.87638" lon="4.80823">
        <ele>267</ele>
        <time>2012-03-17T15:01:57Z</time>
      </trkpt>
      <trkpt lat="45.87641" lon="4.80805">
        <ele>268</ele>
        <time>2012-03-17T15:01:59Z</time>
      </trkpt>
      <trkpt lat="45.87646" lon="4.80786">
        <ele>269</ele>
        <time>2012-03-17T15:02:02Z</time>
      </trkpt>
      <trkpt lat="45.87651" lon="4.80761">
        <ele>269</ele>
        <time>2012-03-17T15:02:07Z</time>
      </trkpt>
      <trkpt lat="45.87655" lon="4.80736">
        <ele>271</ele>
        <time>2012-03-17T15:02:13Z</time>
      </trkpt>
      <trkpt lat="45.87656" lon="4.80732">
        <ele>271</ele>
        <time>2012-03-17T15:02:14Z</time>
      </trkpt>
      <trkpt lat="45.87659" lon="4.80709">
        <ele>271</ele>
        <time>2012-03-17T15:02:19Z</time>
      </trkpt>
      <trkpt lat="45.87663" lon="4.80692">
        <ele>271</ele>
        <time>2012-03-17T15:02:24Z</time>
      </trkpt>
      <trkpt lat="45.87666" lon="4.80679">
        <ele>270</ele>
        <time>2012-03-17T15:02:28Z</time>
      </trkpt>
      <trkpt lat="45.87667" lon="4.80672">
        <ele>270</ele>
        <time>2012-03-17T15:02:30Z</time>
      </trkpt>
      <trkpt lat="45.87673" lon="4.80645">
        <ele>267</ele>
        <time>2012-03-17T15:02:36Z</time>
      </trkpt>
      <trkpt lat="45.87675" lon="4.80628">
        <ele>266</ele>
        <time>2012-03-17T15:02:39Z</time>
      </trkpt>
      <trkpt lat="45.87677" lon="4.80609">
        <ele>266</ele>
        <time>2012-03-17T15:02:42Z</time>
      </trkpt>
      <trkpt lat="45.87679" lon="4.80596">
        <ele>266</ele>
        <time>2012-03-17T15:02:46Z</time>
      </trkpt>
      <trkpt lat="45.87678" lon="4.80591">
        <ele>267</ele>
        <time>2012-03-17T15:02:52Z</time>
      </trkpt>
      <trkpt lat="45.87677" lon="4.80591">
        <ele>267</ele>
        <time>2012-03-17T15:02:53Z</time>
      </trkpt>
      <trkpt lat="45.87676" lon="4.80594">
        <ele>267</ele>
        <time>2012-03-17T15:02:57Z</time>
      </trkpt>
      <trkpt lat="45.8768" lon="4.8059">
        <ele>266</ele>
        <time>2012-03-17T15:03:01Z</time>
      </trkpt>
      <trkpt lat="45.87682" lon="4.80579">
        <ele>265</ele>
        <time>2012-03-17T15:03:03Z</time>
      </trkpt>
      <trkpt lat="45.87684" lon="4.80564">
        <ele>264</ele>
        <time>2012-03-17T15:03:05Z</time>
      </trkpt>
      <trkpt lat="45.87687" lon="4.80538">
        <ele>264</ele>
        <time>2012-03-17T15:03:08Z</time>
      </trkpt>
      <trkpt lat="45.87689" lon="4.80521">
        <ele>263</ele>
        <time>2012-03-17T15:03:10Z</time>
      </trkpt>
      <trkpt lat="45.87697" lon="4.80487">
        <ele>262</ele>
        <time>2012-03-17T15:03:15Z</time>
      </trkpt>
      <trkpt lat="45.87699" lon="4.80483">
        <ele>262</ele>
        <time>2012-03-17T15:03:16Z</time>
      </trkpt>
      <trkpt lat="45.877" lon="4.8048">
        <ele>262</ele>
        <time>2012-03-17T15:03:18Z</time>
      </trkpt>
      <trkpt lat="45.877" lon="4.80478">
        <ele>262</ele>
        <time>2012-03-17T15:03:20Z</time>
      </trkpt>
      <trkpt lat="45.87697" lon="4.80478">
        <ele>262</ele>
        <time>2012-03-17T15:03:22Z</time>
      </trkpt>
      <trkpt lat="45.87686" lon="4.80477">
        <ele>263</ele>
        <time>2012-03-17T15:03:27Z</time>
      </trkpt>
      <trkpt lat="45.87671" lon="4.80471">
        <ele>264</ele>
        <time>2012-03-17T15:03:32Z</time>
      </trkpt>
      <trkpt lat="45.87668" lon="4.80469">
        <ele>264</ele>
        <time>2012-03-17T15:03:33Z</time>
      </trkpt>
      <trkpt lat="45.87655" lon="4.80459">
        <ele>271</ele>
        <time>2012-03-17T15:03:39Z</time>
      </trkpt>
      <trkpt lat="45.8764" lon="4.8045">
        <ele>271</ele>
        <time>2012-03-17T15:03:46Z</time>
      </trkpt>
      <trkpt lat="45.87636" lon="4.80447">
        <ele>272</ele>
        <time>2012-03-17T15:03:49Z</time>
      </trkpt>
      <trkpt lat="45.87634" lon="4.80447">
        <ele>272</ele>
        <time>2012-03-17T15:03:50Z</time>
      </trkpt>
      <trkpt lat="45.87633" lon="4.80446">
        <ele>272</ele>
        <time>2012-03-17T15:03:51Z</time>
      </trkpt>
      <trkpt lat="45.87628" lon="4.80442">
        <ele>272</ele>
        <time>2012-03-17T15:03:54Z</time>
      </trkpt>
      <trkpt lat="45.87623" lon="4.80439">
        <ele>272</ele>
        <time>2012-03-17T15:03:58Z</time>
      </trkpt>
      <trkpt lat="45.87615" lon="4.80433">
        <ele>273</ele>
        <time>2012-03-17T15:04:05Z</time>
      </trkpt>
      <trkpt lat="45.8761" lon="4.80431">
        <ele>273</ele>
        <time>2012-03-17T15:04:09Z</time>
      </trkpt>
      <trkpt lat="45.87607" lon="4.80429">
        <ele>274</ele>
        <time>2012-03-17T15:04:11Z</time>
      </trkpt>
      <trkpt lat="45.87601" lon="4.80426">
        <ele>274</ele>
        <time>2012-03-17T15:04:15Z</time>
      </trkpt>
      <trkpt lat="45.87598" lon="4.80425">
        <ele>275</ele>
        <time>2012-03-17T15:04:17Z</time>
      </trkpt>
      <trkpt lat="45.87586" lon="4.80424">
        <ele>276</ele>
        <time>2012-03-17T15:04:24Z</time>
      </trkpt>
      <trkpt lat="45.87574" lon="4.80425">
        <ele>279</ele>
        <time>2012-03-17T15:04:31Z</time>
      </trkpt>
      <trkpt lat="45.87565" lon="4.80424">
        <ele>280</ele>
        <time>2012-03-17T15:04:37Z</time>
      </trkpt>
      <trkpt lat="45.87563" lon="4.80425">
        <ele>280</ele>
        <time>2012-03-17T15:04:38Z</time>
      </trkpt>
      <trkpt lat="45.87549" lon="4.80426">
        <ele>281</ele>
        <time>2012-03-17T15:04:48Z</time>
      </trkpt>
      <trkpt lat="45.87537" lon="4.80426">
        <ele>282</ele>
        <time>2012-03-17T15:04:56Z</time>
      </trkpt>
      <trkpt lat="45.87532" lon="4.80427">
        <ele>283</ele>
        <time>2012-03-17T15:04:59Z</time>
      </trkpt>
      <trkpt lat="45.87529" lon="4.80424">
        <ele>283</ele>
        <time>2012-03-17T15:05:02Z</time>
      </trkpt>
      <trkpt lat="45.87528" lon="4.80423">
        <ele>283</ele>
        <time>2012-03-17T15:05:03Z</time>
      </trkpt>
      <trkpt lat="45.8752" lon="4.80425">
        <ele>284</ele>
        <time>2012-03-17T15:05:09Z</time>
      </trkpt>
      <trkpt lat="45.87509" lon="4.80424">
        <ele>285</ele>
        <time>2012-03-17T15:05:17Z</time>
      </trkpt>
      <trkpt lat="45.87502" lon="4.8042">
        <ele>286</ele>
        <time>2012-03-17T15:05:23Z</time>
      </trkpt>
      <trkpt lat="45.87497" lon="4.80418">
        <ele>288</ele>
        <time>2012-03-17T15:05:27Z</time>
      </trkpt>
      <trkpt lat="45.87496" lon="4.80417">
        <ele>288</ele>
        <time>2012-03-17T15:05:28Z</time>
      </trkpt>
      <trkpt lat="45.87495" lon="4.80416">
        <ele>289</ele>
        <time>2012-03-17T15:05:30Z</time>
      </trkpt>
      <trkpt lat="45.8749" lon="4.80415">
        <ele>290</ele>
        <time>2012-03-17T15:05:33Z</time>
      </trkpt>
      <trkpt lat="45.87489" lon="4.80414">
        <ele>290</ele>
        <time>2012-03-17T15:05:34Z</time>
      </trkpt>
      <trkpt lat="45.87484" lon="4.80408">
        <ele>292</ele>
        <time>2012-03-17T15:05:40Z</time>
      </trkpt>
      <trkpt lat="45.87479" lon="4.80404">
        <ele>293</ele>
        <time>2012-03-17T15:05:44Z</time>
      </trkpt>
      <trkpt lat="45.87476" lon="4.80404">
        <ele>293</ele>
        <time>2012-03-17T15:05:47Z</time>
      </trkpt>
      <trkpt lat="45.87474" lon="4.804">
        <ele>294</ele>
        <time>2012-03-17T15:05:50Z</time>
      </trkpt>
      <trkpt lat="45.87473" lon="4.80399">
        <ele>294</ele>
        <time>2012-03-17T15:05:51Z</time>
      </trkpt>
      <trkpt lat="45.87472" lon="4.80397">
        <ele>294</ele>
        <time>2012-03-17T15:05:52Z</time>
      </trkpt>
      <trkpt lat="45.87465" lon="4.80393">
        <ele>295</ele>
        <time>2012-03-17T15:05:58Z</time>
      </trkpt>
      <trkpt lat="45.87464" lon="4.80391">
        <ele>295</ele>
        <time>2012-03-17T15:05:59Z</time>
      </trkpt>
      <trkpt lat="45.87459" lon="4.80385">
        <ele>296</ele>
        <time>2012-03-17T15:06:05Z</time>
      </trkpt>
      <trkpt lat="45.87453" lon="4.8038">
        <ele>296</ele>
        <time>2012-03-17T15:06:10Z</time>
      </trkpt>
      <trkpt lat="45.87451" lon="4.80377">
        <ele>297</ele>
        <time>2012-03-17T15:06:13Z</time>
      </trkpt>
      <trkpt lat="45.87444" lon="4.80373">
        <ele>297</ele>
        <time>2012-03-17T15:06:19Z</time>
      </trkpt>
      <trkpt lat="45.87443" lon="4.8037">
        <ele>297</ele>
        <time>2012-03-17T15:06:21Z</time>
      </trkpt>
      <trkpt lat="45.87436" lon="4.80363">
        <ele>298</ele>
        <time>2012-03-17T15:06:27Z</time>
      </trkpt>
      <trkpt lat="45.87433" lon="4.8036">
        <ele>298</ele>
        <time>2012-03-17T15:06:30Z</time>
      </trkpt>
      <trkpt lat="45.87428" lon="4.80356">
        <ele>299</ele>
        <time>2012-03-17T15:06:34Z</time>
      </trkpt>
      <trkpt lat="45.87421" lon="4.8035">
        <ele>300</ele>
        <time>2012-03-17T15:06:40Z</time>
      </trkpt>
      <trkpt lat="45.87412" lon="4.80339">
        <ele>305</ele>
        <time>2012-03-17T15:06:49Z</time>
      </trkpt>
      <trkpt lat="45.87406" lon="4.80332">
        <ele>307</ele>
        <time>2012-03-17T15:06:55Z</time>
      </trkpt>
      <trkpt lat="45.87404" lon="4.80327">
        <ele>308</ele>
        <time>2012-03-17T15:06:58Z</time>
      </trkpt>
      <trkpt lat="45.87401" lon="4.80312">
        <ele>311</ele>
        <time>2012-03-17T15:07:07Z</time>
      </trkpt>
      <trkpt lat="45.87401" lon="4.8031">
        <ele>311</ele>
        <time>2012-03-17T15:07:08Z</time>
      </trkpt>
      <trkpt lat="45.87404" lon="4.80302">
        <ele>312</ele>
        <time>2012-03-17T15:07:13Z</time>
      </trkpt>
      <trkpt lat="45.87413" lon="4.80292">
        <ele>312</ele>
        <time>2012-03-17T15:07:21Z</time>
      </trkpt>
      <trkpt lat="45.87414" lon="4.80291">
        <ele>312</ele>
        <time>2012-03-17T15:07:22Z</time>
      </trkpt>
      <trkpt lat="45.87417" lon="4.80289">
        <ele>307</ele>
        <time>2012-03-17T15:07:24Z</time>
      </trkpt>
      <trkpt lat="45.8742" lon="4.80285">
        <ele>308</ele>
        <time>2012-03-17T15:07:27Z</time>
      </trkpt>
      <trkpt lat="45.87428" lon="4.80276">
        <ele>308</ele>
        <time>2012-03-17T15:07:35Z</time>
      </trkpt>
      <trkpt lat="45.87439" lon="4.80266">
        <ele>309</ele>
        <time>2012-03-17T15:07:43Z</time>
      </trkpt>
      <trkpt lat="45.87443" lon="4.8026">
        <ele>309</ele>
        <time>2012-03-17T15:07:47Z</time>
      </trkpt>
      <trkpt lat="45.87453" lon="4.8025">
        <ele>308</ele>
        <time>2012-03-17T15:07:55Z</time>
      </trkpt>
      <trkpt lat="45.87465" lon="4.80242">
        <ele>314</ele>
        <time>2012-03-17T15:08:04Z</time>
      </trkpt>
      <trkpt lat="45.87475" lon="4.80236">
        <ele>314</ele>
        <time>2012-03-17T15:08:11Z</time>
      </trkpt>
      <trkpt lat="45.87477" lon="4.80235">
        <ele>314</ele>
        <time>2012-03-17T15:08:12Z</time>
      </trkpt>
      <trkpt lat="45.87487" lon="4.80228">
        <ele>314</ele>
        <time>2012-03-17T15:08:20Z</time>
      </trkpt>
      <trkpt lat="45.87499" lon="4.80219">
        <ele>314</ele>
        <time>2012-03-17T15:08:29Z</time>
      </trkpt>
      <trkpt lat="45.87503" lon="4.80209">
        <ele>309</ele>
        <time>2012-03-17T15:08:34Z</time>
      </trkpt>
      <trkpt lat="45.87503" lon="4.80207">
        <ele>309</ele>
        <time>2012-03-17T15:08:35Z</time>
      </trkpt>
      <trkpt lat="45.87505" lon="4.80191">
        <ele>310</ele>
        <time>2012-03-17T15:08:42Z</time>
      </trkpt>
      <trkpt lat="45.87505" lon="4.80182">
        <ele>312</ele>
        <time>2012-03-17T15:08:47Z</time>
      </trkpt>
      <trkpt lat="45.87504" lon="4.8018">
        <ele>312</ele>
        <time>2012-03-17T15:08:48Z</time>
      </trkpt>
      <trkpt lat="45.87502" lon="4.80178">
        <ele>313</ele>
        <time>2012-03-17T15:08:50Z</time>
      </trkpt>
      <trkpt lat="45.875" lon="4.80179">
        <ele>313</ele>
        <time>2012-03-17T15:08:52Z</time>
      </trkpt>
      <trkpt lat="45.87498" lon="4.80186">
        <ele>316</ele>
        <time>2012-03-17T15:08:57Z</time>
      </trkpt>
      <trkpt lat="45.87498" lon="4.80189">
        <ele>316</ele>
        <time>2012-03-17T15:09:02Z</time>
      </trkpt>
      <trkpt lat="45.87496" lon="4.80191">
        <ele>316</ele>
        <time>2012-03-17T15:09:09Z</time>
      </trkpt>
      <trkpt lat="45.87495" lon="4.8019">
        <ele>316</ele>
        <time>2012-03-17T15:09:20Z</time>
      </trkpt>
      <trkpt lat="45.87494" lon="4.8019">
        <ele>316</ele>
        <time>2012-03-17T15:09:23Z</time>
      </trkpt>
      <trkpt lat="45.87494" lon="4.80194">
        <ele>316</ele>
        <time>2012-03-17T15:09:47Z</time>
      </trkpt>
      <trkpt lat="45.87492" lon="4.80198">
        <ele>316</ele>
        <time>2012-03-17T15:09:52Z</time>
      </trkpt>
      <trkpt lat="45.87491" lon="4.80199">
        <ele>316</ele>
        <time>2012-03-17T15:09:53Z</time>
      </trkpt>
      <trkpt lat="45.87488" lon="4.80202">
        <ele>316</ele>
        <time>2012-03-17T15:10:00Z</time>
      </trkpt>
      <trkpt lat="45.87491" lon="4.80198">
        <ele>316</ele>
        <time>2012-03-17T15:10:07Z</time>
      </trkpt>
      <trkpt lat="45.87493" lon="4.80195">
        <ele>316</ele>
        <time>2012-03-17T15:10:10Z</time>
      </trkpt>
      <trkpt lat="45.87494" lon="4.80192">
        <ele>316</ele>
        <time>2012-03-17T15:10:13Z</time>
      </trkpt>
      <trkpt lat="45.87495" lon="4.8019">
        <ele>316</ele>
        <time>2012-03-17T15:10:31Z</time>
      </trkpt>
      <trkpt lat="45.87497" lon="4.80184">
        <ele>316</ele>
        <time>2012-03-17T15:10:49Z</time>
      </trkpt>
      <trkpt lat="45.87501" lon="4.80175">
        <ele>314</ele>
        <time>2012-03-17T15:10:53Z</time>
      </trkpt>
      <trkpt lat="45.87502" lon="4.80168">
        <ele>316</ele>
        <time>2012-03-17T15:10:55Z</time>
      </trkpt>
      <trkpt lat="45.87503" lon="4.80151">
        <ele>313</ele>
        <time>2012-03-17T15:11:01Z</time>
      </trkpt>
      <trkpt lat="45.87495" lon="4.8013">
        <ele>320</ele>
        <time>2012-03-17T15:11:08Z</time>
      </trkpt>
      <trkpt lat="45.87494" lon="4.80127">
        <ele>320</ele>
        <time>2012-03-17T15:11:09Z</time>
      </trkpt>
      <trkpt lat="45.87485" lon="4.80112">
        <ele>321</ele>
        <time>2012-03-17T15:11:14Z</time>
      </trkpt>
      <trkpt lat="45.87472" lon="4.8009">
        <ele>321</ele>
        <time>2012-03-17T15:11:22Z</time>
      </trkpt>
      <trkpt lat="45.87471" lon="4.80087">
        <ele>321</ele>
        <time>2012-03-17T15:11:23Z</time>
      </trkpt>
      <trkpt lat="45.87461" lon="4.80065">
        <ele>325</ele>
        <time>2012-03-17T15:11:31Z</time>
      </trkpt>
      <trkpt lat="45.87457" lon="4.80044">
        <ele>326</ele>
        <time>2012-03-17T15:11:38Z</time>
      </trkpt>
      <trkpt lat="45.87456" lon="4.80038">
        <ele>327</ele>
        <time>2012-03-17T15:11:40Z</time>
      </trkpt>
      <trkpt lat="45.87453" lon="4.80023">
        <ele>327</ele>
        <time>2012-03-17T15:11:45Z</time>
      </trkpt>
      <trkpt lat="45.87453" lon="4.8002">
        <ele>327</ele>
        <time>2012-03-17T15:11:46Z</time>
      </trkpt>
      <trkpt lat="45.87453" lon="4.80009">
        <ele>328</ele>
        <time>2012-03-17T15:11:50Z</time>
      </trkpt>
      <trkpt lat="45.8745" lon="4.79999">
        <ele>331</ele>
        <time>2012-03-17T15:11:54Z</time>
      </trkpt>
      <trkpt lat="45.8745" lon="4.79992">
        <ele>331</ele>
        <time>2012-03-17T15:11:57Z</time>
      </trkpt>
      <trkpt lat="45.87449" lon="4.79986">
        <ele>331</ele>
        <time>2012-03-17T15:12:00Z</time>
      </trkpt>
      <trkpt lat="45.87449" lon="4.79984">
        <ele>331</ele>
        <time>2012-03-17T15:12:01Z</time>
      </trkpt>
      <trkpt lat="45.87449" lon="4.79982">
        <ele>331</ele>
        <time>2012-03-17T15:12:02Z</time>
      </trkpt>
      <trkpt lat="45.87448" lon="4.79966">
        <ele>331</ele>
        <time>2012-03-17T15:12:10Z</time>
      </trkpt>
      <trkpt lat="45.87444" lon="4.79956">
        <ele>331</ele>
        <time>2012-03-17T15:12:16Z</time>
      </trkpt>
      <trkpt lat="45.87438" lon="4.79945">
        <ele>332</ele>
        <time>2012-03-17T15:12:23Z</time>
      </trkpt>
      <trkpt lat="45.87436" lon="4.79941">
        <ele>333</ele>
        <time>2012-03-17T15:12:26Z</time>
      </trkpt>
      <trkpt lat="45.87433" lon="4.79938">
        <ele>333</ele>
        <time>2012-03-17T15:12:29Z</time>
      </trkpt>
      <trkpt lat="45.87426" lon="4.79928">
        <ele>335</ele>
        <time>2012-03-17T15:12:36Z</time>
      </trkpt>
      <trkpt lat="45.8742" lon="4.79919">
        <ele>337</ele>
        <time>2012-03-17T15:12:43Z</time>
      </trkpt>
      <trkpt lat="45.87415" lon="4.7991">
        <ele>338</ele>
        <time>2012-03-17T15:12:49Z</time>
      </trkpt>
      <trkpt lat="45.87414" lon="4.79909">
        <ele>338</ele>
        <time>2012-03-17T15:12:50Z</time>
      </trkpt>
      <trkpt lat="45.87411" lon="4.79903">
        <ele>338</ele>
        <time>2012-03-17T15:12:54Z</time>
      </trkpt>
      <trkpt lat="45.87408" lon="4.79899">
        <ele>339</ele>
        <time>2012-03-17T15:12:57Z</time>
      </trkpt>
      <trkpt lat="45.87406" lon="4.79896">
        <ele>339</ele>
        <time>2012-03-17T15:12:59Z</time>
      </trkpt>
      <trkpt lat="45.87401" lon="4.7989">
        <ele>339</ele>
        <time>2012-03-17T15:13:04Z</time>
      </trkpt>
      <trkpt lat="45.87395" lon="4.7988">
        <ele>339</ele>
        <time>2012-03-17T15:13:10Z</time>
      </trkpt>
      <trkpt lat="45.87392" lon="4.79877">
        <ele>339</ele>
        <time>2012-03-17T15:13:12Z</time>
      </trkpt>
      <trkpt lat="45.87386" lon="4.79873">
        <ele>339</ele>
        <time>2012-03-17T15:13:16Z</time>
      </trkpt>
      <trkpt lat="45.87383" lon="4.79871">
        <ele>339</ele>
        <time>2012-03-17T15:13:18Z</time>
      </trkpt>
      <trkpt lat="45.87375" lon="4.79869">
        <ele>339</ele>
        <time>2012-03-17T15:13:23Z</time>
      </trkpt>
      <trkpt lat="45.87365" lon="4.79864">
        <ele>340</ele>
        <time>2012-03-17T15:13:29Z</time>
      </trkpt>
      <trkpt lat="45.87354" lon="4.79862">
        <ele>341</ele>
        <time>2012-03-17T15:13:36Z</time>
      </trkpt>
      <trkpt lat="45.87353" lon="4.79861">
        <ele>341</ele>
        <time>2012-03-17T15:13:37Z</time>
      </trkpt>
      <trkpt lat="45.87348" lon="4.7986">
        <ele>341</ele>
        <time>2012-03-17T15:13:40Z</time>
      </trkpt>
      <trkpt lat="45.87342" lon="4.79861">
        <ele>341</ele>
        <time>2012-03-17T15:13:44Z</time>
      </trkpt>
      <trkpt lat="45.87334" lon="4.79857">
        <ele>341</ele>
        <time>2012-03-17T15:13:49Z</time>
      </trkpt>
      <trkpt lat="45.87323" lon="4.79858">
        <ele>347</ele>
        <time>2012-03-17T15:13:57Z</time>
      </trkpt>
      <trkpt lat="45.87315" lon="4.79853">
        <ele>348</ele>
        <time>2012-03-17T15:14:03Z</time>
      </trkpt>
      <trkpt lat="45.87314" lon="4.79852">
        <ele>348</ele>
        <time>2012-03-17T15:14:04Z</time>
      </trkpt>
      <trkpt lat="45.87307" lon="4.79848">
        <ele>348</ele>
        <time>2012-03-17T15:14:08Z</time>
      </trkpt>
      <trkpt lat="45.87298" lon="4.79831">
        <ele>348</ele>
        <time>2012-03-17T15:14:13Z</time>
      </trkpt>
      <trkpt lat="45.87291" lon="4.79812">
        <ele>348</ele>
        <time>2012-03-17T15:14:16Z</time>
      </trkpt>
      <trkpt lat="45.87285" lon="4.79792">
        <ele>348</ele>
        <time>2012-03-17T15:14:19Z</time>
      </trkpt>
      <trkpt lat="45.87274" lon="4.79761">
        <ele>349</ele>
        <time>2012-03-17T15:14:24Z</time>
      </trkpt>
      <trkpt lat="45.8727" lon="4.79751">
        <ele>350</ele>
        <time>2012-03-17T15:14:26Z</time>
      </trkpt>
      <trkpt lat="45.87261" lon="4.79712">
        <ele>346</ele>
        <time>2012-03-17T15:14:34Z</time>
      </trkpt>
      <trkpt lat="45.87258" lon="4.79695">
        <ele>346</ele>
        <time>2012-03-17T15:14:37Z</time>
      </trkpt>
      <trkpt lat="45.87251" lon="4.79672">
        <ele>350</ele>
        <time>2012-03-17T15:14:41Z</time>
      </trkpt>
      <trkpt lat="45.87248" lon="4.7966">
        <ele>355</ele>
        <time>2012-03-17T15:14:43Z</time>
      </trkpt>
      <trkpt lat="45.87245" lon="4.79648">
        <ele>358</ele>
        <time>2012-03-17T15:14:45Z</time>
      </trkpt>
      <trkpt lat="45.87242" lon="4.79631">
        <ele>360</ele>
        <time>2012-03-17T15:14:48Z</time>
      </trkpt>
      <trkpt lat="45.87239" lon="4.79608">
        <ele>359</ele>
        <time>2012-03-17T15:14:52Z</time>
      </trkpt>
      <trkpt lat="45.87239" lon="4.79591">
        <ele>357</ele>
        <time>2012-03-17T15:14:55Z</time>
      </trkpt>
      <trkpt lat="45.87238" lon="4.79555">
        <ele>359</ele>
        <time>2012-03-17T15:15:02Z</time>
      </trkpt>
      <trkpt lat="45.87237" lon="4.79533">
        <ele>360</ele>
        <time>2012-03-17T15:15:08Z</time>
      </trkpt>
      <trkpt lat="45.87236" lon="4.7951">
        <ele>358</ele>
        <time>2012-03-17T15:15:15Z</time>
      </trkpt>
      <trkpt lat="45.87236" lon="4.79501">
        <ele>358</ele>
        <time>2012-03-17T15:15:18Z</time>
      </trkpt>
      <trkpt lat="45.87235" lon="4.79488">
        <ele>358</ele>
        <time>2012-03-17T15:15:22Z</time>
      </trkpt>
      <trkpt lat="45.87237" lon="4.79471">
        <ele>359</ele>
        <time>2012-03-17T15:15:28Z</time>
      </trkpt>
      <trkpt lat="45.87237" lon="4.79457">
        <ele>359</ele>
        <time>2012-03-17T15:15:33Z</time>
      </trkpt>
      <trkpt lat="45.87237" lon="4.7945">
        <ele>359</ele>
        <time>2012-03-17T15:15:35Z</time>
      </trkpt>
      <trkpt lat="45.87234" lon="4.79436">
        <ele>358</ele>
        <time>2012-03-17T15:15:39Z</time>
      </trkpt>
      <trkpt lat="45.87232" lon="4.79414">
        <ele>356</ele>
        <time>2012-03-17T15:15:43Z</time>
      </trkpt>
      <trkpt lat="45.8723" lon="4.79399">
        <ele>356</ele>
        <time>2012-03-17T15:15:45Z</time>
      </trkpt>
      <trkpt lat="45.87229" lon="4.79378">
        <ele>355</ele>
        <time>2012-03-17T15:15:48Z</time>
      </trkpt>
      <trkpt lat="45.87225" lon="4.79347">
        <ele>354</ele>
        <time>2012-03-17T15:15:54Z</time>
      </trkpt>
      <trkpt lat="45.87223" lon="4.79343">
        <ele>354</ele>
        <time>2012-03-17T15:15:55Z</time>
      </trkpt>
      <trkpt lat="45.87212" lon="4.79337">
        <ele>355</ele>
        <time>2012-03-17T15:15:58Z</time>
      </trkpt>
      <trkpt lat="45.87198" lon="4.79338">
        <ele>356</ele>
        <time>2012-03-17T15:16:01Z</time>
      </trkpt>
      <trkpt lat="45.87189" lon="4.79339">
        <ele>356</ele>
        <time>2012-03-17T15:16:03Z</time>
      </trkpt>
      <trkpt lat="45.87184" lon="4.79339">
        <ele>357</ele>
        <time>2012-03-17T15:16:04Z</time>
      </trkpt>
      <trkpt lat="45.87173" lon="4.79337">
        <ele>357</ele>
        <time>2012-03-17T15:16:07Z</time>
      </trkpt>
      <trkpt lat="45.8717" lon="4.79333">
        <ele>356</ele>
        <time>2012-03-17T15:16:08Z</time>
      </trkpt>
      <trkpt lat="45.87164" lon="4.79317">
        <ele>360</ele>
        <time>2012-03-17T15:16:11Z</time>
      </trkpt>
      <trkpt lat="45.87163" lon="4.79308">
        <ele>361</ele>
        <time>2012-03-17T15:16:13Z</time>
      </trkpt>
      <trkpt lat="45.87163" lon="4.79303">
        <ele>361</ele>
        <time>2012-03-17T15:16:14Z</time>
      </trkpt>
      <trkpt lat="45.87163" lon="4.79288">
        <ele>361</ele>
        <time>2012-03-17T15:16:18Z</time>
      </trkpt>
      <trkpt lat="45.87163" lon="4.79284">
        <ele>361</ele>
        <time>2012-03-17T15:16:19Z</time>
      </trkpt>
      <trkpt lat="45.87159" lon="4.79276">
        <ele>361</ele>
        <time>2012-03-17T15:16:22Z</time>
      </trkpt>
      <trkpt lat="45.87154" lon="4.79263">
        <ele>359</ele>
        <time>2012-03-17T15:16:27Z</time>
      </trkpt>
      <trkpt lat="45.8715" lon="4.79254">
        <ele>359</ele>
        <time>2012-03-17T15:16:31Z</time>
      </trkpt>
      <trkpt lat="45.87147" lon="4.79248">
        <ele>357</ele>
        <time>2012-03-17T15:16:34Z</time>
      </trkpt>
      <trkpt lat="45.87141" lon="4.79234">
        <ele>357</ele>
        <time>2012-03-17T15:16:42Z</time>
      </trkpt>
      <trkpt lat="45.87136" lon="4.79225">
        <ele>358</ele>
        <time>2012-03-17T15:16:48Z</time>
      </trkpt>
      <trkpt lat="45.87127" lon="4.79212">
        <ele>358</ele>
        <time>2012-03-17T15:16:56Z</time>
      </trkpt>
      <trkpt lat="45.87123" lon="4.7921">
        <ele>358</ele>
        <time>2012-03-17T15:16:59Z</time>
      </trkpt>
      <trkpt lat="45.8712" lon="4.7921">
        <ele>359</ele>
        <time>2012-03-17T15:17:01Z</time>
      </trkpt>
      <trkpt lat="45.87106" lon="4.79212">
        <ele>360</ele>
        <time>2012-03-17T15:17:09Z</time>
      </trkpt>
      <trkpt lat="45.87095" lon="4.79214">
        <ele>361</ele>
        <time>2012-03-17T15:17:15Z</time>
      </trkpt>
      <trkpt lat="45.87091" lon="4.79215">
        <ele>361</ele>
        <time>2012-03-17T15:17:17Z</time>
      </trkpt>
      <trkpt lat="45.87082" lon="4.79218">
        <ele>369</ele>
        <time>2012-03-17T15:17:22Z</time>
      </trkpt>
      <trkpt lat="45.87068" lon="4.79222">
        <ele>370</ele>
        <time>2012-03-17T15:17:30Z</time>
      </trkpt>
      <trkpt lat="45.87055" lon="4.79222">
        <ele>371</ele>
        <time>2012-03-17T15:17:36Z</time>
      </trkpt>
      <trkpt lat="45.87054" lon="4.79222">
        <ele>371</ele>
        <time>2012-03-17T15:17:37Z</time>
      </trkpt>
      <trkpt lat="45.87046" lon="4.79218">
        <ele>371</ele>
        <time>2012-03-17T15:17:42Z</time>
      </trkpt>
      <trkpt lat="45.87034" lon="4.7921">
        <ele>371</ele>
        <time>2012-03-17T15:17:48Z</time>
      </trkpt>
      <trkpt lat="45.87022" lon="4.79194">
        <ele>370</ele>
        <time>2012-03-17T15:17:53Z</time>
      </trkpt>
      <trkpt lat="45.87012" lon="4.79173">
        <ele>368</ele>
        <time>2012-03-17T15:17:57Z</time>
      </trkpt>
      <trkpt lat="45.87001" lon="4.79149">
        <ele>361</ele>
        <time>2012-03-17T15:18:02Z</time>
      </trkpt>
      <trkpt lat="45.86999" lon="4.79144">
        <ele>366</ele>
        <time>2012-03-17T15:18:03Z</time>
      </trkpt>
      <trkpt lat="45.8699" lon="4.79128">
        <ele>366</ele>
        <time>2012-03-17T15:18:06Z</time>
      </trkpt>
      <trkpt lat="45.86981" lon="4.79115">
        <ele>365</ele>
        <time>2012-03-17T15:18:08Z</time>
      </trkpt>
      <trkpt lat="45.86976" lon="4.79109">
        <ele>365</ele>
        <time>2012-03-17T15:18:09Z</time>
      </trkpt>
      <trkpt lat="45.86964" lon="4.79088">
        <ele>365</ele>
        <time>2012-03-17T15:18:12Z</time>
      </trkpt>
      <trkpt lat="45.8696" lon="4.79082">
        <ele>363</ele>
        <time>2012-03-17T15:18:13Z</time>
      </trkpt>
      <trkpt lat="45.86955" lon="4.79073">
        <ele>364</ele>
        <time>2012-03-17T15:18:15Z</time>
      </trkpt>
      <trkpt lat="45.86956" lon="4.79072">
        <ele>364</ele>
        <time>2012-03-17T15:18:17Z</time>
      </trkpt>
      <trkpt lat="45.86957" lon="4.79071">
        <ele>364</ele>
        <time>2012-03-17T15:18:18Z</time>
      </trkpt>
      <trkpt lat="45.86959" lon="4.79069">
        <ele>363</ele>
        <time>2012-03-17T15:18:19Z</time>
      </trkpt>
      <trkpt lat="45.86962" lon="4.79065">
        <ele>363</ele>
        <time>2012-03-17T15:18:21Z</time>
      </trkpt>
      <trkpt lat="45.86965" lon="4.7906">
        <ele>363</ele>
        <time>2012-03-17T15:18:23Z</time>
      </trkpt>
      <trkpt lat="45.86971" lon="4.79051">
        <ele>362</ele>
        <time>2012-03-17T15:18:26Z</time>
      </trkpt>
      <trkpt lat="45.86975" lon="4.79044">
        <ele>362</ele>
        <time>2012-03-17T15:18:28Z</time>
      </trkpt>
      <trkpt lat="45.8698" lon="4.79024">
        <ele>361</ele>
        <time>2012-03-17T15:18:33Z</time>
      </trkpt>
      <trkpt lat="45.86981" lon="4.79021">
        <ele>361</ele>
        <time>2012-03-17T15:18:34Z</time>
      </trkpt>
      <trkpt lat="45.8698" lon="4.79001">
        <ele>361</ele>
        <time>2012-03-17T15:18:39Z</time>
      </trkpt>
      <trkpt lat="45.86978" lon="4.7898">
        <ele>364</ele>
        <time>2012-03-17T15:18:45Z</time>
      </trkpt>
      <trkpt lat="45.86977" lon="4.78969">
        <ele>365</ele>
        <time>2012-03-17T15:18:48Z</time>
      </trkpt>
      <trkpt lat="45.86976" lon="4.78961">
        <ele>365</ele>
        <time>2012-03-17T15:18:50Z</time>
      </trkpt>
      <trkpt lat="45.8697" lon="4.78945">
        <ele>366</ele>
        <time>2012-03-17T15:18:54Z</time>
      </trkpt>
      <trkpt lat="45.86968" lon="4.78926">
        <ele>367</ele>
        <time>2012-03-17T15:18:59Z</time>
      </trkpt>
      <trkpt lat="45.86967" lon="4.78919">
        <ele>367</ele>
        <time>2012-03-17T15:19:01Z</time>
      </trkpt>
      <trkpt lat="45.86969" lon="4.78909">
        <ele>370</ele>
        <time>2012-03-17T15:19:04Z</time>
      </trkpt>
      <trkpt lat="45.86976" lon="4.78893">
        <ele>370</ele>
        <time>2012-03-17T15:19:09Z</time>
      </trkpt>
      <trkpt lat="45.8698" lon="4.78889">
        <ele>370</ele>
        <time>2012-03-17T15:19:11Z</time>
      </trkpt>
      <trkpt lat="45.86983" lon="4.78886">
        <ele>370</ele>
        <time>2012-03-17T15:19:13Z</time>
      </trkpt>
      <trkpt lat="45.86989" lon="4.78879">
        <ele>370</ele>
        <time>2012-03-17T15:19:16Z</time>
      </trkpt>
      <trkpt lat="45.86992" lon="4.78877">
        <ele>370</ele>
        <time>2012-03-17T15:19:17Z</time>
      </trkpt>
      <trkpt lat="45.87003" lon="4.7887">
        <ele>362</ele>
        <time>2012-03-17T15:19:22Z</time>
      </trkpt>
      <trkpt lat="45.87014" lon="4.78862">
        <ele>363</ele>
        <time>2012-03-17T15:19:26Z</time>
      </trkpt>
      <trkpt lat="45.87019" lon="4.78851">
        <ele>364</ele>
        <time>2012-03-17T15:19:30Z</time>
      </trkpt>
      <trkpt lat="45.8702" lon="4.78849">
        <ele>364</ele>
        <time>2012-03-17T15:19:31Z</time>
      </trkpt>
      <trkpt lat="45.87025" lon="4.78837">
        <ele>364</ele>
        <time>2012-03-17T15:19:37Z</time>
      </trkpt>
      <trkpt lat="45.87025" lon="4.78828">
        <ele>369</ele>
        <time>2012-03-17T15:19:44Z</time>
      </trkpt>
      <trkpt lat="45.87024" lon="4.78821">
        <ele>370</ele>
        <time>2012-03-17T15:19:51Z</time>
      </trkpt>
      <trkpt lat="45.87025" lon="4.78816">
        <ele>369</ele>
        <time>2012-03-17T15:20:00Z</time>
      </trkpt>
      <trkpt lat="45.87026" lon="4.78815">
        <ele>369</ele>
        <time>2012-03-17T15:20:02Z</time>
      </trkpt>
      <trkpt lat="45.87027" lon="4.78811">
        <ele>369</ele>
        <time>2012-03-17T15:20:09Z</time>
      </trkpt>
      <trkpt lat="45.87026" lon="4.78808">
        <ele>370</ele>
        <time>2012-03-17T15:20:17Z</time>
      </trkpt>
      <trkpt lat="45.87024" lon="4.78803">
        <ele>370</ele>
        <time>2012-03-17T15:20:24Z</time>
      </trkpt>
      <trkpt lat="45.87024" lon="4.78803">
        <ele>370</ele>
        <time>2012-03-17T15:20:25Z</time>
      </trkpt>
      <trkpt lat="45.87022" lon="4.788">
        <ele>370</ele>
        <time>2012-03-17T15:20:29Z</time>
      </trkpt>
      <trkpt lat="45.8702" lon="4.78796">
        <ele>370</ele>
        <time>2012-03-17T15:20:35Z</time>
      </trkpt>
      <trkpt lat="45.87017" lon="4.7879">
        <ele>370</ele>
        <time>2012-03-17T15:20:43Z</time>
      </trkpt>
      <trkpt lat="45.8701" lon="4.7878">
        <ele>371</ele>
        <time>2012-03-17T15:22:23Z</time>
      </trkpt>
      <trkpt lat="45.87011" lon="4.78776">
        <ele>371</ele>
        <time>2012-03-17T15:22:25Z</time>
      </trkpt>
      <trkpt lat="45.87015" lon="4.78769">
        <ele>372</ele>
        <time>2012-03-17T15:22:29Z</time>
      </trkpt>
      <trkpt lat="45.87016" lon="4.78765">
        <ele>372</ele>
        <time>2012-03-17T15:22:31Z</time>
      </trkpt>
      <trkpt lat="45.87017" lon="4.78761">
        <ele>372</ele>
        <time>2012-03-17T15:22:33Z</time>
      </trkpt>
      <trkpt lat="45.87017" lon="4.78755">
        <ele>372</ele>
        <time>2012-03-17T15:22:35Z</time>
      </trkpt>
      <trkpt lat="45.87019" lon="4.78742">
        <ele>370</ele>
        <time>2012-03-17T15:22:39Z</time>
      </trkpt>
      <trkpt lat="45.87016" lon="4.78737">
        <ele>370</ele>
        <time>2012-03-17T15:22:43Z</time>
      </trkpt>
      <trkpt lat="45.87018" lon="4.7873">
        <ele>369</ele>
        <time>2012-03-17T15:22:51Z</time>
      </trkpt>
      <trkpt lat="45.87008" lon="4.78731">
        <ele>370</ele>
        <time>2012-03-17T15:23:55Z</time>
      </trkpt>
      <trkpt lat="45.87006" lon="4.7873">
        <ele>370</ele>
        <time>2012-03-17T15:23:57Z</time>
      </trkpt>
      <trkpt lat="45.86996" lon="4.78731">
        <ele>373</ele>
        <time>2012-03-17T15:24:02Z</time>
      </trkpt>
      <trkpt lat="45.86985" lon="4.78733">
        <ele>373</ele>
        <time>2012-03-17T15:24:08Z</time>
      </trkpt>
      <trkpt lat="45.86976" lon="4.78737">
        <ele>373</ele>
        <time>2012-03-17T15:24:13Z</time>
      </trkpt>
      <trkpt lat="45.86973" lon="4.78739">
        <ele>373</ele>
        <time>2012-03-17T15:24:15Z</time>
      </trkpt>
      <trkpt lat="45.86968" lon="4.7874">
        <ele>373</ele>
        <time>2012-03-17T15:24:18Z</time>
      </trkpt>
      <trkpt lat="45.86967" lon="4.7874">
        <ele>373</ele>
        <time>2012-03-17T15:24:19Z</time>
      </trkpt>
      <trkpt lat="45.86958" lon="4.78742">
        <ele>374</ele>
        <time>2012-03-17T15:24:26Z</time>
      </trkpt>
      <trkpt lat="45.86949" lon="4.78746">
        <ele>375</ele>
        <time>2012-03-17T15:24:33Z</time>
      </trkpt>
      <trkpt lat="45.86941" lon="4.78752">
        <ele>379</ele>
        <time>2012-03-17T15:24:39Z</time>
      </trkpt>
      <trkpt lat="45.86937" lon="4.78753">
        <ele>379</ele>
        <time>2012-03-17T15:24:41Z</time>
      </trkpt>
      <trkpt lat="45.86928" lon="4.78759">
        <ele>380</ele>
        <time>2012-03-17T15:24:47Z</time>
      </trkpt>
      <trkpt lat="45.86916" lon="4.78764">
        <ele>384</ele>
        <time>2012-03-17T15:24:55Z</time>
      </trkpt>
      <trkpt lat="45.86908" lon="4.78767">
        <ele>384</ele>
        <time>2012-03-17T15:25:01Z</time>
      </trkpt>
      <trkpt lat="45.86903" lon="4.78767">
        <ele>384</ele>
        <time>2012-03-17T15:25:04Z</time>
      </trkpt>
      <trkpt lat="45.86902" lon="4.78768">
        <ele>384</ele>
        <time>2012-03-17T15:25:05Z</time>
      </trkpt>
      <trkpt lat="45.86899" lon="4.78769">
        <ele>385</ele>
        <time>2012-03-17T15:25:07Z</time>
      </trkpt>
      <trkpt lat="45.86895" lon="4.78771">
        <ele>385</ele>
        <time>2012-03-17T15:25:10Z</time>
      </trkpt>
      <trkpt lat="45.86891" lon="4.78774">
        <ele>385</ele>
        <time>2012-03-17T15:25:14Z</time>
      </trkpt>
      <trkpt lat="45.86884" lon="4.78777">
        <ele>385</ele>
        <time>2012-03-17T15:25:20Z</time>
      </trkpt>
      <trkpt lat="45.86879" lon="4.78781">
        <ele>386</ele>
        <time>2012-03-17T15:25:26Z</time>
      </trkpt>
      <trkpt lat="45.86878" lon="4.78782">
        <ele>386</ele>
        <time>2012-03-17T15:25:27Z</time>
      </trkpt>
      <trkpt lat="45.8687" lon="4.78789">
        <ele>386</ele>
        <time>2012-03-17T15:25:34Z</time>
      </trkpt>
      <trkpt lat="45.86862" lon="4.78796">
        <ele>387</ele>
        <time>2012-03-17T15:25:41Z</time>
      </trkpt>
      <trkpt lat="45.86853" lon="4.78803">
        <ele>388</ele>
        <time>2012-03-17T15:25:49Z</time>
      </trkpt>
      <trkpt lat="45.86842" lon="4.78808">
        <ele>389</ele>
        <time>2012-03-17T15:25:56Z</time>
      </trkpt>
      <trkpt lat="45.86838" lon="4.78811">
        <ele>390</ele>
        <time>2012-03-17T15:25:59Z</time>
      </trkpt>
      <trkpt lat="45.8683" lon="4.78815">
        <ele>394</ele>
        <time>2012-03-17T15:26:05Z</time>
      </trkpt>
      <trkpt lat="45.86816" lon="4.78821">
        <ele>395</ele>
        <time>2012-03-17T15:26:14Z</time>
      </trkpt>
      <trkpt lat="45.86804" lon="4.78823">
        <ele>395</ele>
        <time>2012-03-17T15:26:23Z</time>
      </trkpt>
      <trkpt lat="45.86802" lon="4.78823">
        <ele>395</ele>
        <time>2012-03-17T15:26:24Z</time>
      </trkpt>
      <trkpt lat="45.86796" lon="4.78824">
        <ele>396</ele>
        <time>2012-03-17T15:26:29Z</time>
      </trkpt>
      <trkpt lat="45.86788" lon="4.78826">
        <ele>396</ele>
        <time>2012-03-17T15:26:35Z</time>
      </trkpt>
      <trkpt lat="45.86778" lon="4.78829">
        <ele>398</ele>
        <time>2012-03-17T15:26:43Z</time>
      </trkpt>
      <trkpt lat="45.86769" lon="4.78828">
        <ele>399</ele>
        <time>2012-03-17T15:26:49Z</time>
      </trkpt>
      <trkpt lat="45.86767" lon="4.78827">
        <ele>400</ele>
        <time>2012-03-17T15:26:51Z</time>
      </trkpt>
      <trkpt lat="45.86762" lon="4.78828">
        <ele>401</ele>
        <time>2012-03-17T15:26:56Z</time>
      </trkpt>
      <trkpt lat="45.86761" lon="4.78836">
        <ele>405</ele>
        <time>2012-03-17T15:27:02Z</time>
      </trkpt>
      <trkpt lat="45.86761" lon="4.78838">
        <ele>405</ele>
        <time>2012-03-17T15:27:04Z</time>
      </trkpt>
      <trkpt lat="45.86764" lon="4.78846">
        <ele>405</ele>
        <time>2012-03-17T15:27:09Z</time>
      </trkpt>
      <trkpt lat="45.86769" lon="4.78862">
        <ele>405</ele>
        <time>2012-03-17T15:27:17Z</time>
      </trkpt>
      <trkpt lat="45.86769" lon="4.78865">
        <ele>405</ele>
        <time>2012-03-17T15:27:18Z</time>
      </trkpt>
      <trkpt lat="45.86769" lon="4.78867">
        <ele>405</ele>
        <time>2012-03-17T15:27:19Z</time>
      </trkpt>
      <trkpt lat="45.86768" lon="4.78876">
        <ele>405</ele>
        <time>2012-03-17T15:27:23Z</time>
      </trkpt>
      <trkpt lat="45.86765" lon="4.78888">
        <ele>406</ele>
        <time>2012-03-17T15:27:30Z</time>
      </trkpt>
      <trkpt lat="45.86765" lon="4.78894">
        <ele>407</ele>
        <time>2012-03-17T15:27:34Z</time>
      </trkpt>
      <trkpt lat="45.86765" lon="4.78896">
        <ele>407</ele>
        <time>2012-03-17T15:27:37Z</time>
      </trkpt>
      <trkpt lat="45.86764" lon="4.78903">
        <ele>408</ele>
        <time>2012-03-17T15:29:00Z</time>
      </trkpt>
      <trkpt lat="45.86763" lon="4.789">
        <ele>408</ele>
        <time>2012-03-17T15:29:05Z</time>
      </trkpt>
      <trkpt lat="45.86763" lon="4.78895">
        <ele>407</ele>
        <time>2012-03-17T15:29:10Z</time>
      </trkpt>
      <trkpt lat="45.86762" lon="4.78892">
        <ele>407</ele>
        <time>2012-03-17T15:29:12Z</time>
      </trkpt>
      <trkpt lat="45.86753" lon="4.78879">
        <ele>406</ele>
        <time>2012-03-17T15:29:18Z</time>
      </trkpt>
      <trkpt lat="45.86744" lon="4.78868">
        <ele>414</ele>
        <time>2012-03-17T15:29:22Z</time>
      </trkpt>
      <trkpt lat="45.86738" lon="4.78862">
        <ele>413</ele>
        <time>2012-03-17T15:29:24Z</time>
      </trkpt>
      <trkpt lat="45.8673" lon="4.78855">
        <ele>413</ele>
        <time>2012-03-17T15:29:27Z</time>
      </trkpt>
      <trkpt lat="45.8671" lon="4.78844">
        <ele>414</ele>
        <time>2012-03-17T15:29:33Z</time>
      </trkpt>
      <trkpt lat="45.86703" lon="4.78843">
        <ele>414</ele>
        <time>2012-03-17T15:29:35Z</time>
      </trkpt>
      <trkpt lat="45.86693" lon="4.78842">
        <ele>414</ele>
        <time>2012-03-17T15:29:38Z</time>
      </trkpt>
      <trkpt lat="45.86676" lon="4.78839">
        <ele>414</ele>
        <time>2012-03-17T15:29:44Z</time>
      </trkpt>
      <trkpt lat="45.86666" lon="4.78836">
        <ele>413</ele>
        <time>2012-03-17T15:29:47Z</time>
      </trkpt>
      <trkpt lat="45.86658" lon="4.78834">
        <ele>416</ele>
        <time>2012-03-17T15:29:49Z</time>
      </trkpt>
      <trkpt lat="45.86634" lon="4.78831">
        <ele>411</ele>
        <time>2012-03-17T15:29:55Z</time>
      </trkpt>
      <trkpt lat="45.86628" lon="4.78831">
        <ele>412</ele>
        <time>2012-03-17T15:29:57Z</time>
      </trkpt>
      <trkpt lat="45.86614" lon="4.78827">
        <ele>413</ele>
        <time>2012-03-17T15:30:01Z</time>
      </trkpt>
      <trkpt lat="45.86604" lon="4.78816">
        <ele>414</ele>
        <time>2012-03-17T15:30:04Z</time>
      </trkpt>
      <trkpt lat="45.86599" lon="4.7881">
        <ele>414</ele>
        <time>2012-03-17T15:30:05Z</time>
      </trkpt>
      <trkpt lat="45.86594" lon="4.78804">
        <ele>413</ele>
        <time>2012-03-17T15:30:06Z</time>
      </trkpt>
      <trkpt lat="45.86581" lon="4.78789">
        <ele>424</ele>
        <time>2012-03-17T15:30:09Z</time>
      </trkpt>
      <trkpt lat="45.86564" lon="4.78767">
        <ele>423</ele>
        <time>2012-03-17T15:30:14Z</time>
      </trkpt>
      <trkpt lat="45.86552" lon="4.78744">
        <ele>420</ele>
        <time>2012-03-17T15:30:20Z</time>
      </trkpt>
      <trkpt lat="45.86551" lon="4.7874">
        <ele>421</ele>
        <time>2012-03-17T15:30:21Z</time>
      </trkpt>
      <trkpt lat="45.86547" lon="4.78728">
        <ele>421</ele>
        <time>2012-03-17T15:30:25Z</time>
      </trkpt>
      <trkpt lat="45.86543" lon="4.7872">
        <ele>422</ele>
        <time>2012-03-17T15:30:29Z</time>
      </trkpt>
      <trkpt lat="45.86541" lon="4.78716">
        <ele>422</ele>
        <time>2012-03-17T15:30:31Z</time>
      </trkpt>
      <trkpt lat="45.86536" lon="4.78707">
        <ele>422</ele>
        <time>2012-03-17T15:30:36Z</time>
      </trkpt>
      <trkpt lat="45.86527" lon="4.78696">
        <ele>423</ele>
        <time>2012-03-17T15:30:43Z</time>
      </trkpt>
      <trkpt lat="45.8652" lon="4.78684">
        <ele>424</ele>
        <time>2012-03-17T15:30:50Z</time>
      </trkpt>
      <trkpt lat="45.86518" lon="4.78681">
        <ele>425</ele>
        <time>2012-03-17T15:30:52Z</time>
      </trkpt>
      <trkpt lat="45.86513" lon="4.78674">
        <ele>426</ele>
        <time>2012-03-17T15:30:58Z</time>
      </trkpt>
      <trkpt lat="45.86507" lon="4.78665">
        <ele>426</ele>
        <time>2012-03-17T15:31:06Z</time>
      </trkpt>
      <trkpt lat="45.86504" lon="4.78659">
        <ele>425</ele>
        <time>2012-03-17T15:31:12Z</time>
      </trkpt>
      <trkpt lat="45.86498" lon="4.78651">
        <ele>429</ele>
        <time>2012-03-17T15:31:19Z</time>
      </trkpt>
      <trkpt lat="45.86492" lon="4.78645">
        <ele>429</ele>
        <time>2012-03-17T15:31:25Z</time>
      </trkpt>
      <trkpt lat="45.86491" lon="4.78645">
        <ele>429</ele>
        <time>2012-03-17T15:31:26Z</time>
      </trkpt>
      <trkpt lat="45.86481" lon="4.78642">
        <ele>429</ele>
        <time>2012-03-17T15:31:33Z</time>
      </trkpt>
      <trkpt lat="45.86471" lon="4.7864">
        <ele>429</ele>
        <time>2012-03-17T15:31:40Z</time>
      </trkpt>
      <trkpt lat="45.86466" lon="4.7864">
        <ele>430</ele>
        <time>2012-03-17T15:31:44Z</time>
      </trkpt>
      <trkpt lat="45.86461" lon="4.78641">
        <ele>430</ele>
        <time>2012-03-17T15:31:48Z</time>
      </trkpt>
      <trkpt lat="45.86455" lon="4.78641">
        <ele>431</ele>
        <time>2012-03-17T15:31:53Z</time>
      </trkpt>
      <trkpt lat="45.86451" lon="4.7864">
        <ele>431</ele>
        <time>2012-03-17T15:31:56Z</time>
      </trkpt>
      <trkpt lat="45.86442" lon="4.78638">
        <ele>432</ele>
        <time>2012-03-17T15:32:03Z</time>
      </trkpt>
      <trkpt lat="45.86433" lon="4.78636">
        <ele>432</ele>
        <time>2012-03-17T15:32:09Z</time>
      </trkpt>
      <trkpt lat="45.86419" lon="4.78638">
        <ele>434</ele>
        <time>2012-03-17T15:32:15Z</time>
      </trkpt>
      <trkpt lat="45.86417" lon="4.78638">
        <ele>434</ele>
        <time>2012-03-17T15:32:16Z</time>
      </trkpt>
      <trkpt lat="45.86399" lon="4.78641">
        <ele>440</ele>
        <time>2012-03-17T15:32:24Z</time>
      </trkpt>
      <trkpt lat="45.86384" lon="4.78641">
        <ele>440</ele>
        <time>2012-03-17T15:32:30Z</time>
      </trkpt>
      <trkpt lat="45.86382" lon="4.78641">
        <ele>440</ele>
        <time>2012-03-17T15:32:31Z</time>
      </trkpt>
      <trkpt lat="45.86368" lon="4.78642">
        <ele>441</ele>
        <time>2012-03-17T15:32:37Z</time>
      </trkpt>
      <trkpt lat="45.86366" lon="4.78641">
        <ele>441</ele>
        <time>2012-03-17T15:32:38Z</time>
      </trkpt>
      <trkpt lat="45.86353" lon="4.78641">
        <ele>442</ele>
        <time>2012-03-17T15:32:44Z</time>
      </trkpt>
      <trkpt lat="45.86345" lon="4.78639">
        <ele>442</ele>
        <time>2012-03-17T15:32:47Z</time>
      </trkpt>
      <trkpt lat="45.86339" lon="4.78638">
        <ele>442</ele>
        <time>2012-03-17T15:32:49Z</time>
      </trkpt>
      <trkpt lat="45.86318" lon="4.78627">
        <ele>446</ele>
        <time>2012-03-17T15:32:54Z</time>
      </trkpt>
      <trkpt lat="45.86308" lon="4.78622">
        <ele>445</ele>
        <time>2012-03-17T15:32:56Z</time>
      </trkpt>
      <trkpt lat="45.86294" lon="4.78614">
        <ele>445</ele>
        <time>2012-03-17T15:32:59Z</time>
      </trkpt>
      <trkpt lat="45.86274" lon="4.78604">
        <ele>446</ele>
        <time>2012-03-17T15:33:03Z</time>
      </trkpt>
      <trkpt lat="45.8627" lon="4.78602">
        <ele>446</ele>
        <time>2012-03-17T15:33:04Z</time>
      </trkpt>
      <trkpt lat="45.86244" lon="4.78591">
        <ele>450</ele>
        <time>2012-03-17T15:33:09Z</time>
      </trkpt>
      <trkpt lat="45.86239" lon="4.78589">
        <ele>450</ele>
        <time>2012-03-17T15:33:10Z</time>
      </trkpt>
      <trkpt lat="45.86235" lon="4.78585">
        <ele>451</ele>
        <time>2012-03-17T15:33:11Z</time>
      </trkpt>
      <trkpt lat="45.86222" lon="4.78568">
        <ele>450</ele>
        <time>2012-03-17T15:33:14Z</time>
      </trkpt>
      <trkpt lat="45.86217" lon="4.78563">
        <ele>450</ele>
        <time>2012-03-17T15:33:15Z</time>
      </trkpt>
      <trkpt lat="45.86203" lon="4.78549">
        <ele>452</ele>
        <time>2012-03-17T15:33:18Z</time>
      </trkpt>
      <trkpt lat="45.862" lon="4.78546">
        <ele>452</ele>
        <time>2012-03-17T15:33:19Z</time>
      </trkpt>
      <trkpt lat="45.86189" lon="4.78529">
        <ele>453</ele>
        <time>2012-03-17T15:33:23Z</time>
      </trkpt>
      <trkpt lat="45.86185" lon="4.78517">
        <ele>455</ele>
        <time>2012-03-17T15:33:28Z</time>
      </trkpt>
      <trkpt lat="45.86186" lon="4.78514">
        <ele>455</ele>
        <time>2012-03-17T15:33:35Z</time>
      </trkpt>
      <trkpt lat="45.86181" lon="4.78505">
        <ele>457</ele>
        <time>2012-03-17T15:34:04Z</time>
      </trkpt>
      <trkpt lat="45.86177" lon="4.78501">
        <ele>458</ele>
        <time>2012-03-17T15:34:22Z</time>
      </trkpt>
      <trkpt lat="45.8618" lon="4.78496">
        <ele>458</ele>
        <time>2012-03-17T15:34:30Z</time>
      </trkpt>
      <trkpt lat="45.86181" lon="4.7849">
        <ele>457</ele>
        <time>2012-03-17T15:34:34Z</time>
      </trkpt>
      <trkpt lat="45.86181" lon="4.78488">
        <ele>457</ele>
        <time>2012-03-17T15:34:35Z</time>
      </trkpt>
      <trkpt lat="45.86179" lon="4.78482">
        <ele>457</ele>
        <time>2012-03-17T15:34:39Z</time>
      </trkpt>
      <trkpt lat="45.86176" lon="4.78478">
        <ele>457</ele>
        <time>2012-03-17T15:34:45Z</time>
      </trkpt>
      <trkpt lat="45.86173" lon="4.78472">
        <ele>457</ele>
        <time>2012-03-17T15:34:53Z</time>
      </trkpt>
      <trkpt lat="45.86171" lon="4.78466">
        <ele>457</ele>
        <time>2012-03-17T15:35:00Z</time>
      </trkpt>
      <trkpt lat="45.86171" lon="4.78464">
        <ele>457</ele>
        <time>2012-03-17T15:35:01Z</time>
      </trkpt>
      <trkpt lat="45.8617" lon="4.78457">
        <ele>457</ele>
        <time>2012-03-17T15:35:07Z</time>
      </trkpt>
      <trkpt lat="45.86174" lon="4.78458">
        <ele>457</ele>
        <time>2012-03-17T15:35:16Z</time>
      </trkpt>
      <trkpt lat="45.86175" lon="4.78449">
        <ele>457</ele>
        <time>2012-03-17T15:35:34Z</time>
      </trkpt>
      <trkpt lat="45.86174" lon="4.78443">
        <ele>458</ele>
        <time>2012-03-17T15:35:40Z</time>
      </trkpt>
      <trkpt lat="45.86171" lon="4.78447">
        <ele>458</ele>
        <time>2012-03-17T15:35:46Z</time>
      </trkpt>
      <trkpt lat="45.86166" lon="4.78447">
        <ele>470</ele>
        <time>2012-03-17T15:35:57Z</time>
      </trkpt>
      <trkpt lat="45.86164" lon="4.78454">
        <ele>469</ele>
        <time>2012-03-17T15:36:03Z</time>
      </trkpt>
      <trkpt lat="45.86163" lon="4.78459">
        <ele>469</ele>
        <time>2012-03-17T15:36:06Z</time>
      </trkpt>
      <trkpt lat="45.86163" lon="4.78465">
        <ele>469</ele>
        <time>2012-03-17T15:36:09Z</time>
      </trkpt>
      <trkpt lat="45.86158" lon="4.78474">
        <ele>468</ele>
        <time>2012-03-17T15:36:15Z</time>
      </trkpt>
      <trkpt lat="45.86156" lon="4.78481">
        <ele>467</ele>
        <time>2012-03-17T15:36:20Z</time>
      </trkpt>
      <trkpt lat="45.86154" lon="4.78491">
        <ele>466</ele>
        <time>2012-03-17T15:36:26Z</time>
      </trkpt>
      <trkpt lat="45.86149" lon="4.78506">
        <ele>464</ele>
        <time>2012-03-17T15:36:33Z</time>
      </trkpt>
      <trkpt lat="45.86148" lon="4.78508">
        <ele>465</ele>
        <time>2012-03-17T15:36:34Z</time>
      </trkpt>
      <trkpt lat="45.86143" lon="4.78514">
        <ele>465</ele>
        <time>2012-03-17T15:36:38Z</time>
      </trkpt>
      <trkpt lat="45.86141" lon="4.78514">
        <ele>465</ele>
        <time>2012-03-17T15:36:40Z</time>
      </trkpt>
      <trkpt lat="45.86135" lon="4.78515">
        <ele>466</ele>
        <time>2012-03-17T15:36:45Z</time>
      </trkpt>
      <trkpt lat="45.86134" lon="4.78515">
        <ele>466</ele>
        <time>2012-03-17T15:36:46Z</time>
      </trkpt>
      <trkpt lat="45.86125" lon="4.78513">
        <ele>467</ele>
        <time>2012-03-17T15:36:52Z</time>
      </trkpt>
      <trkpt lat="45.86121" lon="4.78513">
        <ele>467</ele>
        <time>2012-03-17T15:36:54Z</time>
      </trkpt>
      <trkpt lat="45.86114" lon="4.78512">
        <ele>468</ele>
        <time>2012-03-17T15:36:58Z</time>
      </trkpt>
      <trkpt lat="45.86109" lon="4.7851">
        <ele>468</ele>
        <time>2012-03-17T15:37:02Z</time>
      </trkpt>
      <trkpt lat="45.86104" lon="4.78508">
        <ele>469</ele>
        <time>2012-03-17T15:37:06Z</time>
      </trkpt>
      <trkpt lat="45.861" lon="4.7851">
        <ele>469</ele>
        <time>2012-03-17T15:37:08Z</time>
      </trkpt>
      <trkpt lat="45.86091" lon="4.78511">
        <ele>470</ele>
        <time>2012-03-17T15:37:14Z</time>
      </trkpt>
      <trkpt lat="45.8609" lon="4.78511">
        <ele>470</ele>
        <time>2012-03-17T15:37:15Z</time>
      </trkpt>
      <trkpt lat="45.86089" lon="4.78508">
        <ele>470</ele>
        <time>2012-03-17T15:37:20Z</time>
      </trkpt>
      <trkpt lat="45.86089" lon="4.78501">
        <ele>471</ele>
        <time>2012-03-17T15:37:35Z</time>
      </trkpt>
      <trkpt lat="45.86096" lon="4.78496">
        <ele>472</ele>
        <time>2012-03-17T15:37:44Z</time>
      </trkpt>
      <trkpt lat="45.86098" lon="4.78494">
        <ele>472</ele>
        <time>2012-03-17T15:37:46Z</time>
      </trkpt>
      <trkpt lat="45.86103" lon="4.7849">
        <ele>471</ele>
        <time>2012-03-17T15:37:50Z</time>
      </trkpt>
      <trkpt lat="45.86114" lon="4.78485">
        <ele>471</ele>
        <time>2012-03-17T15:37:58Z</time>
      </trkpt>
      <trkpt lat="45.86115" lon="4.78484">
        <ele>471</ele>
        <time>2012-03-17T15:37:59Z</time>
      </trkpt>
      <trkpt lat="45.86122" lon="4.78472">
        <ele>471</ele>
        <time>2012-03-17T15:38:06Z</time>
      </trkpt>
      <trkpt lat="45.86123" lon="4.78467">
        <ele>471</ele>
        <time>2012-03-17T15:38:10Z</time>
      </trkpt>
      <trkpt lat="45.86125" lon="4.78462">
        <ele>471</ele>
        <time>2012-03-17T15:38:13Z</time>
      </trkpt>
      <trkpt lat="45.86125" lon="4.78448">
        <ele>472</ele>
        <time>2012-03-17T15:38:22Z</time>
      </trkpt>
      <trkpt lat="45.86125" lon="4.78444">
        <ele>472</ele>
        <time>2012-03-17T15:38:24Z</time>
      </trkpt>
      <trkpt lat="45.86125" lon="4.78439">
        <ele>472</ele>
        <time>2012-03-17T15:38:27Z</time>
      </trkpt>
      <trkpt lat="45.86125" lon="4.78431">
        <ele>473</ele>
        <time>2012-03-17T15:38:30Z</time>
      </trkpt>
      <trkpt lat="45.86124" lon="4.78424">
        <ele>473</ele>
        <time>2012-03-17T15:38:33Z</time>
      </trkpt>
      <trkpt lat="45.86123" lon="4.7842">
        <ele>473</ele>
        <time>2012-03-17T15:38:35Z</time>
      </trkpt>
      <trkpt lat="45.86123" lon="4.78417">
        <ele>473</ele>
        <time>2012-03-17T15:38:37Z</time>
      </trkpt>
      <trkpt lat="45.86122" lon="4.78414">
        <ele>478</ele>
        <time>2012-03-17T15:38:39Z</time>
      </trkpt>
      <trkpt lat="45.86122" lon="4.78404">
        <ele>478</ele>
        <time>2012-03-17T15:38:46Z</time>
      </trkpt>
      <trkpt lat="45.86121" lon="4.7839">
        <ele>478</ele>
        <time>2012-03-17T15:38:53Z</time>
      </trkpt>
      <trkpt lat="45.8612" lon="4.78386">
        <ele>479</ele>
        <time>2012-03-17T15:38:56Z</time>
      </trkpt>
      <trkpt lat="45.86122" lon="4.78377">
        <ele>479</ele>
        <time>2012-03-17T15:39:00Z</time>
      </trkpt>
      <trkpt lat="45.86124" lon="4.78367">
        <ele>479</ele>
        <time>2012-03-17T15:39:05Z</time>
      </trkpt>
      <trkpt lat="45.86128" lon="4.78351">
        <ele>479</ele>
        <time>2012-03-17T15:39:11Z</time>
      </trkpt>
      <trkpt lat="45.8613" lon="4.78327">
        <ele>481</ele>
        <time>2012-03-17T15:39:16Z</time>
      </trkpt>
      <trkpt lat="45.86127" lon="4.78318">
        <ele>481</ele>
        <time>2012-03-17T15:39:18Z</time>
      </trkpt>
      <trkpt lat="45.86121" lon="4.78312">
        <ele>481</ele>
        <time>2012-03-17T15:39:20Z</time>
      </trkpt>
      <trkpt lat="45.86109" lon="4.78299">
        <ele>482</ele>
        <time>2012-03-17T15:39:25Z</time>
      </trkpt>
      <trkpt lat="45.86095" lon="4.78288">
        <ele>483</ele>
        <time>2012-03-17T15:39:31Z</time>
      </trkpt>
      <trkpt lat="45.86084" lon="4.78281">
        <ele>483</ele>
        <time>2012-03-17T15:39:36Z</time>
      </trkpt>
      <trkpt lat="45.86077" lon="4.78276">
        <ele>488</ele>
        <time>2012-03-17T15:39:42Z</time>
      </trkpt>
      <trkpt lat="45.86065" lon="4.78268">
        <ele>488</ele>
        <time>2012-03-17T15:39:49Z</time>
      </trkpt>
      <trkpt lat="45.86062" lon="4.78265">
        <ele>488</ele>
        <time>2012-03-17T15:39:51Z</time>
      </trkpt>
      <trkpt lat="45.86061" lon="4.78263">
        <ele>488</ele>
        <time>2012-03-17T15:39:52Z</time>
      </trkpt>
      <trkpt lat="45.86055" lon="4.78259">
        <ele>488</ele>
        <time>2012-03-17T15:39:55Z</time>
      </trkpt>
      <trkpt lat="45.86044" lon="4.78248">
        <ele>482</ele>
        <time>2012-03-17T15:40:00Z</time>
      </trkpt>
      <trkpt lat="45.86031" lon="4.7824">
        <ele>482</ele>
        <time>2012-03-17T15:40:03Z</time>
      </trkpt>
      <trkpt lat="45.86026" lon="4.78237">
        <ele>482</ele>
        <time>2012-03-17T15:40:04Z</time>
      </trkpt>
      <trkpt lat="45.86009" lon="4.78231">
        <ele>483</ele>
        <time>2012-03-17T15:40:07Z</time>
      </trkpt>
      <trkpt lat="45.86003" lon="4.7823">
        <ele>483</ele>
        <time>2012-03-17T15:40:08Z</time>
      </trkpt>
      <trkpt lat="45.85996" lon="4.78229">
        <ele>482</ele>
        <time>2012-03-17T15:40:09Z</time>
      </trkpt>
      <trkpt lat="45.85989" lon="4.78227">
        <ele>481</ele>
        <time>2012-03-17T15:40:10Z</time>
      </trkpt>
      <trkpt lat="45.85965" lon="4.78227">
        <ele>480</ele>
        <time>2012-03-17T15:40:13Z</time>
      </trkpt>
      <trkpt lat="45.85959" lon="4.78227">
        <ele>480</ele>
        <time>2012-03-17T15:40:15Z</time>
      </trkpt>
      <trkpt lat="45.8594" lon="4.78227">
        <ele>480</ele>
        <time>2012-03-17T15:40:18Z</time>
      </trkpt>
      <trkpt lat="45.85928" lon="4.78226">
        <ele>480</ele>
        <time>2012-03-17T15:40:20Z</time>
      </trkpt>
      <trkpt lat="45.85922" lon="4.78225">
        <ele>480</ele>
        <time>2012-03-17T15:40:21Z</time>
      </trkpt>
      <trkpt lat="45.85902" lon="4.78225">
        <ele>478</ele>
        <time>2012-03-17T15:40:24Z</time>
      </trkpt>
      <trkpt lat="45.85881" lon="4.78227">
        <ele>477</ele>
        <time>2012-03-17T15:40:27Z</time>
      </trkpt>
      <trkpt lat="45.85866" lon="4.78227">
        <ele>477</ele>
        <time>2012-03-17T15:40:29Z</time>
      </trkpt>
      <trkpt lat="45.85834" lon="4.78226">
        <ele>478</ele>
        <time>2012-03-17T15:40:33Z</time>
      </trkpt>
      <trkpt lat="45.8582" lon="4.78222">
        <ele>477</ele>
        <time>2012-03-17T15:40:36Z</time>
      </trkpt>
      <trkpt lat="45.85802" lon="4.78216">
        <ele>476</ele>
        <time>2012-03-17T15:40:39Z</time>
      </trkpt>
      <trkpt lat="45.85789" lon="4.78214">
        <ele>476</ele>
        <time>2012-03-17T15:40:42Z</time>
      </trkpt>
      <trkpt lat="45.85776" lon="4.78211">
        <ele>476</ele>
        <time>2012-03-17T15:40:46Z</time>
      </trkpt>
      <trkpt lat="45.85774" lon="4.78213">
        <ele>476</ele>
        <time>2012-03-17T15:40:47Z</time>
      </trkpt>
      <trkpt lat="45.8577" lon="4.78221">
        <ele>478</ele>
        <time>2012-03-17T15:40:50Z</time>
      </trkpt>
      <trkpt lat="45.85765" lon="4.78224">
        <ele>478</ele>
        <time>2012-03-17T15:40:56Z</time>
      </trkpt>
      <trkpt lat="45.85764" lon="4.78224">
        <ele>478</ele>
        <time>2012-03-17T15:40:57Z</time>
      </trkpt>
      <trkpt lat="45.85756" lon="4.78224">
        <ele>479</ele>
        <time>2012-03-17T15:41:17Z</time>
      </trkpt>
      <trkpt lat="45.85754" lon="4.78225">
        <ele>479</ele>
        <time>2012-03-17T15:41:23Z</time>
      </trkpt>
      <trkpt lat="45.85748" lon="4.78229">
        <ele>484</ele>
        <time>2012-03-17T15:41:32Z</time>
      </trkpt>
      <trkpt lat="45.85745" lon="4.7823">
        <ele>485</ele>
        <time>2012-03-17T15:41:41Z</time>
      </trkpt>
      <trkpt lat="45.8574" lon="4.78233">
        <ele>485</ele>
        <time>2012-03-17T15:41:56Z</time>
      </trkpt>
      <trkpt lat="45.85737" lon="4.78235">
        <ele>485</ele>
        <time>2012-03-17T15:41:58Z</time>
      </trkpt>
      <trkpt lat="45.85734" lon="4.78239">
        <ele>485</ele>
        <time>2012-03-17T15:42:02Z</time>
      </trkpt>
      <trkpt lat="45.85733" lon="4.7824">
        <ele>485</ele>
        <time>2012-03-17T15:42:03Z</time>
      </trkpt>
      <trkpt lat="45.85731" lon="4.78241">
        <ele>485</ele>
        <time>2012-03-17T15:42:04Z</time>
      </trkpt>
      <trkpt lat="45.85728" lon="4.78243">
        <ele>485</ele>
        <time>2012-03-17T15:42:09Z</time>
      </trkpt>
      <trkpt lat="45.85727" lon="4.78244">
        <ele>486</ele>
        <time>2012-03-17T15:42:16Z</time>
      </trkpt>
      <trkpt lat="45.85722" lon="4.78243">
        <ele>486</ele>
        <time>2012-03-17T15:42:24Z</time>
      </trkpt>
      <trkpt lat="45.85716" lon="4.78245">
        <ele>486</ele>
        <time>2012-03-17T15:42:30Z</time>
      </trkpt>
      <trkpt lat="45.85712" lon="4.78247">
        <ele>486</ele>
        <time>2012-03-17T15:42:36Z</time>
      </trkpt>
      <trkpt lat="45.85709" lon="4.78247">
        <ele>487</ele>
        <time>2012-03-17T15:42:41Z</time>
      </trkpt>
      <trkpt lat="45.85702" lon="4.78249">
        <ele>487</ele>
        <time>2012-03-17T15:42:49Z</time>
      </trkpt>
      <trkpt lat="45.85697" lon="4.78249">
        <ele>488</ele>
        <time>2012-03-17T15:42:57Z</time>
      </trkpt>
      <trkpt lat="45.85691" lon="4.7825">
        <ele>489</ele>
        <time>2012-03-17T15:43:04Z</time>
      </trkpt>
      <trkpt lat="45.8569" lon="4.78248">
        <ele>489</ele>
        <time>2012-03-17T15:43:14Z</time>
      </trkpt>
      <trkpt lat="45.85686" lon="4.78249">
        <ele>489</ele>
        <time>2012-03-17T15:43:35Z</time>
      </trkpt>
      <trkpt lat="45.8569" lon="4.7825">
        <ele>489</ele>
        <time>2012-03-17T15:44:45Z</time>
      </trkpt>
      <trkpt lat="45.85688" lon="4.78255">
        <ele>493</ele>
        <time>2012-03-17T15:44:49Z</time>
      </trkpt>
      <trkpt lat="45.85687" lon="4.7826">
        <ele>493</ele>
        <time>2012-03-17T15:44:51Z</time>
      </trkpt>
      <trkpt lat="45.85686" lon="4.78267">
        <ele>493</ele>
        <time>2012-03-17T15:44:54Z</time>
      </trkpt>
      <trkpt lat="45.85683" lon="4.78282">
        <ele>493</ele>
        <time>2012-03-17T15:45:01Z</time>
      </trkpt>
      <trkpt lat="45.85684" lon="4.78294">
        <ele>493</ele>
        <time>2012-03-17T15:45:07Z</time>
      </trkpt>
      <trkpt lat="45.85684" lon="4.78303">
        <ele>493</ele>
        <time>2012-03-17T15:45:11Z</time>
      </trkpt>
      <trkpt lat="45.85683" lon="4.78306">
        <ele>493</ele>
        <time>2012-03-17T15:45:15Z</time>
      </trkpt>
      <trkpt lat="45.85679" lon="4.7832">
        <ele>494</ele>
        <time>2012-03-17T15:45:23Z</time>
      </trkpt>
      <trkpt lat="45.85679" lon="4.78326">
        <ele>494</ele>
        <time>2012-03-17T15:45:33Z</time>
      </trkpt>
      <trkpt lat="45.85677" lon="4.78331">
        <ele>494</ele>
        <time>2012-03-17T15:45:38Z</time>
      </trkpt>
      <trkpt lat="45.85677" lon="4.78332">
        <ele>494</ele>
        <time>2012-03-17T15:45:42Z</time>
      </trkpt>
      <trkpt lat="45.85677" lon="4.78333">
        <ele>494</ele>
        <time>2012-03-17T15:45:43Z</time>
      </trkpt>
      <trkpt lat="45.85674" lon="4.78345">
        <ele>495</ele>
        <time>2012-03-17T15:45:50Z</time>
      </trkpt>
      <trkpt lat="45.85675" lon="4.78361">
        <ele>496</ele>
        <time>2012-03-17T15:45:56Z</time>
      </trkpt>
      <trkpt lat="45.85679" lon="4.78377">
        <ele>497</ele>
        <time>2012-03-17T15:46:02Z</time>
      </trkpt>
      <trkpt lat="45.8568" lon="4.7838">
        <ele>497</ele>
        <time>2012-03-17T15:46:03Z</time>
      </trkpt>
      <trkpt lat="45.85687" lon="4.78405">
        <ele>498</ele>
        <time>2012-03-17T15:46:11Z</time>
      </trkpt>
      <trkpt lat="45.85688" lon="4.7842">
        <ele>502</ele>
        <time>2012-03-17T15:46:16Z</time>
      </trkpt>
      <trkpt lat="45.8569" lon="4.78427">
        <ele>502</ele>
        <time>2012-03-17T15:46:20Z</time>
      </trkpt>
      <trkpt lat="45.85692" lon="4.78434">
        <ele>502</ele>
        <time>2012-03-17T15:46:21Z</time>
      </trkpt>
      <trkpt lat="45.85696" lon="4.78449">
        <ele>502</ele>
        <time>2012-03-17T15:46:26Z</time>
      </trkpt>
      <trkpt lat="45.85696" lon="4.78449">
        <ele>502</ele>
        <time>2012-03-17T15:46:27Z</time>
      </trkpt>
      <trkpt lat="45.85701" lon="4.78459">
        <ele>503</ele>
        <time>2012-03-17T15:46:31Z</time>
      </trkpt>
      <trkpt lat="45.85702" lon="4.78462">
        <ele>503</ele>
        <time>2012-03-17T15:46:33Z</time>
      </trkpt>
      <trkpt lat="45.85707" lon="4.78468">
        <ele>503</ele>
        <time>2012-03-17T15:46:36Z</time>
      </trkpt>
      <trkpt lat="45.85708" lon="4.7847">
        <ele>503</ele>
        <time>2012-03-17T15:46:37Z</time>
      </trkpt>
      <trkpt lat="45.85708" lon="4.78478">
        <ele>504</ele>
        <time>2012-03-17T15:46:41Z</time>
      </trkpt>
      <trkpt lat="45.85713" lon="4.7849">
        <ele>504</ele>
        <time>2012-03-17T15:46:46Z</time>
      </trkpt>
      <trkpt lat="45.85713" lon="4.7849">
        <ele>504</ele>
        <time>2012-03-17T15:46:47Z</time>
      </trkpt>
      <trkpt lat="45.85721" lon="4.78501">
        <ele>511</ele>
        <time>2012-03-17T15:46:52Z</time>
      </trkpt>
      <trkpt lat="45.85729" lon="4.78512">
        <ele>511</ele>
        <time>2012-03-17T15:47:00Z</time>
      </trkpt>
      <trkpt lat="45.8573" lon="4.78514">
        <ele>511</ele>
        <time>2012-03-17T15:47:01Z</time>
      </trkpt>
      <trkpt lat="45.85733" lon="4.78519">
        <ele>511</ele>
        <time>2012-03-17T15:47:05Z</time>
      </trkpt>
      <trkpt lat="45.85735" lon="4.7852">
        <ele>511</ele>
        <time>2012-03-17T15:47:06Z</time>
      </trkpt>
      <trkpt lat="45.85736" lon="4.78524">
        <ele>511</ele>
        <time>2012-03-17T15:47:08Z</time>
      </trkpt>
      <trkpt lat="45.85742" lon="4.78531">
        <ele>512</ele>
        <time>2012-03-17T15:47:13Z</time>
      </trkpt>
      <trkpt lat="45.85749" lon="4.78537">
        <ele>513</ele>
        <time>2012-03-17T15:47:18Z</time>
      </trkpt>
      <trkpt lat="45.85752" lon="4.78542">
        <ele>505</ele>
        <time>2012-03-17T15:47:22Z</time>
      </trkpt>
      <trkpt lat="45.85755" lon="4.78543">
        <ele>505</ele>
        <time>2012-03-17T15:47:24Z</time>
      </trkpt>
      <trkpt lat="45.85763" lon="4.78552">
        <ele>506</ele>
        <time>2012-03-17T15:47:30Z</time>
      </trkpt>
      <trkpt lat="45.85766" lon="4.78558">
        <ele>507</ele>
        <time>2012-03-17T15:47:33Z</time>
      </trkpt>
      <trkpt lat="45.85774" lon="4.78566">
        <ele>507</ele>
        <time>2012-03-17T15:47:39Z</time>
      </trkpt>
      <trkpt lat="45.85777" lon="4.78571">
        <ele>507</ele>
        <time>2012-03-17T15:47:41Z</time>
      </trkpt>
      <trkpt lat="45.85781" lon="4.78576">
        <ele>507</ele>
        <time>2012-03-17T15:47:44Z</time>
      </trkpt>
      <trkpt lat="45.85782" lon="4.78578">
        <ele>506</ele>
        <time>2012-03-17T15:47:45Z</time>
      </trkpt>
      <trkpt lat="45.85789" lon="4.78588">
        <ele>515</ele>
        <time>2012-03-17T15:47:51Z</time>
      </trkpt>
      <trkpt lat="45.85792" lon="4.78594">
        <ele>515</ele>
        <time>2012-03-17T15:47:55Z</time>
      </trkpt>
      <trkpt lat="45.85794" lon="4.78598">
        <ele>515</ele>
        <time>2012-03-17T15:47:57Z</time>
      </trkpt>
      <trkpt lat="45.858" lon="4.78606">
        <ele>515</ele>
        <time>2012-03-17T15:48:02Z</time>
      </trkpt>
      <trkpt lat="45.85804" lon="4.78614">
        <ele>515</ele>
        <time>2012-03-17T15:48:04Z</time>
      </trkpt>
      <trkpt lat="45.85808" lon="4.78622">
        <ele>515</ele>
        <time>2012-03-17T15:48:07Z</time>
      </trkpt>
      <trkpt lat="45.85811" lon="4.78631">
        <ele>516</ele>
        <time>2012-03-17T15:48:11Z</time>
      </trkpt>
      <trkpt lat="45.85813" lon="4.78636">
        <ele>516</ele>
        <time>2012-03-17T15:48:14Z</time>
      </trkpt>
      <trkpt lat="45.85815" lon="4.78647">
        <ele>516</ele>
        <time>2012-03-17T15:48:21Z</time>
      </trkpt>
      <trkpt lat="45.85816" lon="4.78651">
        <ele>516</ele>
        <time>2012-03-17T15:48:22Z</time>
      </trkpt>
      <trkpt lat="45.85818" lon="4.78659">
        <ele>515</ele>
        <time>2012-03-17T15:48:26Z</time>
      </trkpt>
      <trkpt lat="45.8582" lon="4.78672">
        <ele>519</ele>
        <time>2012-03-17T15:48:33Z</time>
      </trkpt>
      <trkpt lat="45.85822" lon="4.78681">
        <ele>521</ele>
        <time>2012-03-17T15:48:38Z</time>
      </trkpt>
      <trkpt lat="45.85822" lon="4.78683">
        <ele>521</ele>
        <time>2012-03-17T15:48:39Z</time>
      </trkpt>
      <trkpt lat="45.85822" lon="4.78698">
        <ele>524</ele>
        <time>2012-03-17T15:48:47Z</time>
      </trkpt>
      <trkpt lat="45.8582" lon="4.78712">
        <ele>525</ele>
        <time>2012-03-17T15:48:55Z</time>
      </trkpt>
      <trkpt lat="45.85819" lon="4.78725">
        <ele>526</ele>
        <time>2012-03-17T15:49:03Z</time>
      </trkpt>
      <trkpt lat="45.85818" lon="4.78733">
        <ele>526</ele>
        <time>2012-03-17T15:49:06Z</time>
      </trkpt>
      <trkpt lat="45.85817" lon="4.78744">
        <ele>526</ele>
        <time>2012-03-17T15:49:12Z</time>
      </trkpt>
      <trkpt lat="45.85815" lon="4.78753">
        <ele>528</ele>
        <time>2012-03-17T15:49:18Z</time>
      </trkpt>
      <trkpt lat="45.85815" lon="4.7876">
        <ele>528</ele>
        <time>2012-03-17T15:49:24Z</time>
      </trkpt>
      <trkpt lat="45.85815" lon="4.78763">
        <ele>528</ele>
        <time>2012-03-17T15:49:25Z</time>
      </trkpt>
      <trkpt lat="45.85815" lon="4.78772">
        <ele>529</ele>
        <time>2012-03-17T15:49:29Z</time>
      </trkpt>
      <trkpt lat="45.85815" lon="4.78774">
        <ele>529</ele>
        <time>2012-03-17T15:49:30Z</time>
      </trkpt>
      <trkpt lat="45.85816" lon="4.78784">
        <ele>530</ele>
        <time>2012-03-17T15:49:34Z</time>
      </trkpt>
      <trkpt lat="45.85817" lon="4.78789">
        <ele>530</ele>
        <time>2012-03-17T15:49:36Z</time>
      </trkpt>
      <trkpt lat="45.85816" lon="4.78791">
        <ele>530</ele>
        <time>2012-03-17T15:49:37Z</time>
      </trkpt>
      <trkpt lat="45.85816" lon="4.78797">
        <ele>530</ele>
        <time>2012-03-17T15:49:40Z</time>
      </trkpt>
      <trkpt lat="45.85813" lon="4.78803">
        <ele>531</ele>
        <time>2012-03-17T15:49:46Z</time>
      </trkpt>
      <trkpt lat="45.85811" lon="4.78802">
        <ele>531</ele>
        <time>2012-03-17T15:49:52Z</time>
      </trkpt>
      <trkpt lat="45.8581" lon="4.78803">
        <ele>531</ele>
        <time>2012-03-17T15:50:33Z</time>
      </trkpt>
      <trkpt lat="45.85807" lon="4.78803">
        <ele>531</ele>
        <time>2012-03-17T15:50:35Z</time>
      </trkpt>
      <trkpt lat="45.85804" lon="4.788">
        <ele>530</ele>
        <time>2012-03-17T15:50:37Z</time>
      </trkpt>
      <trkpt lat="45.85795" lon="4.78795">
        <ele>530</ele>
        <time>2012-03-17T15:50:40Z</time>
      </trkpt>
      <trkpt lat="45.85769" lon="4.78783">
        <ele>531</ele>
        <time>2012-03-17T15:50:47Z</time>
      </trkpt>
      <trkpt lat="45.85759" lon="4.78781">
        <ele>532</ele>
        <time>2012-03-17T15:50:50Z</time>
      </trkpt>
      <trkpt lat="45.85751" lon="4.78781">
        <ele>532</ele>
        <time>2012-03-17T15:50:52Z</time>
      </trkpt>
      <trkpt lat="45.85748" lon="4.78779">
        <ele>532</ele>
        <time>2012-03-17T15:50:53Z</time>
      </trkpt>
      <trkpt lat="45.85744" lon="4.78772">
        <ele>533</ele>
        <time>2012-03-17T15:50:55Z</time>
      </trkpt>
      <trkpt lat="45.85739" lon="4.78769">
        <ele>533</ele>
        <time>2012-03-17T15:50:57Z</time>
      </trkpt>
      <trkpt lat="45.85735" lon="4.78766">
        <ele>533</ele>
        <time>2012-03-17T15:50:59Z</time>
      </trkpt>
      <trkpt lat="45.85727" lon="4.78759">
        <ele>533</ele>
        <time>2012-03-17T15:51:04Z</time>
      </trkpt>
      <trkpt lat="45.85725" lon="4.78757">
        <ele>533</ele>
        <time>2012-03-17T15:51:05Z</time>
      </trkpt>
      <trkpt lat="45.85716" lon="4.78746">
        <ele>537</ele>
        <time>2012-03-17T15:51:12Z</time>
      </trkpt>
      <trkpt lat="45.85706" lon="4.78732">
        <ele>537</ele>
        <time>2012-03-17T15:51:20Z</time>
      </trkpt>
      <trkpt lat="45.85699" lon="4.78724">
        <ele>537</ele>
        <time>2012-03-17T15:51:25Z</time>
      </trkpt>
      <trkpt lat="45.85698" lon="4.78722">
        <ele>537</ele>
        <time>2012-03-17T15:51:26Z</time>
      </trkpt>
      <trkpt lat="45.85688" lon="4.78706">
        <ele>538</ele>
        <time>2012-03-17T15:51:34Z</time>
      </trkpt>
      <trkpt lat="45.85681" lon="4.78695">
        <ele>538</ele>
        <time>2012-03-17T15:51:39Z</time>
      </trkpt>
      <trkpt lat="45.85672" lon="4.78687">
        <ele>539</ele>
        <time>2012-03-17T15:51:44Z</time>
      </trkpt>
      <trkpt lat="45.85669" lon="4.78683">
        <ele>540</ele>
        <time>2012-03-17T15:51:46Z</time>
      </trkpt>
      <trkpt lat="45.85663" lon="4.78677">
        <ele>540</ele>
        <time>2012-03-17T15:51:49Z</time>
      </trkpt>
      <trkpt lat="45.85656" lon="4.78674">
        <ele>540</ele>
        <time>2012-03-17T15:51:52Z</time>
      </trkpt>
      <trkpt lat="45.85641" lon="4.78667">
        <ele>540</ele>
        <time>2012-03-17T15:51:59Z</time>
      </trkpt>
      <trkpt lat="45.85639" lon="4.78665">
        <ele>540</ele>
        <time>2012-03-17T15:52:00Z</time>
      </trkpt>
      <trkpt lat="45.85626" lon="4.78656">
        <ele>539</ele>
        <time>2012-03-17T15:52:04Z</time>
      </trkpt>
      <trkpt lat="45.85616" lon="4.78644">
        <ele>538</ele>
        <time>2012-03-17T15:52:08Z</time>
      </trkpt>
      <trkpt lat="45.85606" lon="4.7864">
        <ele>538</ele>
        <time>2012-03-17T15:52:11Z</time>
      </trkpt>
      <trkpt lat="45.85597" lon="4.78636">
        <ele>538</ele>
        <time>2012-03-17T15:52:14Z</time>
      </trkpt>
      <trkpt lat="45.85581" lon="4.78625">
        <ele>539</ele>
        <time>2012-03-17T15:52:20Z</time>
      </trkpt>
      <trkpt lat="45.85571" lon="4.78618">
        <ele>539</ele>
        <time>2012-03-17T15:52:24Z</time>
      </trkpt>
      <trkpt lat="45.85566" lon="4.78614">
        <ele>539</ele>
        <time>2012-03-17T15:52:26Z</time>
      </trkpt>
      <trkpt lat="45.8555" lon="4.78604">
        <ele>540</ele>
        <time>2012-03-17T15:52:32Z</time>
      </trkpt>
      <trkpt lat="45.85537" lon="4.78596">
        <ele>540</ele>
        <time>2012-03-17T15:52:38Z</time>
      </trkpt>
      <trkpt lat="45.85536" lon="4.78594">
        <ele>540</ele>
        <time>2012-03-17T15:52:42Z</time>
      </trkpt>
      <trkpt lat="45.85531" lon="4.78593">
        <ele>540</ele>
        <time>2012-03-17T15:53:25Z</time>
      </trkpt>
      <trkpt lat="45.85529" lon="4.78593">
        <ele>541</ele>
        <time>2012-03-17T15:53:26Z</time>
      </trkpt>
      <trkpt lat="45.85519" lon="4.78583">
        <ele>539</ele>
        <time>2012-03-17T15:53:31Z</time>
      </trkpt>
      <trkpt lat="45.85504" lon="4.78569">
        <ele>540</ele>
        <time>2012-03-17T15:53:37Z</time>
      </trkpt>
      <trkpt lat="45.85482" lon="4.78552">
        <ele>543</ele>
        <time>2012-03-17T15:53:45Z</time>
      </trkpt>
      <trkpt lat="45.85469" lon="4.78544">
        <ele>543</ele>
        <time>2012-03-17T15:53:49Z</time>
      </trkpt>
      <trkpt lat="45.85464" lon="4.7854">
        <ele>543</ele>
        <time>2012-03-17T15:53:51Z</time>
      </trkpt>
      <trkpt lat="45.85444" lon="4.78525">
        <ele>544</ele>
        <time>2012-03-17T15:53:59Z</time>
      </trkpt>
      <trkpt lat="45.85436" lon="4.78519">
        <ele>545</ele>
        <time>2012-03-17T15:54:02Z</time>
      </trkpt>
      <trkpt lat="45.85426" lon="4.78513">
        <ele>546</ele>
        <time>2012-03-17T15:54:06Z</time>
      </trkpt>
      <trkpt lat="45.85405" lon="4.78502">
        <ele>549</ele>
        <time>2012-03-17T15:54:15Z</time>
      </trkpt>
      <trkpt lat="45.85402" lon="4.78501">
        <ele>549</ele>
        <time>2012-03-17T15:54:16Z</time>
      </trkpt>
      <trkpt lat="45.85385" lon="4.78498">
        <ele>550</ele>
        <time>2012-03-17T15:54:23Z</time>
      </trkpt>
      <trkpt lat="45.85366" lon="4.78495">
        <ele>551</ele>
        <time>2012-03-17T15:54:31Z</time>
      </trkpt>
      <trkpt lat="45.8535" lon="4.78493">
        <ele>551</ele>
        <time>2012-03-17T15:54:38Z</time>
      </trkpt>
      <trkpt lat="45.85331" lon="4.78484">
        <ele>554</ele>
        <time>2012-03-17T15:54:46Z</time>
      </trkpt>
      <trkpt lat="45.85316" lon="4.78468">
        <ele>554</ele>
        <time>2012-03-17T15:54:53Z</time>
      </trkpt>
      <trkpt lat="45.85305" lon="4.78446">
        <ele>555</ele>
        <time>2012-03-17T15:55:00Z</time>
      </trkpt>
      <trkpt lat="45.85303" lon="4.78443">
        <ele>555</ele>
        <time>2012-03-17T15:55:01Z</time>
      </trkpt>
      <trkpt lat="45.85293" lon="4.78422">
        <ele>555</ele>
        <time>2012-03-17T15:55:08Z</time>
      </trkpt>
      <trkpt lat="45.85283" lon="4.78402">
        <ele>558</ele>
        <time>2012-03-17T15:55:15Z</time>
      </trkpt>
      <trkpt lat="45.85272" lon="4.78382">
        <ele>558</ele>
        <time>2012-03-17T15:55:23Z</time>
      </trkpt>
      <trkpt lat="45.8526" lon="4.78363">
        <ele>560</ele>
        <time>2012-03-17T15:55:31Z</time>
      </trkpt>
      <trkpt lat="45.85256" lon="4.78357">
        <ele>560</ele>
        <time>2012-03-17T15:55:33Z</time>
      </trkpt>
      <trkpt lat="45.85243" lon="4.78339">
        <ele>563</ele>
        <time>2012-03-17T15:55:41Z</time>
      </trkpt>
      <trkpt lat="45.85233" lon="4.78327">
        <ele>565</ele>
        <time>2012-03-17T15:55:47Z</time>
      </trkpt>
      <trkpt lat="45.85231" lon="4.78324">
        <ele>565</ele>
        <time>2012-03-17T15:55:48Z</time>
      </trkpt>
      <trkpt lat="45.85217" lon="4.78305">
        <ele>566</ele>
        <time>2012-03-17T15:55:56Z</time>
      </trkpt>
      <trkpt lat="45.85206" lon="4.78292">
        <ele>566</ele>
        <time>2012-03-17T15:56:02Z</time>
      </trkpt>
      <trkpt lat="45.85204" lon="4.78289">
        <ele>566</ele>
        <time>2012-03-17T15:56:03Z</time>
      </trkpt>
      <trkpt lat="45.85188" lon="4.78273">
        <ele>568</ele>
        <time>2012-03-17T15:56:11Z</time>
      </trkpt>
      <trkpt lat="45.85175" lon="4.78264">
        <ele>571</ele>
        <time>2012-03-17T15:56:17Z</time>
      </trkpt>
      <trkpt lat="45.85173" lon="4.78262">
        <ele>571</ele>
        <time>2012-03-17T15:56:18Z</time>
      </trkpt>
      <trkpt lat="45.85153" lon="4.78252">
        <ele>575</ele>
        <time>2012-03-17T15:56:26Z</time>
      </trkpt>
      <trkpt lat="45.85141" lon="4.78249">
        <ele>581</ele>
        <time>2012-03-17T15:56:31Z</time>
      </trkpt>
      <trkpt lat="45.85136" lon="4.78249">
        <ele>582</ele>
        <time>2012-03-17T15:56:33Z</time>
      </trkpt>
      <trkpt lat="45.85119" lon="4.78253">
        <ele>577</ele>
        <time>2012-03-17T15:56:39Z</time>
      </trkpt>
      <trkpt lat="45.85104" lon="4.78256">
        <ele>579</ele>
        <time>2012-03-17T15:56:45Z</time>
      </trkpt>
      <trkpt lat="45.85089" lon="4.78261">
        <ele>582</ele>
        <time>2012-03-17T15:56:52Z</time>
      </trkpt>
      <trkpt lat="45.85075" lon="4.78268">
        <ele>585</ele>
        <time>2012-03-17T15:56:58Z</time>
      </trkpt>
      <trkpt lat="45.85069" lon="4.78273">
        <ele>585</ele>
        <time>2012-03-17T15:57:01Z</time>
      </trkpt>
      <trkpt lat="45.85062" lon="4.7828">
        <ele>584</ele>
        <time>2012-03-17T15:57:04Z</time>
      </trkpt>
      <trkpt lat="45.85052" lon="4.78287">
        <ele>584</ele>
        <time>2012-03-17T15:57:09Z</time>
      </trkpt>
      <trkpt lat="45.85044" lon="4.78293">
        <ele>584</ele>
        <time>2012-03-17T15:57:15Z</time>
      </trkpt>
      <trkpt lat="45.85036" lon="4.783">
        <ele>584</ele>
        <time>2012-03-17T15:57:19Z</time>
      </trkpt>
      <trkpt lat="45.85029" lon="4.78305">
        <ele>584</ele>
        <time>2012-03-17T15:57:23Z</time>
      </trkpt>
      <trkpt lat="45.85014" lon="4.78312">
        <ele>584</ele>
        <time>2012-03-17T15:57:31Z</time>
      </trkpt>
      <trkpt lat="45.85001" lon="4.78318">
        <ele>584</ele>
        <time>2012-03-17T15:57:38Z</time>
      </trkpt>
      <trkpt lat="45.84997" lon="4.78322">
        <ele>586</ele>
        <time>2012-03-17T15:57:40Z</time>
      </trkpt>
      <trkpt lat="45.84985" lon="4.78326">
        <ele>586</ele>
        <time>2012-03-17T15:57:46Z</time>
      </trkpt>
      <trkpt lat="45.84971" lon="4.78327">
        <ele>587</ele>
        <time>2012-03-17T15:57:53Z</time>
      </trkpt>
      <trkpt lat="45.84965" lon="4.78325">
        <ele>587</ele>
        <time>2012-03-17T15:57:56Z</time>
      </trkpt>
      <trkpt lat="45.84956" lon="4.7832">
        <ele>587</ele>
        <time>2012-03-17T15:58:00Z</time>
      </trkpt>
      <trkpt lat="45.84941" lon="4.78304">
        <ele>587</ele>
        <time>2012-03-17T15:58:07Z</time>
      </trkpt>
      <trkpt lat="45.84935" lon="4.78296">
        <ele>588</ele>
        <time>2012-03-17T15:58:10Z</time>
      </trkpt>
      <trkpt lat="45.84927" lon="4.78278">
        <ele>588</ele>
        <time>2012-03-17T15:58:15Z</time>
      </trkpt>
      <trkpt lat="45.8492" lon="4.78249">
        <ele>590</ele>
        <time>2012-03-17T15:58:22Z</time>
      </trkpt>
      <trkpt lat="45.84923" lon="4.7823">
        <ele>592</ele>
        <time>2012-03-17T15:58:27Z</time>
      </trkpt>
      <trkpt lat="45.84934" lon="4.78212">
        <ele>593</ele>
        <time>2012-03-17T15:58:33Z</time>
      </trkpt>
      <trkpt lat="45.84941" lon="4.78211">
        <ele>594</ele>
        <time>2012-03-17T15:58:35Z</time>
      </trkpt>
      <trkpt lat="45.84947" lon="4.78215">
        <ele>594</ele>
        <time>2012-03-17T15:58:37Z</time>
      </trkpt>
      <trkpt lat="45.84956" lon="4.78229">
        <ele>594</ele>
        <time>2012-03-17T15:58:41Z</time>
      </trkpt>
      <trkpt lat="45.84964" lon="4.78251">
        <ele>590</ele>
        <time>2012-03-17T15:58:46Z</time>
      </trkpt>
      <trkpt lat="45.84965" lon="4.78255">
        <ele>590</ele>
        <time>2012-03-17T15:58:47Z</time>
      </trkpt>
      <trkpt lat="45.84978" lon="4.78273">
        <ele>590</ele>
        <time>2012-03-17T15:58:53Z</time>
      </trkpt>
      <trkpt lat="45.84993" lon="4.78275">
        <ele>591</ele>
        <time>2012-03-17T15:58:58Z</time>
      </trkpt>
      <trkpt lat="45.85005" lon="4.78264">
        <ele>591</ele>
        <time>2012-03-17T15:59:04Z</time>
      </trkpt>
      <trkpt lat="45.85009" lon="4.78249">
        <ele>596</ele>
        <time>2012-03-17T15:59:08Z</time>
      </trkpt>
      <trkpt lat="45.85007" lon="4.78232">
        <ele>596</ele>
        <time>2012-03-17T15:59:12Z</time>
      </trkpt>
      <trkpt lat="45.85004" lon="4.78225">
        <ele>596</ele>
        <time>2012-03-17T15:59:14Z</time>
      </trkpt>
      <trkpt lat="45.84987" lon="4.78197">
        <ele>596</ele>
        <time>2012-03-17T15:59:23Z</time>
      </trkpt>
      <trkpt lat="45.84983" lon="4.78191">
        <ele>596</ele>
        <time>2012-03-17T15:59:25Z</time>
      </trkpt>
      <trkpt lat="45.84974" lon="4.78178">
        <ele>596</ele>
        <time>2012-03-17T15:59:29Z</time>
      </trkpt>
      <trkpt lat="45.84957" lon="4.78157">
        <ele>599</ele>
        <time>2012-03-17T15:59:36Z</time>
      </trkpt>
      <trkpt lat="45.84955" lon="4.78154">
        <ele>599</ele>
        <time>2012-03-17T15:59:37Z</time>
      </trkpt>
      <trkpt lat="45.84938" lon="4.78121">
        <ele>600</ele>
        <time>2012-03-17T15:59:45Z</time>
      </trkpt>
      <trkpt lat="45.84933" lon="4.78113">
        <ele>600</ele>
        <time>2012-03-17T15:59:47Z</time>
      </trkpt>
      <trkpt lat="45.84922" lon="4.78099">
        <ele>601</ele>
        <time>2012-03-17T15:59:51Z</time>
      </trkpt>
      <trkpt lat="45.84907" lon="4.78087">
        <ele>598</ele>
        <time>2012-03-17T15:59:56Z</time>
      </trkpt>
      <trkpt lat="45.849" lon="4.78082">
        <ele>602</ele>
        <time>2012-03-17T15:59:58Z</time>
      </trkpt>
      <trkpt lat="45.84886" lon="4.78071">
        <ele>601</ele>
        <time>2012-03-17T16:00:02Z</time>
      </trkpt>
      <trkpt lat="45.84868" lon="4.78056">
        <ele>600</ele>
        <time>2012-03-17T16:00:06Z</time>
      </trkpt>
      <trkpt lat="45.84863" lon="4.78052">
        <ele>600</ele>
        <time>2012-03-17T16:00:07Z</time>
      </trkpt>
      <trkpt lat="45.84832" lon="4.7803">
        <ele>598</ele>
        <time>2012-03-17T16:00:12Z</time>
      </trkpt>
      <trkpt lat="45.84802" lon="4.78018">
        <ele>597</ele>
        <time>2012-03-17T16:00:16Z</time>
      </trkpt>
      <trkpt lat="45.84794" lon="4.78017">
        <ele>597</ele>
        <time>2012-03-17T16:00:17Z</time>
      </trkpt>
      <trkpt lat="45.84751" lon="4.78019">
        <ele>596</ele>
        <time>2012-03-17T16:00:22Z</time>
      </trkpt>
      <trkpt lat="45.84714" lon="4.78024">
        <ele>592</ele>
        <time>2012-03-17T16:00:27Z</time>
      </trkpt>
      <trkpt lat="45.84695" lon="4.78024">
        <ele>592</ele>
        <time>2012-03-17T16:00:31Z</time>
      </trkpt>
      <trkpt lat="45.84685" lon="4.78022">
        <ele>592</ele>
        <time>2012-03-17T16:00:35Z</time>
      </trkpt>
      <trkpt lat="45.84677" lon="4.78022">
        <ele>591</ele>
        <time>2012-03-17T16:00:39Z</time>
      </trkpt>
      <trkpt lat="45.84676" lon="4.78023">
        <ele>591</ele>
        <time>2012-03-17T16:00:40Z</time>
      </trkpt>
      <trkpt lat="45.84676" lon="4.78024">
        <ele>591</ele>
        <time>2012-03-17T16:00:41Z</time>
      </trkpt>
      <trkpt lat="45.84676" lon="4.78034">
        <ele>591</ele>
        <time>2012-03-17T16:00:44Z</time>
      </trkpt>
      <trkpt lat="45.84676" lon="4.78048">
        <ele>591</ele>
        <time>2012-03-17T16:00:48Z</time>
      </trkpt>
      <trkpt lat="45.84674" lon="4.78052">
        <ele>591</ele>
        <time>2012-03-17T16:00:50Z</time>
      </trkpt>
      <trkpt lat="45.84673" lon="4.78054">
        <ele>591</ele>
        <time>2012-03-17T16:00:53Z</time>
      </trkpt>
      <trkpt lat="45.84674" lon="4.78046">
        <ele>591</ele>
        <time>2012-03-17T16:03:51Z</time>
      </trkpt>
      <trkpt lat="45.84679" lon="4.78048">
        <ele>591</ele>
        <time>2012-03-17T16:03:59Z</time>
      </trkpt>
      <trkpt lat="45.84677" lon="4.78057">
        <ele>591</ele>
        <time>2012-03-17T16:04:19Z</time>
      </trkpt>
      <trkpt lat="45.84675" lon="4.78058">
        <ele>591</ele>
        <time>2012-03-17T16:04:47Z</time>
      </trkpt>
      <trkpt lat="45.84675" lon="4.7806">
        <ele>591</ele>
        <time>2012-03-17T16:04:49Z</time>
      </trkpt>
      <trkpt lat="45.84676" lon="4.78066">
        <ele>591</ele>
        <time>2012-03-17T16:04:52Z</time>
      </trkpt>
      <trkpt lat="45.84682" lon="4.78072">
        <ele>591</ele>
        <time>2012-03-17T16:04:56Z</time>
      </trkpt>
      <trkpt lat="45.84689" lon="4.78083">
        <ele>587</ele>
        <time>2012-03-17T16:04:59Z</time>
      </trkpt>
      <trkpt lat="45.84691" lon="4.78089">
        <ele>587</ele>
        <time>2012-03-17T16:05:00Z</time>
      </trkpt>
      <trkpt lat="45.84693" lon="4.78093">
        <ele>586</ele>
        <time>2012-03-17T16:05:01Z</time>
      </trkpt>
      <trkpt lat="45.847" lon="4.78106">
        <ele>585</ele>
        <time>2012-03-17T16:05:04Z</time>
      </trkpt>
      <trkpt lat="45.84702" lon="4.7811">
        <ele>585</ele>
        <time>2012-03-17T16:05:05Z</time>
      </trkpt>
      <trkpt lat="45.847" lon="4.78119">
        <ele>584</ele>
        <time>2012-03-17T16:05:07Z</time>
      </trkpt>
      <trkpt lat="45.84698" lon="4.78134">
        <ele>583</ele>
        <time>2012-03-17T16:05:09Z</time>
      </trkpt>
      <trkpt lat="45.84698" lon="4.78142">
        <ele>583</ele>
        <time>2012-03-17T16:05:10Z</time>
      </trkpt>
      <trkpt lat="45.84697" lon="4.78159">
        <ele>582</ele>
        <time>2012-03-17T16:05:12Z</time>
      </trkpt>
      <trkpt lat="45.84693" lon="4.78177">
        <ele>578</ele>
        <time>2012-03-17T16:05:15Z</time>
      </trkpt>
      <trkpt lat="45.84691" lon="4.78183">
        <ele>578</ele>
        <time>2012-03-17T16:05:16Z</time>
      </trkpt>
      <trkpt lat="45.84692" lon="4.78187">
        <ele>578</ele>
        <time>2012-03-17T16:05:17Z</time>
      </trkpt>
      <trkpt lat="45.8469" lon="4.78196">
        <ele>577</ele>
        <time>2012-03-17T16:05:20Z</time>
      </trkpt>
      <trkpt lat="45.8468" lon="4.78208">
        <ele>577</ele>
        <time>2012-03-17T16:05:24Z</time>
      </trkpt>
      <trkpt lat="45.84675" lon="4.7822">
        <ele>576</ele>
        <time>2012-03-17T16:05:26Z</time>
      </trkpt>
      <trkpt lat="45.84676" lon="4.78233">
        <ele>576</ele>
        <time>2012-03-17T16:05:28Z</time>
      </trkpt>
      <trkpt lat="45.84678" lon="4.78239">
        <ele>576</ele>
        <time>2012-03-17T16:05:29Z</time>
      </trkpt>
      <trkpt lat="45.84678" lon="4.78263">
        <ele>572</ele>
        <time>2012-03-17T16:05:32Z</time>
      </trkpt>
      <trkpt lat="45.84678" lon="4.78271">
        <ele>571</ele>
        <time>2012-03-17T16:05:33Z</time>
      </trkpt>
      <trkpt lat="45.84676" lon="4.78288">
        <ele>570</ele>
        <time>2012-03-17T16:05:35Z</time>
      </trkpt>
      <trkpt lat="45.84676" lon="4.78296">
        <ele>569</ele>
        <time>2012-03-17T16:05:36Z</time>
      </trkpt>
      <trkpt lat="45.84663" lon="4.7833">
        <ele>567</ele>
        <time>2012-03-17T16:05:40Z</time>
      </trkpt>
      <trkpt lat="45.8466" lon="4.78336">
        <ele>564</ele>
        <time>2012-03-17T16:05:41Z</time>
      </trkpt>
      <trkpt lat="45.84646" lon="4.78351">
        <ele>562</ele>
        <time>2012-03-17T16:05:44Z</time>
      </trkpt>
      <trkpt lat="45.84631" lon="4.78358">
        <ele>561</ele>
        <time>2012-03-17T16:05:48Z</time>
      </trkpt>
      <trkpt lat="45.84627" lon="4.78359">
        <ele>561</ele>
        <time>2012-03-17T16:05:49Z</time>
      </trkpt>
      <trkpt lat="45.84613" lon="4.78363">
        <ele>561</ele>
        <time>2012-03-17T16:05:54Z</time>
      </trkpt>
      <trkpt lat="45.84602" lon="4.78362">
        <ele>561</ele>
        <time>2012-03-17T16:05:58Z</time>
      </trkpt>
      <trkpt lat="45.84599" lon="4.78362">
        <ele>562</ele>
        <time>2012-03-17T16:05:59Z</time>
      </trkpt>
      <trkpt lat="45.84591" lon="4.78359">
        <ele>562</ele>
        <time>2012-03-17T16:06:02Z</time>
      </trkpt>
      <trkpt lat="45.84581" lon="4.78358">
        <ele>561</ele>
        <time>2012-03-17T16:06:06Z</time>
      </trkpt>
      <trkpt lat="45.84568" lon="4.78357">
        <ele>561</ele>
        <time>2012-03-17T16:06:12Z</time>
      </trkpt>
      <trkpt lat="45.84558" lon="4.78352">
        <ele>561</ele>
        <time>2012-03-17T16:06:17Z</time>
      </trkpt>
      <trkpt lat="45.84553" lon="4.78349">
        <ele>561</ele>
        <time>2012-03-17T16:06:19Z</time>
      </trkpt>
      <trkpt lat="45.84541" lon="4.78343">
        <ele>560</ele>
        <time>2012-03-17T16:06:23Z</time>
      </trkpt>
      <trkpt lat="45.84523" lon="4.7833">
        <ele>568</ele>
        <time>2012-03-17T16:06:28Z</time>
      </trkpt>
      <trkpt lat="45.84518" lon="4.78328">
        <ele>567</ele>
        <time>2012-03-17T16:06:29Z</time>
      </trkpt>
      <trkpt lat="45.84512" lon="4.78326">
        <ele>566</ele>
        <time>2012-03-17T16:06:30Z</time>
      </trkpt>
      <trkpt lat="45.84494" lon="4.78322">
        <ele>563</ele>
        <time>2012-03-17T16:06:33Z</time>
      </trkpt>
      <trkpt lat="45.84478" lon="4.78321">
        <ele>562</ele>
        <time>2012-03-17T16:06:35Z</time>
      </trkpt>
      <trkpt lat="45.84465" lon="4.78324">
        <ele>561</ele>
        <time>2012-03-17T16:06:37Z</time>
      </trkpt>
      <trkpt lat="45.84459" lon="4.78322">
        <ele>561</ele>
        <time>2012-03-17T16:06:38Z</time>
      </trkpt>
      <trkpt lat="45.84438" lon="4.78319">
        <ele>559</ele>
        <time>2012-03-17T16:06:41Z</time>
      </trkpt>
      <trkpt lat="45.84417" lon="4.78312">
        <ele>557</ele>
        <time>2012-03-17T16:06:44Z</time>
      </trkpt>
      <trkpt lat="45.8441" lon="4.7831">
        <ele>552</ele>
        <time>2012-03-17T16:06:45Z</time>
      </trkpt>
      <trkpt lat="45.84403" lon="4.78307">
        <ele>552</ele>
        <time>2012-03-17T16:06:46Z</time>
      </trkpt>
      <trkpt lat="45.84376" lon="4.783">
        <ele>551</ele>
        <time>2012-03-17T16:06:50Z</time>
      </trkpt>
      <trkpt lat="45.8437" lon="4.783">
        <ele>551</ele>
        <time>2012-03-17T16:06:51Z</time>
      </trkpt>
      <trkpt lat="45.84366" lon="4.78302">
        <ele>550</ele>
        <time>2012-03-17T16:06:52Z</time>
      </trkpt>
      <trkpt lat="45.84355" lon="4.78304">
        <ele>549</ele>
        <time>2012-03-17T16:06:54Z</time>
      </trkpt>
      <trkpt lat="45.8435" lon="4.78307">
        <ele>548</ele>
        <time>2012-03-17T16:06:55Z</time>
      </trkpt>
      <trkpt lat="45.84333" lon="4.78318">
        <ele>543</ele>
        <time>2012-03-17T16:06:58Z</time>
      </trkpt>
      <trkpt lat="45.84328" lon="4.7832">
        <ele>543</ele>
        <time>2012-03-17T16:06:59Z</time>
      </trkpt>
      <trkpt lat="45.84315" lon="4.78323">
        <ele>544</ele>
        <time>2012-03-17T16:07:02Z</time>
      </trkpt>
      <trkpt lat="45.84289" lon="4.78321">
        <ele>546</ele>
        <time>2012-03-17T16:07:08Z</time>
      </trkpt>
      <trkpt lat="45.84266" lon="4.78332">
        <ele>547</ele>
        <time>2012-03-17T16:07:14Z</time>
      </trkpt>
      <trkpt lat="45.84256" lon="4.78347">
        <ele>545</ele>
        <time>2012-03-17T16:07:18Z</time>
      </trkpt>
      <trkpt lat="45.84254" lon="4.78352">
        <ele>545</ele>
        <time>2012-03-17T16:07:19Z</time>
      </trkpt>
      <trkpt lat="45.84253" lon="4.78381">
        <ele>545</ele>
        <time>2012-03-17T16:07:24Z</time>
      </trkpt>
      <trkpt lat="45.84254" lon="4.78403">
        <ele>547</ele>
        <time>2012-03-17T16:07:28Z</time>
      </trkpt>
      <trkpt lat="45.84254" lon="4.78414">
        <ele>549</ele>
        <time>2012-03-17T16:07:30Z</time>
      </trkpt>
      <trkpt lat="45.84261" lon="4.78444">
        <ele>548</ele>
        <time>2012-03-17T16:07:37Z</time>
      </trkpt>
      <trkpt lat="45.84261" lon="4.78454">
        <ele>548</ele>
        <time>2012-03-17T16:07:39Z</time>
      </trkpt>
      <trkpt lat="45.84262" lon="4.78468">
        <ele>550</ele>
        <time>2012-03-17T16:07:42Z</time>
      </trkpt>
      <trkpt lat="45.84266" lon="4.78487">
        <ele>552</ele>
        <time>2012-03-17T16:07:47Z</time>
      </trkpt>
      <trkpt lat="45.84269" lon="4.78505">
        <ele>555</ele>
        <time>2012-03-17T16:07:52Z</time>
      </trkpt>
      <trkpt lat="45.84273" lon="4.78524">
        <ele>553</ele>
        <time>2012-03-17T16:07:57Z</time>
      </trkpt>
      <trkpt lat="45.84274" lon="4.78546">
        <ele>553</ele>
        <time>2012-03-17T16:08:03Z</time>
      </trkpt>
      <trkpt lat="45.84276" lon="4.78559">
        <ele>554</ele>
        <time>2012-03-17T16:08:06Z</time>
      </trkpt>
      <trkpt lat="45.84279" lon="4.7857">
        <ele>554</ele>
        <time>2012-03-17T16:08:09Z</time>
      </trkpt>
      <trkpt lat="45.84282" lon="4.78593">
        <ele>555</ele>
        <time>2012-03-17T16:08:15Z</time>
      </trkpt>
      <trkpt lat="45.8428" lon="4.78608">
        <ele>554</ele>
        <time>2012-03-17T16:08:20Z</time>
      </trkpt>
      <trkpt lat="45.84278" lon="4.7861">
        <ele>555</ele>
        <time>2012-03-17T16:08:21Z</time>
      </trkpt>
      <trkpt lat="45.84272" lon="4.78622">
        <ele>555</ele>
        <time>2012-03-17T16:08:25Z</time>
      </trkpt>
      <trkpt lat="45.84263" lon="4.78638">
        <ele>555</ele>
        <time>2012-03-17T16:08:31Z</time>
      </trkpt>
      <trkpt lat="45.84257" lon="4.78654">
        <ele>557</ele>
        <time>2012-03-17T16:08:36Z</time>
      </trkpt>
      <trkpt lat="45.84252" lon="4.78667">
        <ele>559</ele>
        <time>2012-03-17T16:08:40Z</time>
      </trkpt>
      <trkpt lat="45.84244" lon="4.78692">
        <ele>561</ele>
        <time>2012-03-17T16:08:46Z</time>
      </trkpt>
      <trkpt lat="45.84242" lon="4.78704">
        <ele>561</ele>
        <time>2012-03-17T16:08:49Z</time>
      </trkpt>
      <trkpt lat="45.84239" lon="4.78715">
        <ele>561</ele>
        <time>2012-03-17T16:08:52Z</time>
      </trkpt>
      <trkpt lat="45.84234" lon="4.78738">
        <ele>560</ele>
        <time>2012-03-17T16:08:58Z</time>
      </trkpt>
      <trkpt lat="45.84229" lon="4.78755">
        <ele>559</ele>
        <time>2012-03-17T16:09:03Z</time>
      </trkpt>
      <trkpt lat="45.84224" lon="4.78781">
        <ele>560</ele>
        <time>2012-03-17T16:09:09Z</time>
      </trkpt>
      <trkpt lat="45.84222" lon="4.788">
        <ele>560</ele>
        <time>2012-03-17T16:09:14Z</time>
      </trkpt>
      <trkpt lat="45.84221" lon="4.78806">
        <ele>560</ele>
        <time>2012-03-17T16:09:16Z</time>
      </trkpt>
      <trkpt lat="45.84218" lon="4.78821">
        <ele>560</ele>
        <time>2012-03-17T16:09:20Z</time>
      </trkpt>
      <trkpt lat="45.84213" lon="4.78851">
        <ele>559</ele>
        <time>2012-03-17T16:09:27Z</time>
      </trkpt>
      <trkpt lat="45.84213" lon="4.78856">
        <ele>559</ele>
        <time>2012-03-17T16:09:28Z</time>
      </trkpt>
      <trkpt lat="45.84214" lon="4.78879">
        <ele>559</ele>
        <time>2012-03-17T16:09:33Z</time>
      </trkpt>
      <trkpt lat="45.84213" lon="4.78906">
        <ele>558</ele>
        <time>2012-03-17T16:09:38Z</time>
      </trkpt>
      <trkpt lat="45.84211" lon="4.78912">
        <ele>558</ele>
        <time>2012-03-17T16:09:39Z</time>
      </trkpt>
      <trkpt lat="45.84203" lon="4.78934">
        <ele>556</ele>
        <time>2012-03-17T16:09:43Z</time>
      </trkpt>
      <trkpt lat="45.84195" lon="4.78942">
        <ele>555</ele>
        <time>2012-03-17T16:09:45Z</time>
      </trkpt>
      <trkpt lat="45.84191" lon="4.78947">
        <ele>555</ele>
        <time>2012-03-17T16:09:46Z</time>
      </trkpt>
      <trkpt lat="45.84189" lon="4.78951">
        <ele>555</ele>
        <time>2012-03-17T16:09:47Z</time>
      </trkpt>
      <trkpt lat="45.84187" lon="4.78956">
        <ele>555</ele>
        <time>2012-03-17T16:09:48Z</time>
      </trkpt>
      <trkpt lat="45.84183" lon="4.78968">
        <ele>554</ele>
        <time>2012-03-17T16:09:50Z</time>
      </trkpt>
      <trkpt lat="45.84178" lon="4.78983">
        <ele>553</ele>
        <time>2012-03-17T16:09:53Z</time>
      </trkpt>
      <trkpt lat="45.84176" lon="4.78999">
        <ele>552</ele>
        <time>2012-03-17T16:09:57Z</time>
      </trkpt>
      <trkpt lat="45.84176" lon="4.79001">
        <ele>550</ele>
        <time>2012-03-17T16:09:58Z</time>
      </trkpt>
      <trkpt lat="45.84174" lon="4.79014">
        <ele>549</ele>
        <time>2012-03-17T16:10:01Z</time>
      </trkpt>
      <trkpt lat="45.84169" lon="4.79044">
        <ele>546</ele>
        <time>2012-03-17T16:10:06Z</time>
      </trkpt>
      <trkpt lat="45.84168" lon="4.79051">
        <ele>546</ele>
        <time>2012-03-17T16:10:07Z</time>
      </trkpt>
      <trkpt lat="45.84164" lon="4.79077">
        <ele>542</ele>
        <time>2012-03-17T16:10:11Z</time>
      </trkpt>
      <trkpt lat="45.84163" lon="4.79095">
        <ele>538</ele>
        <time>2012-03-17T16:10:16Z</time>
      </trkpt>
      <trkpt lat="45.84163" lon="4.79103">
        <ele>537</ele>
        <time>2012-03-17T16:10:18Z</time>
      </trkpt>
      <trkpt lat="45.84161" lon="4.79119">
        <ele>535</ele>
        <time>2012-03-17T16:10:22Z</time>
      </trkpt>
      <trkpt lat="45.8416" lon="4.79139">
        <ele>533</ele>
        <time>2012-03-17T16:10:27Z</time>
      </trkpt>
      <trkpt lat="45.84162" lon="4.79157">
        <ele>531</ele>
        <time>2012-03-17T16:10:30Z</time>
      </trkpt>
      <trkpt lat="45.84165" lon="4.79163">
        <ele>531</ele>
        <time>2012-03-17T16:10:31Z</time>
      </trkpt>
      <trkpt lat="45.84184" lon="4.79192">
        <ele>529</ele>
        <time>2012-03-17T16:10:36Z</time>
      </trkpt>
      <trkpt lat="45.84189" lon="4.79198">
        <ele>529</ele>
        <time>2012-03-17T16:10:37Z</time>
      </trkpt>
      <trkpt lat="45.84212" lon="4.79229">
        <ele>528</ele>
        <time>2012-03-17T16:10:41Z</time>
      </trkpt>
      <trkpt lat="45.84219" lon="4.79239">
        <ele>528</ele>
        <time>2012-03-17T16:10:42Z</time>
      </trkpt>
      <trkpt lat="45.84225" lon="4.79248">
        <ele>529</ele>
        <time>2012-03-17T16:10:43Z</time>
      </trkpt>
      <trkpt lat="45.84232" lon="4.79271">
        <ele>527</ele>
        <time>2012-03-17T16:10:45Z</time>
      </trkpt>
      <trkpt lat="45.84231" lon="4.79294">
        <ele>527</ele>
        <time>2012-03-17T16:10:47Z</time>
      </trkpt>
      <trkpt lat="45.8422" lon="4.79309">
        <ele>526</ele>
        <time>2012-03-17T16:10:49Z</time>
      </trkpt>
      <trkpt lat="45.84198" lon="4.79322">
        <ele>526</ele>
        <time>2012-03-17T16:10:53Z</time>
      </trkpt>
      <trkpt lat="45.84176" lon="4.79334">
        <ele>527</ele>
        <time>2012-03-17T16:10:57Z</time>
      </trkpt>
      <trkpt lat="45.84163" lon="4.79343">
        <ele>527</ele>
        <time>2012-03-17T16:10:59Z</time>
      </trkpt>
      <trkpt lat="45.84142" lon="4.79355">
        <ele>528</ele>
        <time>2012-03-17T16:11:02Z</time>
      </trkpt>
      <trkpt lat="45.84129" lon="4.79362">
        <ele>528</ele>
        <time>2012-03-17T16:11:04Z</time>
      </trkpt>
      <trkpt lat="45.84106" lon="4.79376">
        <ele>529</ele>
        <time>2012-03-17T16:11:08Z</time>
      </trkpt>
      <trkpt lat="45.84096" lon="4.79383">
        <ele>530</ele>
        <time>2012-03-17T16:11:10Z</time>
      </trkpt>
      <trkpt lat="45.84078" lon="4.79396">
        <ele>529</ele>
        <time>2012-03-17T16:11:14Z</time>
      </trkpt>
      <trkpt lat="45.84062" lon="4.79409">
        <ele>528</ele>
        <time>2012-03-17T16:11:18Z</time>
      </trkpt>
      <trkpt lat="45.84048" lon="4.7942">
        <ele>537</ele>
        <time>2012-03-17T16:11:22Z</time>
      </trkpt>
      <trkpt lat="45.8403" lon="4.79434">
        <ele>537</ele>
        <time>2012-03-17T16:11:28Z</time>
      </trkpt>
      <trkpt lat="45.84006" lon="4.79455">
        <ele>538</ele>
        <time>2012-03-17T16:11:36Z</time>
      </trkpt>
      <trkpt lat="45.83999" lon="4.7946">
        <ele>531</ele>
        <time>2012-03-17T16:11:38Z</time>
      </trkpt>
      <trkpt lat="45.83973" lon="4.79482">
        <ele>532</ele>
        <time>2012-03-17T16:11:45Z</time>
      </trkpt>
      <trkpt lat="45.83966" lon="4.79488">
        <ele>531</ele>
        <time>2012-03-17T16:11:47Z</time>
      </trkpt>
      <trkpt lat="45.83943" lon="4.79503">
        <ele>538</ele>
        <time>2012-03-17T16:11:53Z</time>
      </trkpt>
      <trkpt lat="45.83932" lon="4.79512">
        <ele>536</ele>
        <time>2012-03-17T16:11:56Z</time>
      </trkpt>
      <trkpt lat="45.83922" lon="4.79519">
        <ele>536</ele>
        <time>2012-03-17T16:11:59Z</time>
      </trkpt>
      <trkpt lat="45.83908" lon="4.79539">
        <ele>526</ele>
        <time>2012-03-17T16:12:04Z</time>
      </trkpt>
      <trkpt lat="45.83903" lon="4.79549">
        <ele>527</ele>
        <time>2012-03-17T16:12:06Z</time>
      </trkpt>
      <trkpt lat="45.83889" lon="4.79576">
        <ele>527</ele>
        <time>2012-03-17T16:12:11Z</time>
      </trkpt>
      <trkpt lat="45.83881" lon="4.79594">
        <ele>532</ele>
        <time>2012-03-17T16:12:14Z</time>
      </trkpt>
      <trkpt lat="45.83864" lon="4.79631">
        <ele>530</ele>
        <time>2012-03-17T16:12:20Z</time>
      </trkpt>
      <trkpt lat="45.83861" lon="4.79638">
        <ele>530</ele>
        <time>2012-03-17T16:12:21Z</time>
      </trkpt>
      <trkpt lat="45.83851" lon="4.79673">
        <ele>532</ele>
        <time>2012-03-17T16:12:26Z</time>
      </trkpt>
      <trkpt lat="45.83847" lon="4.79689">
        <ele>534</ele>
        <time>2012-03-17T16:12:28Z</time>
      </trkpt>
      <trkpt lat="45.83841" lon="4.79722">
        <ele>535</ele>
        <time>2012-03-17T16:12:32Z</time>
      </trkpt>
      <trkpt lat="45.83836" lon="4.7974">
        <ele>533</ele>
        <time>2012-03-17T16:12:34Z</time>
      </trkpt>
      <trkpt lat="45.83823" lon="4.79774">
        <ele>525</ele>
        <time>2012-03-17T16:12:38Z</time>
      </trkpt>
      <trkpt lat="45.83814" lon="4.79791">
        <ele>524</ele>
        <time>2012-03-17T16:12:40Z</time>
      </trkpt>
      <trkpt lat="45.8379" lon="4.79838">
        <ele>525</ele>
        <time>2012-03-17T16:12:45Z</time>
      </trkpt>
      <trkpt lat="45.83767" lon="4.79884">
        <ele>524</ele>
        <time>2012-03-17T16:12:50Z</time>
      </trkpt>
      <trkpt lat="45.83757" lon="4.799">
        <ele>524</ele>
        <time>2012-03-17T16:12:52Z</time>
      </trkpt>
      <trkpt lat="45.83737" lon="4.79912">
        <ele>520</ele>
        <time>2012-03-17T16:12:55Z</time>
      </trkpt>
      <trkpt lat="45.83714" lon="4.79913">
        <ele>517</ele>
        <time>2012-03-17T16:12:58Z</time>
      </trkpt>
      <trkpt lat="45.83706" lon="4.79912">
        <ele>516</ele>
        <time>2012-03-17T16:12:59Z</time>
      </trkpt>
      <trkpt lat="45.83698" lon="4.79912">
        <ele>516</ele>
        <time>2012-03-17T16:13:00Z</time>
      </trkpt>
      <trkpt lat="45.83657" lon="4.79914">
        <ele>514</ele>
        <time>2012-03-17T16:13:05Z</time>
      </trkpt>
      <trkpt lat="45.8362" lon="4.79915">
        <ele>511</ele>
        <time>2012-03-17T16:13:09Z</time>
      </trkpt>
      <trkpt lat="45.83611" lon="4.79916">
        <ele>511</ele>
        <time>2012-03-17T16:13:10Z</time>
      </trkpt>
      <trkpt lat="45.83582" lon="4.79917">
        <ele>515</ele>
        <time>2012-03-17T16:13:13Z</time>
      </trkpt>
      <trkpt lat="45.83552" lon="4.79919">
        <ele>511</ele>
        <time>2012-03-17T16:13:16Z</time>
      </trkpt>
      <trkpt lat="45.83542" lon="4.79919">
        <ele>511</ele>
        <time>2012-03-17T16:13:17Z</time>
      </trkpt>
      <trkpt lat="45.83502" lon="4.79925">
        <ele>509</ele>
        <time>2012-03-17T16:13:21Z</time>
      </trkpt>
      <trkpt lat="45.83493" lon="4.79928">
        <ele>507</ele>
        <time>2012-03-17T16:13:22Z</time>
      </trkpt>
      <trkpt lat="45.83464" lon="4.79939">
        <ele>504</ele>
        <time>2012-03-17T16:13:25Z</time>
      </trkpt>
      <trkpt lat="45.83434" lon="4.7995">
        <ele>503</ele>
        <time>2012-03-17T16:13:28Z</time>
      </trkpt>
      <trkpt lat="45.83424" lon="4.79953">
        <ele>503</ele>
        <time>2012-03-17T16:13:29Z</time>
      </trkpt>
      <trkpt lat="45.83387" lon="4.79967">
        <ele>500</ele>
        <time>2012-03-17T16:13:33Z</time>
      </trkpt>
      <trkpt lat="45.8338" lon="4.7997">
        <ele>500</ele>
        <time>2012-03-17T16:13:34Z</time>
      </trkpt>
      <trkpt lat="45.83375" lon="4.7997">
        <ele>500</ele>
        <time>2012-03-17T16:13:35Z</time>
      </trkpt>
      <trkpt lat="45.83368" lon="4.79967">
        <ele>500</ele>
        <time>2012-03-17T16:13:37Z</time>
      </trkpt>
      <trkpt lat="45.83356" lon="4.79964">
        <ele>500</ele>
        <time>2012-03-17T16:13:40Z</time>
      </trkpt>
      <trkpt lat="45.8335" lon="4.79966">
        <ele>500</ele>
        <time>2012-03-17T16:13:41Z</time>
      </trkpt>
      <trkpt lat="45.83343" lon="4.79969">
        <ele>500</ele>
        <time>2012-03-17T16:13:42Z</time>
      </trkpt>
      <trkpt lat="45.83328" lon="4.79974">
        <ele>501</ele>
        <time>2012-03-17T16:13:44Z</time>
      </trkpt>
      <trkpt lat="45.83313" lon="4.79979">
        <ele>501</ele>
        <time>2012-03-17T16:13:46Z</time>
      </trkpt>
      <trkpt lat="45.83302" lon="4.79978">
        <ele>502</ele>
        <time>2012-03-17T16:13:48Z</time>
      </trkpt>
      <trkpt lat="45.83293" lon="4.79977">
        <ele>502</ele>
        <time>2012-03-17T16:13:51Z</time>
      </trkpt>
      <trkpt lat="45.8329" lon="4.79978">
        <ele>502</ele>
        <time>2012-03-17T16:13:52Z</time>
      </trkpt>
      <trkpt lat="45.83282" lon="4.79978">
        <ele>502</ele>
        <time>2012-03-17T16:13:54Z</time>
      </trkpt>
      <trkpt lat="45.83274" lon="4.79977">
        <ele>502</ele>
        <time>2012-03-17T16:13:56Z</time>
      </trkpt>
      <trkpt lat="45.83267" lon="4.7998">
        <ele>502</ele>
        <time>2012-03-17T16:13:58Z</time>
      </trkpt>
      <trkpt lat="45.83263" lon="4.79982">
        <ele>502</ele>
        <time>2012-03-17T16:13:59Z</time>
      </trkpt>
      <trkpt lat="45.83258" lon="4.79985">
        <ele>503</ele>
        <time>2012-03-17T16:14:00Z</time>
      </trkpt>
      <trkpt lat="45.83241" lon="4.8">
        <ele>506</ele>
        <time>2012-03-17T16:14:05Z</time>
      </trkpt>
      <trkpt lat="45.83228" lon="4.8001">
        <ele>505</ele>
        <time>2012-03-17T16:14:10Z</time>
      </trkpt>
      <trkpt lat="45.83219" lon="4.8002">
        <ele>505</ele>
        <time>2012-03-17T16:14:14Z</time>
      </trkpt>
      <trkpt lat="45.83211" lon="4.80029">
        <ele>506</ele>
        <time>2012-03-17T16:14:17Z</time>
      </trkpt>
      <trkpt lat="45.83203" lon="4.80031">
        <ele>506</ele>
        <time>2012-03-17T16:14:19Z</time>
      </trkpt>
      <trkpt lat="45.83192" lon="4.80043">
        <ele>506</ele>
        <time>2012-03-17T16:14:23Z</time>
      </trkpt>
      <trkpt lat="45.83179" lon="4.80056">
        <ele>506</ele>
        <time>2012-03-17T16:14:28Z</time>
      </trkpt>
      <trkpt lat="45.83162" lon="4.80077">
        <ele>509</ele>
        <time>2012-03-17T16:14:34Z</time>
      </trkpt>
      <trkpt lat="45.83158" lon="4.80085">
        <ele>505</ele>
        <time>2012-03-17T16:14:36Z</time>
      </trkpt>
      <trkpt lat="45.83152" lon="4.80092">
        <ele>505</ele>
        <time>2012-03-17T16:14:39Z</time>
      </trkpt>
      <trkpt lat="45.83149" lon="4.80096">
        <ele>505</ele>
        <time>2012-03-17T16:14:40Z</time>
      </trkpt>
      <trkpt lat="45.83139" lon="4.80107">
        <ele>505</ele>
        <time>2012-03-17T16:14:43Z</time>
      </trkpt>
      <trkpt lat="45.83118" lon="4.80115">
        <ele>505</ele>
        <time>2012-03-17T16:14:47Z</time>
      </trkpt>
      <trkpt lat="45.83114" lon="4.80117">
        <ele>505</ele>
        <time>2012-03-17T16:14:48Z</time>
      </trkpt>
      <trkpt lat="45.83103" lon="4.80126">
        <ele>504</ele>
        <time>2012-03-17T16:14:51Z</time>
      </trkpt>
      <trkpt lat="45.83098" lon="4.80129">
        <ele>504</ele>
        <time>2012-03-17T16:14:52Z</time>
      </trkpt>
      <trkpt lat="45.83078" lon="4.80147">
        <ele>505</ele>
        <time>2012-03-17T16:14:56Z</time>
      </trkpt>
      <trkpt lat="45.83067" lon="4.80153">
        <ele>505</ele>
        <time>2012-03-17T16:14:58Z</time>
      </trkpt>
      <trkpt lat="45.83047" lon="4.80173">
        <ele>497</ele>
        <time>2012-03-17T16:15:02Z</time>
      </trkpt>
      <trkpt lat="45.8302" lon="4.80212">
        <ele>495</ele>
        <time>2012-03-17T16:15:08Z</time>
      </trkpt>
      <trkpt lat="45.82997" lon="4.80244">
        <ele>493</ele>
        <time>2012-03-17T16:15:12Z</time>
      </trkpt>
      <trkpt lat="45.82991" lon="4.80252">
        <ele>490</ele>
        <time>2012-03-17T16:15:13Z</time>
      </trkpt>
      <trkpt lat="45.82965" lon="4.80287">
        <ele>487</ele>
        <time>2012-03-17T16:15:17Z</time>
      </trkpt>
      <trkpt lat="45.82957" lon="4.80295">
        <ele>486</ele>
        <time>2012-03-17T16:15:18Z</time>
      </trkpt>
      <trkpt lat="45.82939" lon="4.8032">
        <ele>485</ele>
        <time>2012-03-17T16:15:21Z</time>
      </trkpt>
      <trkpt lat="45.82929" lon="4.80332">
        <ele>484</ele>
        <time>2012-03-17T16:15:23Z</time>
      </trkpt>
      <trkpt lat="45.82922" lon="4.80339">
        <ele>481</ele>
        <time>2012-03-17T16:15:24Z</time>
      </trkpt>
      <trkpt lat="45.829" lon="4.80356">
        <ele>477</ele>
        <time>2012-03-17T16:15:29Z</time>
      </trkpt>
      <trkpt lat="45.82895" lon="4.80361">
        <ele>476</ele>
        <time>2012-03-17T16:15:30Z</time>
      </trkpt>
      <trkpt lat="45.82888" lon="4.80369">
        <ele>475</ele>
        <time>2012-03-17T16:15:32Z</time>
      </trkpt>
      <trkpt lat="45.82885" lon="4.80389">
        <ele>474</ele>
        <time>2012-03-17T16:15:34Z</time>
      </trkpt>
      <trkpt lat="45.82879" lon="4.80409">
        <ele>473</ele>
        <time>2012-03-17T16:15:36Z</time>
      </trkpt>
      <trkpt lat="45.82873" lon="4.80429">
        <ele>466</ele>
        <time>2012-03-17T16:15:38Z</time>
      </trkpt>
      <trkpt lat="45.82868" lon="4.8044">
        <ele>465</ele>
        <time>2012-03-17T16:15:39Z</time>
      </trkpt>
      <trkpt lat="45.82854" lon="4.80463">
        <ele>463</ele>
        <time>2012-03-17T16:15:41Z</time>
      </trkpt>
      <trkpt lat="45.82843" lon="4.80473">
        <ele>462</ele>
        <time>2012-03-17T16:15:42Z</time>
      </trkpt>
      <trkpt lat="45.82822" lon="4.80487">
        <ele>456</ele>
        <time>2012-03-17T16:15:44Z</time>
      </trkpt>
      <trkpt lat="45.82811" lon="4.80492">
        <ele>456</ele>
        <time>2012-03-17T16:15:45Z</time>
      </trkpt>
      <trkpt lat="45.82779" lon="4.80506">
        <ele>450</ele>
        <time>2012-03-17T16:15:48Z</time>
      </trkpt>
      <trkpt lat="45.8276" lon="4.80513">
        <ele>449</ele>
        <time>2012-03-17T16:15:50Z</time>
      </trkpt>
      <trkpt lat="45.82741" lon="4.80517">
        <ele>445</ele>
        <time>2012-03-17T16:15:52Z</time>
      </trkpt>
      <trkpt lat="45.82733" lon="4.80521">
        <ele>444</ele>
        <time>2012-03-17T16:15:53Z</time>
      </trkpt>
      <trkpt lat="45.82716" lon="4.80529">
        <ele>442</ele>
        <time>2012-03-17T16:15:55Z</time>
      </trkpt>
      <trkpt lat="45.82707" lon="4.80533">
        <ele>442</ele>
        <time>2012-03-17T16:15:56Z</time>
      </trkpt>
      <trkpt lat="45.82698" lon="4.80539">
        <ele>441</ele>
        <time>2012-03-17T16:15:57Z</time>
      </trkpt>
      <trkpt lat="45.82682" lon="4.80549">
        <ele>440</ele>
        <time>2012-03-17T16:15:59Z</time>
      </trkpt>
      <trkpt lat="45.82669" lon="4.8056">
        <ele>438</ele>
        <time>2012-03-17T16:16:01Z</time>
      </trkpt>
      <trkpt lat="45.82646" lon="4.80573">
        <ele>433</ele>
        <time>2012-03-17T16:16:04Z</time>
      </trkpt>
      <trkpt lat="45.82632" lon="4.80578">
        <ele>433</ele>
        <time>2012-03-17T16:16:06Z</time>
      </trkpt>
      <trkpt lat="45.82627" lon="4.8058">
        <ele>432</ele>
        <time>2012-03-17T16:16:07Z</time>
      </trkpt>
      <trkpt lat="45.82622" lon="4.80582">
        <ele>432</ele>
        <time>2012-03-17T16:16:08Z</time>
      </trkpt>
      <trkpt lat="45.82597" lon="4.80596">
        <ele>426</ele>
        <time>2012-03-17T16:16:13Z</time>
      </trkpt>
      <trkpt lat="45.82593" lon="4.806">
        <ele>426</ele>
        <time>2012-03-17T16:16:14Z</time>
      </trkpt>
      <trkpt lat="45.82583" lon="4.80609">
        <ele>426</ele>
        <time>2012-03-17T16:16:17Z</time>
      </trkpt>
      <trkpt lat="45.8258" lon="4.80612">
        <ele>421</ele>
        <time>2012-03-17T16:16:20Z</time>
      </trkpt>
      <trkpt lat="45.82579" lon="4.80612">
        <ele>421</ele>
        <time>2012-03-17T16:16:23Z</time>
      </trkpt>
      <trkpt lat="45.82575" lon="4.80615">
        <ele>420</ele>
        <time>2012-03-17T16:16:25Z</time>
      </trkpt>
      <trkpt lat="45.82562" lon="4.80626">
        <ele>419</ele>
        <time>2012-03-17T16:16:28Z</time>
      </trkpt>
      <trkpt lat="45.82556" lon="4.8063">
        <ele>419</ele>
        <time>2012-03-17T16:16:29Z</time>
      </trkpt>
      <trkpt lat="45.82534" lon="4.80642">
        <ele>417</ele>
        <time>2012-03-17T16:16:32Z</time>
      </trkpt>
      <trkpt lat="45.82526" lon="4.80645">
        <ele>417</ele>
        <time>2012-03-17T16:16:33Z</time>
      </trkpt>
      <trkpt lat="45.82511" lon="4.80652">
        <ele>415</ele>
        <time>2012-03-17T16:16:35Z</time>
      </trkpt>
      <trkpt lat="45.82488" lon="4.80659">
        <ele>410</ele>
        <time>2012-03-17T16:16:38Z</time>
      </trkpt>
      <trkpt lat="45.82455" lon="4.80664">
        <ele>406</ele>
        <time>2012-03-17T16:16:43Z</time>
      </trkpt>
      <trkpt lat="45.82448" lon="4.80664">
        <ele>405</ele>
        <time>2012-03-17T16:16:44Z</time>
      </trkpt>
      <trkpt lat="45.82427" lon="4.80665">
        <ele>401</ele>
        <time>2012-03-17T16:16:48Z</time>
      </trkpt>
      <trkpt lat="45.82423" lon="4.80666">
        <ele>400</ele>
        <time>2012-03-17T16:16:49Z</time>
      </trkpt>
      <trkpt lat="45.82409" lon="4.80669">
        <ele>394</ele>
        <time>2012-03-17T16:16:53Z</time>
      </trkpt>
      <trkpt lat="45.82401" lon="4.80672">
        <ele>392</ele>
        <time>2012-03-17T16:16:55Z</time>
      </trkpt>
      <trkpt lat="45.82379" lon="4.8068">
        <ele>389</ele>
        <time>2012-03-17T16:17:00Z</time>
      </trkpt>
      <trkpt lat="45.82373" lon="4.8069">
        <ele>388</ele>
        <time>2012-03-17T16:17:02Z</time>
      </trkpt>
      <trkpt lat="45.8237" lon="4.80699">
        <ele>387</ele>
        <time>2012-03-17T16:17:04Z</time>
      </trkpt>
      <trkpt lat="45.8237" lon="4.80705">
        <ele>387</ele>
        <time>2012-03-17T16:17:05Z</time>
      </trkpt>
      <trkpt lat="45.82372" lon="4.80719">
        <ele>387</ele>
        <time>2012-03-17T16:17:07Z</time>
      </trkpt>
      <trkpt lat="45.82367" lon="4.80742">
        <ele>385</ele>
        <time>2012-03-17T16:17:10Z</time>
      </trkpt>
      <trkpt lat="45.82364" lon="4.80764">
        <ele>379</ele>
        <time>2012-03-17T16:17:13Z</time>
      </trkpt>
      <trkpt lat="45.82365" lon="4.80778">
        <ele>379</ele>
        <time>2012-03-17T16:17:15Z</time>
      </trkpt>
      <trkpt lat="45.82366" lon="4.80795">
        <ele>378</ele>
        <time>2012-03-17T16:17:17Z</time>
      </trkpt>
      <trkpt lat="45.82368" lon="4.80818">
        <ele>377</ele>
        <time>2012-03-17T16:17:19Z</time>
      </trkpt>
      <trkpt lat="45.82372" lon="4.80834">
        <ele>371</ele>
        <time>2012-03-17T16:17:22Z</time>
      </trkpt>
      <trkpt lat="45.82371" lon="4.80847">
        <ele>371</ele>
        <time>2012-03-17T16:17:25Z</time>
      </trkpt>
      <trkpt lat="45.82374" lon="4.80851">
        <ele>371</ele>
        <time>2012-03-17T16:17:26Z</time>
      </trkpt>
      <trkpt lat="45.82378" lon="4.80854">
        <ele>371</ele>
        <time>2012-03-17T16:17:27Z</time>
      </trkpt>
      <trkpt lat="45.82386" lon="4.80864">
        <ele>371</ele>
        <time>2012-03-17T16:17:29Z</time>
      </trkpt>
      <trkpt lat="45.824" lon="4.80882">
        <ele>371</ele>
        <time>2012-03-17T16:17:32Z</time>
      </trkpt>
      <trkpt lat="45.82412" lon="4.80893">
        <ele>370</ele>
        <time>2012-03-17T16:17:34Z</time>
      </trkpt>
      <trkpt lat="45.82433" lon="4.8091">
        <ele>374</ele>
        <time>2012-03-17T16:17:37Z</time>
      </trkpt>
      <trkpt lat="45.82451" lon="4.80931">
        <ele>370</ele>
        <time>2012-03-17T16:17:40Z</time>
      </trkpt>
      <trkpt lat="45.82457" lon="4.80937">
        <ele>370</ele>
        <time>2012-03-17T16:17:41Z</time>
      </trkpt>
      <trkpt lat="45.82464" lon="4.80941">
        <ele>371</ele>
        <time>2012-03-17T16:17:42Z</time>
      </trkpt>
      <trkpt lat="45.82472" lon="4.80945">
        <ele>371</ele>
        <time>2012-03-17T16:17:43Z</time>
      </trkpt>
      <trkpt lat="45.82478" lon="4.80949">
        <ele>371</ele>
        <time>2012-03-17T16:17:44Z</time>
      </trkpt>
      <trkpt lat="45.825" lon="4.80955">
        <ele>371</ele>
        <time>2012-03-17T16:17:47Z</time>
      </trkpt>
      <trkpt lat="45.82519" lon="4.80961">
        <ele>375</ele>
        <time>2012-03-17T16:17:50Z</time>
      </trkpt>
      <trkpt lat="45.82538" lon="4.80965">
        <ele>376</ele>
        <time>2012-03-17T16:17:54Z</time>
      </trkpt>
      <trkpt lat="45.82542" lon="4.80965">
        <ele>376</ele>
        <time>2012-03-17T16:17:55Z</time>
      </trkpt>
      <trkpt lat="45.82551" lon="4.80966">
        <ele>376</ele>
        <time>2012-03-17T16:17:57Z</time>
      </trkpt>
      <trkpt lat="45.82567" lon="4.8097">
        <ele>376</ele>
        <time>2012-03-17T16:18:00Z</time>
      </trkpt>
      <trkpt lat="45.82573" lon="4.80972">
        <ele>376</ele>
        <time>2012-03-17T16:18:01Z</time>
      </trkpt>
      <trkpt lat="45.82597" lon="4.80976">
        <ele>379</ele>
        <time>2012-03-17T16:18:05Z</time>
      </trkpt>
      <trkpt lat="45.82611" lon="4.80979">
        <ele>379</ele>
        <time>2012-03-17T16:18:08Z</time>
      </trkpt>
      <trkpt lat="45.82619" lon="4.80984">
        <ele>379</ele>
        <time>2012-03-17T16:18:10Z</time>
      </trkpt>
      <trkpt lat="45.82625" lon="4.80994">
        <ele>380</ele>
        <time>2012-03-17T16:18:12Z</time>
      </trkpt>
      <trkpt lat="45.8263" lon="4.81003">
        <ele>381</ele>
        <time>2012-03-17T16:18:14Z</time>
      </trkpt>
      <trkpt lat="45.82631" lon="4.81007">
        <ele>381</ele>
        <time>2012-03-17T16:18:15Z</time>
      </trkpt>
      <trkpt lat="45.82631" lon="4.81014">
        <ele>381</ele>
        <time>2012-03-17T16:18:17Z</time>
      </trkpt>
      <trkpt lat="45.82631" lon="4.81016">
        <ele>381</ele>
        <time>2012-03-17T16:18:18Z</time>
      </trkpt>
      <trkpt lat="45.82629" lon="4.8102">
        <ele>381</ele>
        <time>2012-03-17T16:18:20Z</time>
      </trkpt>
      <trkpt lat="45.82626" lon="4.81025">
        <ele>381</ele>
        <time>2012-03-17T16:18:22Z</time>
      </trkpt>
      <trkpt lat="45.82618" lon="4.81034">
        <ele>381</ele>
        <time>2012-03-17T16:18:25Z</time>
      </trkpt>
      <trkpt lat="45.82612" lon="4.81041">
        <ele>381</ele>
        <time>2012-03-17T16:18:27Z</time>
      </trkpt>
      <trkpt lat="45.82609" lon="4.81045">
        <ele>381</ele>
        <time>2012-03-17T16:18:28Z</time>
      </trkpt>
      <trkpt lat="45.82602" lon="4.81053">
        <ele>381</ele>
        <time>2012-03-17T16:18:30Z</time>
      </trkpt>
      <trkpt lat="45.82594" lon="4.81059">
        <ele>381</ele>
        <time>2012-03-17T16:18:32Z</time>
      </trkpt>
      <trkpt lat="45.8257" lon="4.81078">
        <ele>378</ele>
        <time>2012-03-17T16:18:38Z</time>
      </trkpt>
      <trkpt lat="45.82565" lon="4.8108">
        <ele>378</ele>
        <time>2012-03-17T16:18:39Z</time>
      </trkpt>
      <trkpt lat="45.82551" lon="4.81087">
        <ele>381</ele>
        <time>2012-03-17T16:18:42Z</time>
      </trkpt>
      <trkpt lat="45.82541" lon="4.81091">
        <ele>380</ele>
        <time>2012-03-17T16:18:44Z</time>
      </trkpt>
      <trkpt lat="45.82536" lon="4.81094">
        <ele>380</ele>
        <time>2012-03-17T16:18:45Z</time>
      </trkpt>
      <trkpt lat="45.82531" lon="4.81096">
        <ele>379</ele>
        <time>2012-03-17T16:18:46Z</time>
      </trkpt>
      <trkpt lat="45.82502" lon="4.81113">
        <ele>378</ele>
        <time>2012-03-17T16:18:52Z</time>
      </trkpt>
      <trkpt lat="45.82494" lon="4.81119">
        <ele>373</ele>
        <time>2012-03-17T16:18:54Z</time>
      </trkpt>
      <trkpt lat="45.82473" lon="4.81136">
        <ele>373</ele>
        <time>2012-03-17T16:18:59Z</time>
      </trkpt>
      <trkpt lat="45.82462" lon="4.81148">
        <ele>373</ele>
        <time>2012-03-17T16:19:02Z</time>
      </trkpt>
      <trkpt lat="45.82448" lon="4.81165">
        <ele>372</ele>
        <time>2012-03-17T16:19:06Z</time>
      </trkpt>
      <trkpt lat="45.82432" lon="4.81185">
        <ele>379</ele>
        <time>2012-03-17T16:19:10Z</time>
      </trkpt>
      <trkpt lat="45.82416" lon="4.81203">
        <ele>373</ele>
        <time>2012-03-17T16:19:14Z</time>
      </trkpt>
      <trkpt lat="45.82404" lon="4.81218">
        <ele>374</ele>
        <time>2012-03-17T16:19:17Z</time>
      </trkpt>
      <trkpt lat="45.82392" lon="4.81232">
        <ele>374</ele>
        <time>2012-03-17T16:19:20Z</time>
      </trkpt>
      <trkpt lat="45.82388" lon="4.81238">
        <ele>374</ele>
        <time>2012-03-17T16:19:21Z</time>
      </trkpt>
      <trkpt lat="45.82377" lon="4.81255">
        <ele>380</ele>
        <time>2012-03-17T16:19:24Z</time>
      </trkpt>
      <trkpt lat="45.82371" lon="4.81266">
        <ele>380</ele>
        <time>2012-03-17T16:19:26Z</time>
      </trkpt>
      <trkpt lat="45.82369" lon="4.81272">
        <ele>380</ele>
        <time>2012-03-17T16:19:27Z</time>
      </trkpt>
      <trkpt lat="45.82355" lon="4.81301">
        <ele>380</ele>
        <time>2012-03-17T16:19:32Z</time>
      </trkpt>
      <trkpt lat="45.82351" lon="4.81308">
        <ele>379</ele>
        <time>2012-03-17T16:19:33Z</time>
      </trkpt>
      <trkpt lat="45.82334" lon="4.81344">
        <ele>380</ele>
        <time>2012-03-17T16:19:38Z</time>
      </trkpt>
      <trkpt lat="45.82326" lon="4.81361">
        <ele>372</ele>
        <time>2012-03-17T16:19:40Z</time>
      </trkpt>
      <trkpt lat="45.82312" lon="4.81386">
        <ele>373</ele>
        <time>2012-03-17T16:19:43Z</time>
      </trkpt>
      <trkpt lat="45.82307" lon="4.81394">
        <ele>373</ele>
        <time>2012-03-17T16:19:44Z</time>
      </trkpt>
      <trkpt lat="45.82294" lon="4.81406">
        <ele>372</ele>
        <time>2012-03-17T16:19:46Z</time>
      </trkpt>
      <trkpt lat="45.82278" lon="4.81416">
        <ele>370</ele>
        <time>2012-03-17T16:19:48Z</time>
      </trkpt>
      <trkpt lat="45.82271" lon="4.81419">
        <ele>374</ele>
        <time>2012-03-17T16:19:49Z</time>
      </trkpt>
      <trkpt lat="45.82255" lon="4.81424">
        <ele>371</ele>
        <time>2012-03-17T16:19:51Z</time>
      </trkpt>
      <trkpt lat="45.82239" lon="4.8143">
        <ele>369</ele>
        <time>2012-03-17T16:19:53Z</time>
      </trkpt>
      <trkpt lat="45.82209" lon="4.8144">
        <ele>369</ele>
        <time>2012-03-17T16:19:57Z</time>
      </trkpt>
      <trkpt lat="45.82203" lon="4.81441">
        <ele>369</ele>
        <time>2012-03-17T16:19:58Z</time>
      </trkpt>
      <trkpt lat="45.82163" lon="4.81453">
        <ele>365</ele>
        <time>2012-03-17T16:20:04Z</time>
      </trkpt>
      <trkpt lat="45.82142" lon="4.81458">
        <ele>365</ele>
        <time>2012-03-17T16:20:07Z</time>
      </trkpt>
      <trkpt lat="45.82127" lon="4.8146">
        <ele>364</ele>
        <time>2012-03-17T16:20:09Z</time>
      </trkpt>
      <trkpt lat="45.8212" lon="4.81462">
        <ele>364</ele>
        <time>2012-03-17T16:20:10Z</time>
      </trkpt>
      <trkpt lat="45.82082" lon="4.81467">
        <ele>361</ele>
        <time>2012-03-17T16:20:15Z</time>
      </trkpt>
      <trkpt lat="45.82045" lon="4.81464">
        <ele>360</ele>
        <time>2012-03-17T16:20:20Z</time>
      </trkpt>
      <trkpt lat="45.82032" lon="4.8146">
        <ele>360</ele>
        <time>2012-03-17T16:20:22Z</time>
      </trkpt>
      <trkpt lat="45.82006" lon="4.81453">
        <ele>359</ele>
        <time>2012-03-17T16:20:26Z</time>
      </trkpt>
      <trkpt lat="45.81989" lon="4.81447">
        <ele>356</ele>
        <time>2012-03-17T16:20:29Z</time>
      </trkpt>
      <trkpt lat="45.81967" lon="4.81436">
        <ele>356</ele>
        <time>2012-03-17T16:20:33Z</time>
      </trkpt>
      <trkpt lat="45.81954" lon="4.81433">
        <ele>356</ele>
        <time>2012-03-17T16:20:35Z</time>
      </trkpt>
      <trkpt lat="45.81926" lon="4.81431">
        <ele>355</ele>
        <time>2012-03-17T16:20:39Z</time>
      </trkpt>
      <trkpt lat="45.81912" lon="4.81428">
        <ele>355</ele>
        <time>2012-03-17T16:20:41Z</time>
      </trkpt>
      <trkpt lat="45.8189" lon="4.81426">
        <ele>355</ele>
        <time>2012-03-17T16:20:44Z</time>
      </trkpt>
      <trkpt lat="45.81871" lon="4.8143">
        <ele>355</ele>
        <time>2012-03-17T16:20:47Z</time>
      </trkpt>
      <trkpt lat="45.81853" lon="4.81435">
        <ele>355</ele>
        <time>2012-03-17T16:20:50Z</time>
      </trkpt>
      <trkpt lat="45.81844" lon="4.81435">
        <ele>355</ele>
        <time>2012-03-17T16:20:52Z</time>
      </trkpt>
      <trkpt lat="45.81832" lon="4.81421">
        <ele>354</ele>
        <time>2012-03-17T16:20:55Z</time>
      </trkpt>
      <trkpt lat="45.81818" lon="4.81411">
        <ele>351</ele>
        <time>2012-03-17T16:20:58Z</time>
      </trkpt>
      <trkpt lat="45.81806" lon="4.81411">
        <ele>350</ele>
        <time>2012-03-17T16:21:00Z</time>
      </trkpt>
      <trkpt lat="45.81786" lon="4.81408">
        <ele>349</ele>
        <time>2012-03-17T16:21:03Z</time>
      </trkpt>
      <trkpt lat="45.8178" lon="4.81407">
        <ele>349</ele>
        <time>2012-03-17T16:21:04Z</time>
      </trkpt>
      <trkpt lat="45.81747" lon="4.81404">
        <ele>347</ele>
        <time>2012-03-17T16:21:08Z</time>
      </trkpt>
      <trkpt lat="45.81739" lon="4.81403">
        <ele>347</ele>
        <time>2012-03-17T16:21:09Z</time>
      </trkpt>
      <trkpt lat="45.81696" lon="4.81395">
        <ele>345</ele>
        <time>2012-03-17T16:21:14Z</time>
      </trkpt>
      <trkpt lat="45.81678" lon="4.8139">
        <ele>345</ele>
        <time>2012-03-17T16:21:17Z</time>
      </trkpt>
      <trkpt lat="45.8167" lon="4.81387">
        <ele>345</ele>
        <time>2012-03-17T16:21:20Z</time>
      </trkpt>
      <trkpt lat="45.81659" lon="4.81384">
        <ele>343</ele>
        <time>2012-03-17T16:21:24Z</time>
      </trkpt>
      <trkpt lat="45.81627" lon="4.81377">
        <ele>342</ele>
        <time>2012-03-17T16:21:30Z</time>
      </trkpt>
      <trkpt lat="45.8162" lon="4.81376">
        <ele>342</ele>
        <time>2012-03-17T16:21:31Z</time>
      </trkpt>
      <trkpt lat="45.8159" lon="4.81375">
        <ele>342</ele>
        <time>2012-03-17T16:21:35Z</time>
      </trkpt>
      <trkpt lat="45.81582" lon="4.81374">
        <ele>340</ele>
        <time>2012-03-17T16:21:36Z</time>
      </trkpt>
      <trkpt lat="45.81542" lon="4.81368">
        <ele>340</ele>
        <time>2012-03-17T16:21:41Z</time>
      </trkpt>
      <trkpt lat="45.81501" lon="4.8136">
        <ele>339</ele>
        <time>2012-03-17T16:21:46Z</time>
      </trkpt>
      <trkpt lat="45.81486" lon="4.81358">
        <ele>338</ele>
        <time>2012-03-17T16:21:48Z</time>
      </trkpt>
      <trkpt lat="45.81473" lon="4.81358">
        <ele>337</ele>
        <time>2012-03-17T16:21:50Z</time>
      </trkpt>
      <trkpt lat="45.81467" lon="4.81362">
        <ele>337</ele>
        <time>2012-03-17T16:21:52Z</time>
      </trkpt>
      <trkpt lat="45.81464" lon="4.81364">
        <ele>337</ele>
        <time>2012-03-17T16:21:53Z</time>
      </trkpt>
      <trkpt lat="45.8146" lon="4.81379">
        <ele>337</ele>
        <time>2012-03-17T16:21:56Z</time>
      </trkpt>
      <trkpt lat="45.8146" lon="4.81395">
        <ele>337</ele>
        <time>2012-03-17T16:21:58Z</time>
      </trkpt>
      <trkpt lat="45.81458" lon="4.81404">
        <ele>337</ele>
        <time>2012-03-17T16:21:59Z</time>
      </trkpt>
      <trkpt lat="45.81455" lon="4.81414">
        <ele>337</ele>
        <time>2012-03-17T16:22:00Z</time>
      </trkpt>
      <trkpt lat="45.81437" lon="4.81472">
        <ele>335</ele>
        <time>2012-03-17T16:22:05Z</time>
      </trkpt>
      <trkpt lat="45.81436" lon="4.81513">
        <ele>331</ele>
        <time>2012-03-17T16:22:08Z</time>
      </trkpt>
      <trkpt lat="45.81437" lon="4.81526">
        <ele>331</ele>
        <time>2012-03-17T16:22:09Z</time>
      </trkpt>
      <trkpt lat="45.81434" lon="4.81568">
        <ele>328</ele>
        <time>2012-03-17T16:22:12Z</time>
      </trkpt>
      <trkpt lat="45.81434" lon="4.81582">
        <ele>328</ele>
        <time>2012-03-17T16:22:13Z</time>
      </trkpt>
      <trkpt lat="45.81431" lon="4.81623">
        <ele>324</ele>
        <time>2012-03-17T16:22:16Z</time>
      </trkpt>
      <trkpt lat="45.81432" lon="4.81643">
        <ele>323</ele>
        <time>2012-03-17T16:22:18Z</time>
      </trkpt>
      <trkpt lat="45.81433" lon="4.81662">
        <ele>322</ele>
        <time>2012-03-17T16:22:20Z</time>
      </trkpt>
      <trkpt lat="45.81428" lon="4.81689">
        <ele>321</ele>
        <time>2012-03-17T16:22:24Z</time>
      </trkpt>
      <trkpt lat="45.81428" lon="4.81698">
        <ele>321</ele>
        <time>2012-03-17T16:22:25Z</time>
      </trkpt>
      <trkpt lat="45.81427" lon="4.81728">
        <ele>321</ele>
        <time>2012-03-17T16:22:29Z</time>
      </trkpt>
      <trkpt lat="45.81415" lon="4.81753">
        <ele>317</ele>
        <time>2012-03-17T16:22:33Z</time>
      </trkpt>
      <trkpt lat="45.81404" lon="4.81776">
        <ele>313</ele>
        <time>2012-03-17T16:22:36Z</time>
      </trkpt>
      <trkpt lat="45.81401" lon="4.81786">
        <ele>312</ele>
        <time>2012-03-17T16:22:37Z</time>
      </trkpt>
      <trkpt lat="45.81396" lon="4.81806">
        <ele>311</ele>
        <time>2012-03-17T16:22:39Z</time>
      </trkpt>
      <trkpt lat="45.81392" lon="4.81827">
        <ele>311</ele>
        <time>2012-03-17T16:22:41Z</time>
      </trkpt>
      <trkpt lat="45.81393" lon="4.81853">
        <ele>309</ele>
        <time>2012-03-17T16:22:44Z</time>
      </trkpt>
      <trkpt lat="45.81396" lon="4.81859">
        <ele>309</ele>
        <time>2012-03-17T16:22:45Z</time>
      </trkpt>
      <trkpt lat="45.81405" lon="4.81868">
        <ele>309</ele>
        <time>2012-03-17T16:22:47Z</time>
      </trkpt>
      <trkpt lat="45.81429" lon="4.81875">
        <ele>317</ele>
        <time>2012-03-17T16:22:51Z</time>
      </trkpt>
      <trkpt lat="45.81447" lon="4.81881">
        <ele>318</ele>
        <time>2012-03-17T16:22:54Z</time>
      </trkpt>
      <trkpt lat="45.81458" lon="4.81899">
        <ele>318</ele>
        <time>2012-03-17T16:22:57Z</time>
      </trkpt>
      <trkpt lat="45.8146" lon="4.81908">
        <ele>318</ele>
        <time>2012-03-17T16:22:58Z</time>
      </trkpt>
      <trkpt lat="45.8146" lon="4.81917">
        <ele>318</ele>
        <time>2012-03-17T16:22:59Z</time>
      </trkpt>
      <trkpt lat="45.81458" lon="4.81925">
        <ele>318</ele>
        <time>2012-03-17T16:23:00Z</time>
      </trkpt>
      <trkpt lat="45.8145" lon="4.81954">
        <ele>318</ele>
        <time>2012-03-17T16:23:04Z</time>
      </trkpt>
      <trkpt lat="45.81449" lon="4.8196">
        <ele>318</ele>
        <time>2012-03-17T16:23:05Z</time>
      </trkpt>
      <trkpt lat="45.81438" lon="4.8198">
        <ele>318</ele>
        <time>2012-03-17T16:23:09Z</time>
      </trkpt>
      <trkpt lat="45.81433" lon="4.81999">
        <ele>317</ele>
        <time>2012-03-17T16:23:12Z</time>
      </trkpt>
      <trkpt lat="45.81432" lon="4.82006">
        <ele>318</ele>
        <time>2012-03-17T16:23:13Z</time>
      </trkpt>
      <trkpt lat="45.81433" lon="4.82046">
        <ele>318</ele>
        <time>2012-03-17T16:23:19Z</time>
      </trkpt>
      <trkpt lat="45.81433" lon="4.82053">
        <ele>317</ele>
        <time>2012-03-17T16:23:20Z</time>
      </trkpt>
      <trkpt lat="45.81432" lon="4.82077">
        <ele>316</ele>
        <time>2012-03-17T16:23:23Z</time>
      </trkpt>
      <trkpt lat="45.81433" lon="4.82086">
        <ele>312</ele>
        <time>2012-03-17T16:23:24Z</time>
      </trkpt>
      <trkpt lat="45.81438" lon="4.82104">
        <ele>312</ele>
        <time>2012-03-17T16:23:26Z</time>
      </trkpt>
      <trkpt lat="45.81447" lon="4.8212">
        <ele>311</ele>
        <time>2012-03-17T16:23:28Z</time>
      </trkpt>
      <trkpt lat="45.81467" lon="4.82138">
        <ele>311</ele>
        <time>2012-03-17T16:23:31Z</time>
      </trkpt>
      <trkpt lat="45.81483" lon="4.82148">
        <ele>311</ele>
        <time>2012-03-17T16:23:33Z</time>
      </trkpt>
      <trkpt lat="45.81509" lon="4.82162">
        <ele>313</ele>
        <time>2012-03-17T16:23:36Z</time>
      </trkpt>
      <trkpt lat="45.81545" lon="4.82187">
        <ele>312</ele>
        <time>2012-03-17T16:23:40Z</time>
      </trkpt>
      <trkpt lat="45.81548" lon="4.82197">
        <ele>312</ele>
        <time>2012-03-17T16:23:41Z</time>
      </trkpt>
      <trkpt lat="45.81549" lon="4.82224">
        <ele>311</ele>
        <time>2012-03-17T16:23:43Z</time>
      </trkpt>
      <trkpt lat="45.81549" lon="4.8225">
        <ele>306</ele>
        <time>2012-03-17T16:23:45Z</time>
      </trkpt>
      <trkpt lat="45.81549" lon="4.82275">
        <ele>305</ele>
        <time>2012-03-17T16:23:47Z</time>
      </trkpt>
      <trkpt lat="45.81548" lon="4.82283">
        <ele>305</ele>
        <time>2012-03-17T16:23:48Z</time>
      </trkpt>
      <trkpt lat="45.81537" lon="4.8229">
        <ele>304</ele>
        <time>2012-03-17T16:23:50Z</time>
      </trkpt>
      <trkpt lat="45.81529" lon="4.82292">
        <ele>303</ele>
        <time>2012-03-17T16:23:51Z</time>
      </trkpt>
      <trkpt lat="45.81519" lon="4.82292">
        <ele>303</ele>
        <time>2012-03-17T16:23:52Z</time>
      </trkpt>
      <trkpt lat="45.8151" lon="4.82292">
        <ele>303</ele>
        <time>2012-03-17T16:23:53Z</time>
      </trkpt>
      <trkpt lat="45.81491" lon="4.82292">
        <ele>297</ele>
        <time>2012-03-17T16:23:55Z</time>
      </trkpt>
      <trkpt lat="45.81472" lon="4.82293">
        <ele>296</ele>
        <time>2012-03-17T16:23:57Z</time>
      </trkpt>
      <trkpt lat="45.81448" lon="4.82293">
        <ele>295</ele>
        <time>2012-03-17T16:24:00Z</time>
      </trkpt>
      <trkpt lat="45.81443" lon="4.82293">
        <ele>295</ele>
        <time>2012-03-17T16:24:01Z</time>
      </trkpt>
      <trkpt lat="45.81438" lon="4.82294">
        <ele>295</ele>
        <time>2012-03-17T16:24:02Z</time>
      </trkpt>
      <trkpt lat="45.81432" lon="4.82307">
        <ele>294</ele>
        <time>2012-03-17T16:24:04Z</time>
      </trkpt>
      <trkpt lat="45.81432" lon="4.82327">
        <ele>293</ele>
        <time>2012-03-17T16:24:06Z</time>
      </trkpt>
      <trkpt lat="45.81437" lon="4.82361">
        <ele>290</ele>
        <time>2012-03-17T16:24:09Z</time>
      </trkpt>
      <trkpt lat="45.81449" lon="4.82381">
        <ele>289</ele>
        <time>2012-03-17T16:24:11Z</time>
      </trkpt>
      <trkpt lat="45.81456" lon="4.82391">
        <ele>289</ele>
        <time>2012-03-17T16:24:12Z</time>
      </trkpt>
      <trkpt lat="45.81475" lon="4.82427">
        <ele>285</ele>
        <time>2012-03-17T16:24:15Z</time>
      </trkpt>
      <trkpt lat="45.8148" lon="4.82441">
        <ele>285</ele>
        <time>2012-03-17T16:24:16Z</time>
      </trkpt>
      <trkpt lat="45.81492" lon="4.82486">
        <ele>283</ele>
        <time>2012-03-17T16:24:19Z</time>
      </trkpt>
      <trkpt lat="45.81494" lon="4.82503">
        <ele>281</ele>
        <time>2012-03-17T16:24:20Z</time>
      </trkpt>
      <trkpt lat="45.81493" lon="4.82555">
        <ele>277</ele>
        <time>2012-03-17T16:24:23Z</time>
      </trkpt>
      <trkpt lat="45.81487" lon="4.82591">
        <ele>274</ele>
        <time>2012-03-17T16:24:25Z</time>
      </trkpt>
      <trkpt lat="45.81484" lon="4.82608">
        <ele>274</ele>
        <time>2012-03-17T16:24:26Z</time>
      </trkpt>
      <trkpt lat="45.8148" lon="4.82626">
        <ele>273</ele>
        <time>2012-03-17T16:24:27Z</time>
      </trkpt>
      <trkpt lat="45.81474" lon="4.82659">
        <ele>272</ele>
        <time>2012-03-17T16:24:29Z</time>
      </trkpt>
      <trkpt lat="45.81466" lon="4.82706">
        <ele>267</ele>
        <time>2012-03-17T16:24:32Z</time>
      </trkpt>
      <trkpt lat="45.81465" lon="4.82718">
        <ele>267</ele>
        <time>2012-03-17T16:24:33Z</time>
      </trkpt>
      <trkpt lat="45.8146" lon="4.82737">
        <ele>266</ele>
        <time>2012-03-17T16:24:35Z</time>
      </trkpt>
      <trkpt lat="45.81456" lon="4.82766">
        <ele>264</ele>
        <time>2012-03-17T16:24:38Z</time>
      </trkpt>
      <trkpt lat="45.81459" lon="4.82776">
        <ele>264</ele>
        <time>2012-03-17T16:24:39Z</time>
      </trkpt>
      <trkpt lat="45.81461" lon="4.82787">
        <ele>264</ele>
        <time>2012-03-17T16:24:40Z</time>
      </trkpt>
      <trkpt lat="45.81465" lon="4.82797">
        <ele>264</ele>
        <time>2012-03-17T16:24:41Z</time>
      </trkpt>
      <trkpt lat="45.81469" lon="4.82808">
        <ele>264</ele>
        <time>2012-03-17T16:24:42Z</time>
      </trkpt>
      <trkpt lat="45.81475" lon="4.8283">
        <ele>265</ele>
        <time>2012-03-17T16:24:44Z</time>
      </trkpt>
      <trkpt lat="45.81476" lon="4.82853">
        <ele>265</ele>
        <time>2012-03-17T16:24:46Z</time>
      </trkpt>
      <trkpt lat="45.81478" lon="4.82885">
        <ele>265</ele>
        <time>2012-03-17T16:24:49Z</time>
      </trkpt>
      <trkpt lat="45.81479" lon="4.82905">
        <ele>265</ele>
        <time>2012-03-17T16:24:51Z</time>
      </trkpt>
      <trkpt lat="45.8148" lon="4.82922">
        <ele>265</ele>
        <time>2012-03-17T16:24:53Z</time>
      </trkpt>
      <trkpt lat="45.81481" lon="4.82939">
        <ele>265</ele>
        <time>2012-03-17T16:24:55Z</time>
      </trkpt>
      <trkpt lat="45.81481" lon="4.82948">
        <ele>265</ele>
        <time>2012-03-17T16:24:56Z</time>
      </trkpt>
      <trkpt lat="45.81476" lon="4.82964">
        <ele>265</ele>
        <time>2012-03-17T16:24:58Z</time>
      </trkpt>
      <trkpt lat="45.81452" lon="4.82964">
        <ele>264</ele>
        <time>2012-03-17T16:25:01Z</time>
      </trkpt>
      <trkpt lat="45.8143" lon="4.82967">
        <ele>264</ele>
        <time>2012-03-17T16:25:04Z</time>
      </trkpt>
      <trkpt lat="45.81423" lon="4.82968">
        <ele>264</ele>
        <time>2012-03-17T16:25:05Z</time>
      </trkpt>
      <trkpt lat="45.81415" lon="4.82969">
        <ele>263</ele>
        <time>2012-03-17T16:25:06Z</time>
      </trkpt>
      <trkpt lat="45.81375" lon="4.82975">
        <ele>263</ele>
        <time>2012-03-17T16:25:12Z</time>
      </trkpt>
      <trkpt lat="45.8134" lon="4.82987">
        <ele>263</ele>
        <time>2012-03-17T16:25:17Z</time>
      </trkpt>
      <trkpt lat="45.81303" lon="4.83001">
        <ele>262</ele>
        <time>2012-03-17T16:25:22Z</time>
      </trkpt>
      <trkpt lat="45.81283" lon="4.83008">
        <ele>262</ele>
        <time>2012-03-17T16:25:25Z</time>
      </trkpt>
      <trkpt lat="45.81263" lon="4.83015">
        <ele>261</ele>
        <time>2012-03-17T16:25:28Z</time>
      </trkpt>
      <trkpt lat="45.81228" lon="4.83024">
        <ele>258</ele>
        <time>2012-03-17T16:25:33Z</time>
      </trkpt>
      <trkpt lat="45.81222" lon="4.83025">
        <ele>258</ele>
        <time>2012-03-17T16:25:34Z</time>
      </trkpt>
      <trkpt lat="45.81215" lon="4.83027">
        <ele>257</ele>
        <time>2012-03-17T16:25:36Z</time>
      </trkpt>
      <trkpt lat="45.81207" lon="4.8303">
        <ele>257</ele>
        <time>2012-03-17T16:25:40Z</time>
      </trkpt>
      <trkpt lat="45.81201" lon="4.83033">
        <ele>257</ele>
        <time>2012-03-17T16:25:42Z</time>
      </trkpt>
      <trkpt lat="45.81192" lon="4.83035">
        <ele>257</ele>
        <time>2012-03-17T16:25:44Z</time>
      </trkpt>
      <trkpt lat="45.81187" lon="4.83036">
        <ele>257</ele>
        <time>2012-03-17T16:25:45Z</time>
      </trkpt>
      <trkpt lat="45.81167" lon="4.83039">
        <ele>256</ele>
        <time>2012-03-17T16:25:48Z</time>
      </trkpt>
      <trkpt lat="45.81146" lon="4.83043">
        <ele>253</ele>
        <time>2012-03-17T16:25:51Z</time>
      </trkpt>
      <trkpt lat="45.81123" lon="4.83047">
        <ele>253</ele>
        <time>2012-03-17T16:25:54Z</time>
      </trkpt>
      <trkpt lat="45.81109" lon="4.8305">
        <ele>253</ele>
        <time>2012-03-17T16:25:56Z</time>
      </trkpt>
      <trkpt lat="45.81069" lon="4.83059">
        <ele>251</ele>
        <time>2012-03-17T16:26:02Z</time>
      </trkpt>
      <trkpt lat="45.81034" lon="4.83065">
        <ele>251</ele>
        <time>2012-03-17T16:26:08Z</time>
      </trkpt>
      <trkpt lat="45.8103" lon="4.83064">
        <ele>250</ele>
        <time>2012-03-17T16:26:09Z</time>
      </trkpt>
      <trkpt lat="45.81025" lon="4.83054">
        <ele>250</ele>
        <time>2012-03-17T16:26:11Z</time>
      </trkpt>
      <trkpt lat="45.81024" lon="4.83041">
        <ele>250</ele>
        <time>2012-03-17T16:26:13Z</time>
      </trkpt>
      <trkpt lat="45.81025" lon="4.83021">
        <ele>250</ele>
        <time>2012-03-17T16:26:16Z</time>
      </trkpt>
      <trkpt lat="45.81025" lon="4.83014">
        <ele>250</ele>
        <time>2012-03-17T16:26:17Z</time>
      </trkpt>
      <trkpt lat="45.81025" lon="4.82999">
        <ele>250</ele>
        <time>2012-03-17T16:26:19Z</time>
      </trkpt>
      <trkpt lat="45.81021" lon="4.82987">
        <ele>250</ele>
        <time>2012-03-17T16:26:21Z</time>
      </trkpt>
      <trkpt lat="45.81006" lon="4.82984">
        <ele>250</ele>
        <time>2012-03-17T16:26:24Z</time>
      </trkpt>
      <trkpt lat="45.81" lon="4.82984">
        <ele>250</ele>
        <time>2012-03-17T16:26:25Z</time>
      </trkpt>
      <trkpt lat="45.80969" lon="4.82983">
        <ele>249</ele>
        <time>2012-03-17T16:26:30Z</time>
      </trkpt>
      <trkpt lat="45.80962" lon="4.82983">
        <ele>249</ele>
        <time>2012-03-17T16:26:31Z</time>
      </trkpt>
      <trkpt lat="45.80922" lon="4.82984">
        <ele>249</ele>
        <time>2012-03-17T16:26:37Z</time>
      </trkpt>
      <trkpt lat="45.80915" lon="4.82985">
        <ele>248</ele>
        <time>2012-03-17T16:26:38Z</time>
      </trkpt>
      <trkpt lat="45.80895" lon="4.82978">
        <ele>247</ele>
        <time>2012-03-17T16:26:41Z</time>
      </trkpt>
      <trkpt lat="45.80881" lon="4.82974">
        <ele>246</ele>
        <time>2012-03-17T16:26:43Z</time>
      </trkpt>
      <trkpt lat="45.80853" lon="4.82963">
        <ele>246</ele>
        <time>2012-03-17T16:26:47Z</time>
      </trkpt>
      <trkpt lat="45.80846" lon="4.8296">
        <ele>246</ele>
        <time>2012-03-17T16:26:48Z</time>
      </trkpt>
      <trkpt lat="45.80811" lon="4.82951">
        <ele>244</ele>
        <time>2012-03-17T16:26:53Z</time>
      </trkpt>
      <trkpt lat="45.80784" lon="4.82942">
        <ele>244</ele>
        <time>2012-03-17T16:26:57Z</time>
      </trkpt>
      <trkpt lat="45.8077" lon="4.82935">
        <ele>244</ele>
        <time>2012-03-17T16:26:59Z</time>
      </trkpt>
      <trkpt lat="45.80744" lon="4.82918">
        <ele>242</ele>
        <time>2012-03-17T16:27:03Z</time>
      </trkpt>
      <trkpt lat="45.80733" lon="4.82912">
        <ele>241</ele>
        <time>2012-03-17T16:27:05Z</time>
      </trkpt>
      <trkpt lat="45.80718" lon="4.82905">
        <ele>241</ele>
        <time>2012-03-17T16:27:08Z</time>
      </trkpt>
      <trkpt lat="45.80692" lon="4.82896">
        <ele>241</ele>
        <time>2012-03-17T16:27:12Z</time>
      </trkpt>
      <trkpt lat="45.80685" lon="4.82894">
        <ele>241</ele>
        <time>2012-03-17T16:27:13Z</time>
      </trkpt>
      <trkpt lat="45.80671" lon="4.82893">
        <ele>241</ele>
        <time>2012-03-17T16:27:15Z</time>
      </trkpt>
      <trkpt lat="45.80658" lon="4.82897">
        <ele>239</ele>
        <time>2012-03-17T16:27:17Z</time>
      </trkpt>
      <trkpt lat="45.80651" lon="4.829">
        <ele>239</ele>
        <time>2012-03-17T16:27:18Z</time>
      </trkpt>
      <trkpt lat="45.80645" lon="4.82902">
        <ele>239</ele>
        <time>2012-03-17T16:27:19Z</time>
      </trkpt>
      <trkpt lat="45.8063" lon="4.82911">
        <ele>238</ele>
        <time>2012-03-17T16:27:22Z</time>
      </trkpt>
      <trkpt lat="45.80613" lon="4.82918">
        <ele>241</ele>
        <time>2012-03-17T16:27:26Z</time>
      </trkpt>
      <trkpt lat="45.80609" lon="4.8292">
        <ele>241</ele>
        <time>2012-03-17T16:27:27Z</time>
      </trkpt>
      <trkpt lat="45.80597" lon="4.82926">
        <ele>240</ele>
        <time>2012-03-17T16:27:30Z</time>
      </trkpt>
      <trkpt lat="45.80587" lon="4.82929">
        <ele>240</ele>
        <time>2012-03-17T16:27:32Z</time>
      </trkpt>
      <trkpt lat="45.80577" lon="4.82933">
        <ele>239</ele>
        <time>2012-03-17T16:27:34Z</time>
      </trkpt>
      <trkpt lat="45.8054" lon="4.82946">
        <ele>240</ele>
        <time>2012-03-17T16:27:41Z</time>
      </trkpt>
      <trkpt lat="45.80501" lon="4.82949">
        <ele>240</ele>
        <time>2012-03-17T16:27:48Z</time>
      </trkpt>
      <trkpt lat="45.80462" lon="4.8295">
        <ele>240</ele>
        <time>2012-03-17T16:27:56Z</time>
      </trkpt>
      <trkpt lat="45.80444" lon="4.82952">
        <ele>240</ele>
        <time>2012-03-17T16:27:59Z</time>
      </trkpt>
      <trkpt lat="45.80435" lon="4.8296">
        <ele>241</ele>
        <time>2012-03-17T16:28:01Z</time>
      </trkpt>
      <trkpt lat="45.80429" lon="4.82972">
        <ele>241</ele>
        <time>2012-03-17T16:28:03Z</time>
      </trkpt>
      <trkpt lat="45.80426" lon="4.82986">
        <ele>241</ele>
        <time>2012-03-17T16:28:05Z</time>
      </trkpt>
      <trkpt lat="45.80425" lon="4.82994">
        <ele>242</ele>
        <time>2012-03-17T16:28:06Z</time>
      </trkpt>
      <trkpt lat="45.80416" lon="4.83027">
        <ele>241</ele>
        <time>2012-03-17T16:28:10Z</time>
      </trkpt>
      <trkpt lat="45.80399" lon="4.83083">
        <ele>240</ele>
        <time>2012-03-17T16:28:16Z</time>
      </trkpt>
      <trkpt lat="45.8039" lon="4.83113">
        <ele>238</ele>
        <time>2012-03-17T16:28:20Z</time>
      </trkpt>
      <trkpt lat="45.80392" lon="4.83127">
        <ele>238</ele>
        <time>2012-03-17T16:28:23Z</time>
      </trkpt>
      <trkpt lat="45.80395" lon="4.83133">
        <ele>238</ele>
        <time>2012-03-17T16:28:25Z</time>
      </trkpt>
      <trkpt lat="45.80395" lon="4.83136">
        <ele>238</ele>
        <time>2012-03-17T16:28:26Z</time>
      </trkpt>
      <trkpt lat="45.80395" lon="4.83137">
        <ele>238</ele>
        <time>2012-03-17T16:28:27Z</time>
      </trkpt>
    </trkseg>
  </trk>
</gpx>